Time,TemperatureF,DewpointF,PressureIn,WindDirection,WindDirectionDegrees,WindSpeedMPH,WindSpeedGustMPH,Humidity,HourlyPrecipIn,Conditions,Clouds,dailyrainin,SoftwareType,DateUTC
2013-01-17 00:00:00,24.2,19.2,30.27,NW,308,0.0,0.0,81,0.00,,---,0.00,VWS V14.00,2013-01-17 06:00:00,
2013-01-17 00:01:00,24.2,19.2,30.26,NW,308,0.0,0.0,81,0.00,,---,0.00,VWS V14.00,2013-01-17 06:01:00,
2013-01-17 00:02:00,24.1,19.1,30.26,NW,308,0.0,0.0,81,0.00,,---,0.00,VWS V14.00,2013-01-17 06:02:00,
2013-01-17 00:03:00,24.1,19.1,30.26,NW,308,0.0,0.0,81,0.00,,---,0.00,VWS V14.00,2013-01-17 06:03:00,
2013-01-17 00:04:00,24.1,19.1,30.26,NW,308,0.0,0.0,81,0.00,,---,0.00,VWS V14.00,2013-01-17 06:04:00,
2013-01-17 00:05:00,24.1,19.1,30.26,NW,308,0.0,0.0,81,0.00,,---,0.00,VWS V14.00,2013-01-17 06:05:00,
2013-01-17 00:06:00,24.1,19.1,30.26,NW,308,0.0,0.0,81,0.00,,---,0.00,VWS V14.00,2013-01-17 06:06:00,
2013-01-17 00:07:00,24.1,19.1,30.26,NW,308,0.0,0.0,81,0.00,,---,0.00,VWS V14.00,2013-01-17 06:07:00,
2013-01-17 00:08:00,24.2,19.2,30.27,NW,308,0.0,0.0,81,0.00,,---,0.00,VWS V14.00,2013-01-17 06:08:00,
2013-01-17 00:09:00,24.1,19.1,30.26,NW,308,0.0,0.0,81,0.00,,---,0.00,VWS V14.00,2013-01-17 06:09:00,
2013-01-17 00:10:00,24.2,19.2,30.27,NW,308,0.0,0.0,81,0.00,,---,0.00,VWS V14.00,2013-01-17 06:10:00,
2013-01-17 00:11:00,24.2,19.2,30.27,NW,308,0.0,0.0,81,0.00,,---,0.00,VWS V14.00,2013-01-17 06:11:00,
2013-01-17 00:12:00,24.2,19.2,30.27,NW,308,0.0,0.0,81,0.00,,---,0.00,VWS V14.00,2013-01-17 06:12:00,
2013-01-17 00:13:00,24.2,19.2,30.27,NW,308,0.0,0.0,81,0.00,,---,0.00,VWS V14.00,2013-01-17 06:13:00,
2013-01-17 00:14:00,24.2,19.2,30.27,NW,308,0.0,0.0,81,0.00,,---,0.00,VWS V14.00,2013-01-17 06:14:00,
2013-01-17 00:15:00,24.2,19.2,30.27,NW,308,0.0,0.0,81,0.00,,---,0.00,VWS V14.00,2013-01-17 06:15:00,
2013-01-17 00:16:00,24.2,19.2,30.27,NW,308,0.0,0.0,81,0.00,,---,0.00,VWS V14.00,2013-01-17 06:16:00,
2013-01-17 00:17:00,24.2,19.2,30.27,NW,308,0.0,0.0,81,0.00,,---,0.00,VWS V14.00,2013-01-17 06:17:00,
2013-01-17 00:18:00,24.2,19.2,30.27,NW,308,0.0,0.0,81,0.00,,---,0.00,VWS V14.00,2013-01-17 06:18:00,
2013-01-17 00:19:00,24.2,19.5,30.27,NW,308,0.0,0.0,82,0.00,,---,0.00,VWS V14.00,2013-01-17 06:19:00,
2013-01-17 00:20:00,24.2,19.2,30.27,NW,308,0.0,0.0,81,0.00,,---,0.00,VWS V14.00,2013-01-17 06:20:00,
2013-01-17 00:21:00,24.2,19.5,30.27,NW,308,0.0,0.0,82,0.00,,---,0.00,VWS V14.00,2013-01-17 06:21:00,
2013-01-17 00:22:00,24.2,19.5,30.27,NW,308,0.0,0.0,82,0.00,,---,0.00,VWS V14.00,2013-01-17 06:22:00,
2013-01-17 00:23:00,24.2,19.2,30.27,NW,308,0.0,0.0,81,0.00,,---,0.00,VWS V14.00,2013-01-17 06:23:00,
2013-01-17 00:24:00,24.2,19.5,30.27,NW,308,0.0,0.0,82,0.00,,---,0.00,VWS V14.00,2013-01-17 06:24:00,
2013-01-17 00:25:00,24.2,19.2,30.27,NW,308,0.0,0.0,81,0.00,,---,0.00,VWS V14.00,2013-01-17 06:25:00,
2013-01-17 00:26:00,24.2,19.2,30.28,NW,308,0.0,0.0,81,0.00,,---,0.00,VWS V14.00,2013-01-17 06:26:00,
2013-01-17 00:27:00,24.2,19.2,30.28,NW,308,0.0,0.0,81,0.00,,---,0.00,VWS V14.00,2013-01-17 06:27:00,
2013-01-17 00:28:00,24.2,19.5,30.28,NW,308,0.0,0.0,82,0.00,,---,0.00,VWS V14.00,2013-01-17 06:28:00,
2013-01-17 00:29:00,24.2,19.2,30.28,NW,308,0.0,0.0,81,0.00,,---,0.00,VWS V14.00,2013-01-17 06:29:00,
2013-01-17 00:30:00,24.2,19.5,30.28,NW,308,0.0,0.0,82,0.00,,---,0.00,VWS V14.00,2013-01-17 06:30:00,
2013-01-17 00:31:00,24.2,19.5,30.28,NW,308,0.0,0.0,82,0.00,,---,0.00,VWS V14.00,2013-01-17 06:31:00,
2013-01-17 00:32:00,24.2,19.2,30.28,NW,308,0.0,0.0,81,0.00,,---,0.00,VWS V14.00,2013-01-17 06:32:00,
2013-01-17 00:33:00,24.2,19.2,30.28,NW,308,0.0,0.0,81,0.00,,---,0.00,VWS V14.00,2013-01-17 06:33:00,
2013-01-17 00:34:00,24.2,19.2,30.28,NW,308,0.0,0.0,81,0.00,,---,0.00,VWS V14.00,2013-01-17 06:34:00,
2013-01-17 00:35:00,24.2,19.2,30.28,NW,308,0.0,0.0,81,0.00,,---,0.00,VWS V14.00,2013-01-17 06:35:00,
2013-01-17 00:36:00,24.4,19.7,30.28,NW,308,0.0,0.0,82,0.00,,---,0.00,VWS V14.00,2013-01-17 06:36:00,
2013-01-17 00:37:00,24.4,19.7,30.28,NW,308,0.0,0.0,82,0.00,,---,0.00,VWS V14.00,2013-01-17 06:37:00,
2013-01-17 00:38:00,24.5,19.8,30.28,NW,308,0.0,0.0,82,0.00,,---,0.00,VWS V14.00,2013-01-17 06:38:00,
2013-01-17 00:39:00,24.5,19.8,30.28,NW,308,0.0,0.0,82,0.00,,---,0.00,VWS V14.00,2013-01-17 06:39:00,
2013-01-17 00:40:00,24.5,19.8,30.28,NW,308,0.0,0.0,82,0.00,,---,0.00,VWS V14.00,2013-01-17 06:40:00,
2013-01-17 00:41:00,24.7,20.0,30.28,NW,308,0.0,0.0,82,0.00,,---,0.00,VWS V14.00,2013-01-17 06:41:00,
2013-01-17 00:42:00,24.7,20.0,30.28,NW,308,0.0,0.0,82,0.00,,---,0.00,VWS V14.00,2013-01-17 06:42:00,
2013-01-17 00:43:00,24.8,20.1,30.28,NW,308,0.0,0.0,82,0.00,,---,0.00,VWS V14.00,2013-01-17 06:43:00,
2013-01-17 00:44:00,24.8,20.1,30.28,NW,308,0.0,0.0,82,0.00,,---,0.00,VWS V14.00,2013-01-17 06:44:00,
2013-01-17 00:45:00,24.8,20.1,30.28,NW,308,0.0,0.0,82,0.00,,---,0.00,VWS V14.00,2013-01-17 06:45:00,
2013-01-17 00:46:00,24.8,20.1,30.28,NW,308,0.0,0.0,82,0.00,,---,0.00,VWS V14.00,2013-01-17 06:46:00,
2013-01-17 00:47:00,25.0,20.3,30.28,NW,308,0.0,0.0,82,0.00,,---,0.00,VWS V14.00,2013-01-17 06:47:00,
2013-01-17 00:48:00,25.1,20.4,30.28,NW,308,0.0,0.0,82,0.00,,---,0.00,VWS V14.00,2013-01-17 06:48:00,
2013-01-17 00:49:00,25.0,20.3,30.28,NW,308,0.0,0.0,82,0.00,,---,0.00,VWS V14.00,2013-01-17 06:49:00,
2013-01-17 00:50:00,25.1,20.4,30.28,NW,308,0.0,0.0,82,0.00,,---,0.00,VWS V14.00,2013-01-17 06:50:00,
2013-01-17 00:51:00,25.1,20.4,30.28,NW,308,0.0,0.0,82,0.00,,---,0.00,VWS V14.00,2013-01-17 06:51:00,
2013-01-17 00:52:00,25.1,20.4,30.28,NW,308,0.0,0.0,82,0.00,,---,0.00,VWS V14.00,2013-01-17 06:52:00,
2013-01-17 00:53:00,25.1,20.4,30.28,NW,308,0.0,0.0,82,0.00,,---,0.00,VWS V14.00,2013-01-17 06:53:00,
2013-01-17 00:54:00,25.1,20.4,30.28,NW,308,0.0,0.0,82,0.00,,---,0.00,VWS V14.00,2013-01-17 06:54:00,
2013-01-17 00:55:00,25.1,20.4,30.28,NW,308,0.0,0.0,82,0.00,,---,0.00,VWS V14.00,2013-01-17 06:55:00,
2013-01-17 00:56:00,25.1,20.4,30.28,NW,308,0.0,0.0,82,0.00,,---,0.00,VWS V14.00,2013-01-17 06:56:00,
2013-01-17 00:57:00,25.1,20.4,30.28,NW,308,0.0,0.0,82,0.00,,---,0.00,VWS V14.00,2013-01-17 06:57:00,
2013-01-17 00:58:00,25.0,20.3,30.28,NW,308,0.0,0.0,82,0.00,,---,0.00,VWS V14.00,2013-01-17 06:58:00,
2013-01-17 00:59:00,25.0,20.3,30.28,NW,308,0.0,0.0,82,0.00,,---,0.00,VWS V14.00,2013-01-17 06:59:00,
2013-01-17 01:00:00,25.0,20.3,30.28,NW,308,0.0,0.0,82,0.00,,---,0.00,VWS V14.00,2013-01-17 07:00:00,
2013-01-17 01:01:00,25.0,20.3,30.28,NW,308,0.0,0.0,82,0.00,,---,0.00,VWS V14.00,2013-01-17 07:01:00,
2013-01-17 01:02:00,25.0,20.3,30.28,NW,308,0.0,0.0,82,0.00,,---,0.00,VWS V14.00,2013-01-17 07:02:00,
2013-01-17 01:03:00,24.8,20.1,30.28,NW,308,0.0,0.0,82,0.00,,---,0.00,VWS V14.00,2013-01-17 07:03:00,
2013-01-17 01:04:00,25.0,20.3,30.28,NW,308,0.0,0.0,82,0.00,,---,0.00,VWS V14.00,2013-01-17 07:04:00,
2013-01-17 01:05:00,24.8,20.1,30.28,NW,308,0.0,0.0,82,0.00,,---,0.00,VWS V14.00,2013-01-17 07:05:00,
2013-01-17 01:06:00,24.8,20.1,30.28,NW,308,0.0,0.0,82,0.00,,---,0.00,VWS V14.00,2013-01-17 07:06:00,
2013-01-17 01:07:00,24.8,20.1,30.28,NW,308,0.0,0.0,82,0.00,,---,0.00,VWS V14.00,2013-01-17 07:07:00,
2013-01-17 01:08:00,24.8,20.1,30.28,NW,308,0.0,0.0,82,0.00,,---,0.00,VWS V14.00,2013-01-17 07:08:00,
2013-01-17 01:09:00,24.8,20.1,30.28,NW,308,0.0,0.0,82,0.00,,---,0.00,VWS V14.00,2013-01-17 07:09:00,
2013-01-17 01:10:00,24.8,20.1,30.28,NW,308,0.0,0.0,82,0.00,,---,0.00,VWS V14.00,2013-01-17 07:10:00,
2013-01-17 01:11:00,24.8,20.1,30.28,NW,308,0.0,0.0,82,0.00,,---,0.00,VWS V14.00,2013-01-17 07:11:00,
2013-01-17 01:12:00,24.8,20.1,30.28,NW,308,0.0,0.0,82,0.00,,---,0.00,VWS V14.00,2013-01-17 07:12:00,
2013-01-17 01:13:00,24.8,20.1,30.28,NW,308,0.0,0.0,82,0.00,,---,0.00,VWS V14.00,2013-01-17 07:13:00,
2013-01-17 01:14:00,24.8,20.1,30.28,NW,308,0.0,0.0,82,0.00,,---,0.00,VWS V14.00,2013-01-17 07:14:00,
2013-01-17 01:15:00,24.8,20.1,30.28,NW,308,0.0,0.0,82,0.00,,---,0.00,VWS V14.00,2013-01-17 07:15:00,
2013-01-17 01:16:00,24.8,20.1,30.28,NW,308,0.0,0.0,82,0.00,,---,0.00,VWS V14.00,2013-01-17 07:16:00,
2013-01-17 01:17:00,24.8,20.1,30.28,NW,308,0.0,0.0,82,0.00,,---,0.00,VWS V14.00,2013-01-17 07:17:00,
2013-01-17 01:18:00,24.8,20.1,30.28,NW,308,0.0,0.0,82,0.00,,---,0.00,VWS V14.00,2013-01-17 07:18:00,
2013-01-17 01:19:00,24.8,20.1,30.28,NW,308,0.0,0.0,82,0.00,,---,0.00,VWS V14.00,2013-01-17 07:19:00,
2013-01-17 01:20:00,24.8,20.1,30.28,NW,308,0.0,0.0,82,0.00,,---,0.00,VWS V14.00,2013-01-17 07:20:00,
2013-01-17 01:21:00,24.7,20.0,30.28,NW,308,0.0,0.0,82,0.00,,---,0.00,VWS V14.00,2013-01-17 07:21:00,
2013-01-17 01:22:00,24.7,20.0,30.28,NW,308,0.0,0.0,82,0.00,,---,0.00,VWS V14.00,2013-01-17 07:22:00,
2013-01-17 01:23:00,24.7,20.0,30.28,NW,308,0.0,0.0,82,0.00,,---,0.00,VWS V14.00,2013-01-17 07:23:00,
2013-01-17 01:24:00,24.7,20.0,30.28,NW,308,0.0,0.0,82,0.00,,---,0.00,VWS V14.00,2013-01-17 07:24:00,
2013-01-17 01:25:00,24.7,20.0,30.28,NW,308,0.0,0.0,82,0.00,,---,0.00,VWS V14.00,2013-01-17 07:25:00,
2013-01-17 01:26:00,24.7,20.0,30.28,NW,308,0.0,0.0,82,0.00,,---,0.00,VWS V14.00,2013-01-17 07:26:00,
2013-01-17 01:27:00,24.7,20.0,30.28,NW,308,0.0,0.0,82,0.00,,---,0.00,VWS V14.00,2013-01-17 07:27:00,
2013-01-17 01:28:00,24.7,20.0,30.28,NW,308,0.0,0.0,82,0.00,,---,0.00,VWS V14.00,2013-01-17 07:28:00,
2013-01-17 01:29:00,24.7,20.0,30.28,NW,308,0.0,0.0,82,0.00,,---,0.00,VWS V14.00,2013-01-17 07:29:00,
2013-01-17 01:30:00,24.7,20.0,30.28,NW,308,0.0,0.0,82,0.00,,---,0.00,VWS V14.00,2013-01-17 07:30:00,
2013-01-17 01:31:00,24.7,20.0,30.28,NW,308,0.0,0.0,82,0.00,,---,0.00,VWS V14.00,2013-01-17 07:31:00,
2013-01-17 01:32:00,24.7,20.0,30.28,NW,308,0.0,0.0,82,0.00,,---,0.00,VWS V14.00,2013-01-17 07:32:00,
2013-01-17 01:33:00,24.7,20.0,30.28,NW,308,0.0,0.0,82,0.00,,---,0.00,VWS V14.00,2013-01-17 07:33:00,
2013-01-17 01:34:00,24.7,20.0,30.28,NW,308,0.0,0.0,82,0.00,,---,0.00,VWS V14.00,2013-01-17 07:34:00,
2013-01-17 01:35:00,24.7,20.0,30.28,NW,308,0.0,0.0,82,0.00,,---,0.00,VWS V14.00,2013-01-17 07:35:00,
2013-01-17 01:36:00,24.5,19.8,30.28,NW,308,0.0,0.0,82,0.00,,---,0.00,VWS V14.00,2013-01-17 07:36:00,
2013-01-17 01:37:00,24.5,19.8,30.28,NW,308,0.0,0.0,82,0.00,,---,0.00,VWS V14.00,2013-01-17 07:37:00,
2013-01-17 01:38:00,24.5,19.8,30.29,NW,308,0.0,0.0,82,0.00,,---,0.00,VWS V14.00,2013-01-17 07:38:00,
2013-01-17 01:39:00,24.5,19.8,30.29,NW,308,0.0,0.0,82,0.00,,---,0.00,VWS V14.00,2013-01-17 07:39:00,
2013-01-17 01:40:00,24.5,19.8,30.29,NW,308,0.0,0.0,82,0.00,,---,0.00,VWS V14.00,2013-01-17 07:40:00,
2013-01-17 01:41:00,24.5,19.8,30.29,NW,308,0.0,0.0,82,0.00,,---,0.00,VWS V14.00,2013-01-17 07:41:00,
2013-01-17 01:42:00,24.5,19.8,30.29,NW,308,0.0,0.0,82,0.00,,---,0.00,VWS V14.00,2013-01-17 07:42:00,
2013-01-17 01:43:00,24.4,19.7,30.29,NW,308,0.0,0.0,82,0.00,,---,0.00,VWS V14.00,2013-01-17 07:43:00,
2013-01-17 01:44:00,24.4,19.7,30.29,NW,308,0.0,0.0,82,0.00,,---,0.00,VWS V14.00,2013-01-17 07:44:00,
2013-01-17 01:45:00,24.4,19.7,30.29,NW,308,0.0,0.0,82,0.00,,---,0.00,VWS V14.00,2013-01-17 07:45:00,
2013-01-17 01:46:00,24.4,19.7,30.29,NW,308,0.0,0.0,82,0.00,,---,0.00,VWS V14.00,2013-01-17 07:46:00,
2013-01-17 01:47:00,24.4,19.7,30.29,NW,308,0.0,0.0,82,0.00,,---,0.00,VWS V14.00,2013-01-17 07:47:00,
2013-01-17 01:48:00,24.4,19.7,30.29,NW,308,0.0,0.0,82,0.00,,---,0.00,VWS V14.00,2013-01-17 07:48:00,
2013-01-17 01:49:00,24.4,19.7,30.29,NW,308,0.0,0.0,82,0.00,,---,0.00,VWS V14.00,2013-01-17 07:49:00,
2013-01-17 01:50:00,24.4,19.7,30.29,NW,308,0.0,0.0,82,0.00,,---,0.00,VWS V14.00,2013-01-17 07:50:00,
2013-01-17 01:51:00,24.4,19.7,30.29,NW,308,0.0,0.0,82,0.00,,---,0.00,VWS V14.00,2013-01-17 07:51:00,
2013-01-17 01:52:00,24.4,19.7,30.29,NW,308,0.0,0.0,82,0.00,,---,0.00,VWS V14.00,2013-01-17 07:52:00,
2013-01-17 01:53:00,24.2,19.5,30.29,NW,308,0.0,0.0,82,0.00,,---,0.00,VWS V14.00,2013-01-17 07:53:00,
2013-01-17 01:54:00,24.2,19.5,30.29,NW,308,0.0,0.0,82,0.00,,---,0.00,VWS V14.00,2013-01-17 07:54:00,
2013-01-17 01:55:00,24.2,19.5,30.29,NW,308,0.0,0.0,82,0.00,,---,0.00,VWS V14.00,2013-01-17 07:55:00,
2013-01-17 01:56:00,24.4,19.7,30.29,NW,308,0.0,0.0,82,0.00,,---,0.00,VWS V14.00,2013-01-17 07:56:00,
2013-01-17 01:57:00,24.4,19.7,30.29,NW,308,0.0,0.0,82,0.00,,---,0.00,VWS V14.00,2013-01-17 07:57:00,
2013-01-17 01:58:00,24.4,19.7,30.29,NW,308,0.0,0.0,82,0.00,,---,0.00,VWS V14.00,2013-01-17 07:58:00,
2013-01-17 01:59:00,24.4,19.7,30.29,NW,308,0.0,0.0,82,0.00,,---,0.00,VWS V14.00,2013-01-17 07:59:00,
2013-01-17 02:00:00,24.4,19.7,30.29,NW,308,0.0,0.0,82,0.00,,---,0.00,VWS V14.00,2013-01-17 08:00:00,
2013-01-17 02:01:00,24.4,19.7,30.29,NW,308,0.0,0.0,82,0.00,,---,0.00,VWS V14.00,2013-01-17 08:01:00,
2013-01-17 02:02:00,24.4,19.7,30.29,NW,308,0.0,0.0,82,0.00,,---,0.00,VWS V14.00,2013-01-17 08:02:00,
2013-01-17 02:03:00,24.4,19.7,30.29,NW,308,0.0,0.0,82,0.00,,---,0.00,VWS V14.00,2013-01-17 08:03:00,
2013-01-17 02:04:00,24.4,19.7,30.29,NW,308,0.0,0.0,82,0.00,,---,0.00,VWS V14.00,2013-01-17 08:04:00,
2013-01-17 02:05:00,24.4,19.7,30.29,NW,308,0.0,0.0,82,0.00,,---,0.00,VWS V14.00,2013-01-17 08:05:00,
2013-01-17 02:06:00,24.4,19.7,30.29,NW,308,0.0,0.0,82,0.00,,---,0.00,VWS V14.00,2013-01-17 08:06:00,
2013-01-17 02:07:00,24.2,19.5,30.29,NW,308,0.0,0.0,82,0.00,,---,0.00,VWS V14.00,2013-01-17 08:07:00,
2013-01-17 02:08:00,24.2,19.5,30.29,NW,308,0.0,0.0,82,0.00,,---,0.00,VWS V14.00,2013-01-17 08:08:00,
2013-01-17 02:09:00,24.2,19.5,30.29,NW,308,0.0,0.0,82,0.00,,---,0.00,VWS V14.00,2013-01-17 08:09:00,
2013-01-17 02:10:00,24.2,19.5,30.29,NW,308,0.0,0.0,82,0.00,,---,0.00,VWS V14.00,2013-01-17 08:10:00,
2013-01-17 02:11:00,24.2,19.5,30.29,NW,308,0.0,0.0,82,0.00,,---,0.00,VWS V14.00,2013-01-17 08:11:00,
2013-01-17 02:12:00,24.2,19.5,30.29,NW,308,0.0,0.0,82,0.00,,---,0.00,VWS V14.00,2013-01-17 08:12:00,
2013-01-17 02:13:00,24.2,19.5,30.29,NW,308,0.0,0.0,82,0.00,,---,0.00,VWS V14.00,2013-01-17 08:13:00,
2013-01-17 02:14:00,24.2,19.5,30.29,NW,308,0.0,0.0,82,0.00,,---,0.00,VWS V14.00,2013-01-17 08:14:00,
2013-01-17 02:15:00,24.2,19.5,30.29,NW,308,0.0,0.0,82,0.00,,---,0.00,VWS V14.00,2013-01-17 08:15:00,
2013-01-17 02:16:00,24.2,19.8,30.29,NW,308,0.0,0.0,83,0.00,,---,0.00,VWS V14.00,2013-01-17 08:16:00,
2013-01-17 02:17:00,24.2,19.8,30.29,NW,308,0.0,0.0,83,0.00,,---,0.00,VWS V14.00,2013-01-17 08:17:00,
2013-01-17 02:18:00,24.1,19.7,30.29,NW,308,0.0,0.0,83,0.00,,---,0.00,VWS V14.00,2013-01-17 08:18:00,
2013-01-17 02:19:00,24.2,19.8,30.29,NW,308,0.0,0.0,83,0.00,,---,0.00,VWS V14.00,2013-01-17 08:19:00,
2013-01-17 02:20:00,24.1,19.7,30.29,NW,308,0.0,0.0,83,0.00,,---,0.00,VWS V14.00,2013-01-17 08:20:00,
2013-01-17 02:21:00,24.1,19.7,30.29,NW,308,0.0,0.0,83,0.00,,---,0.00,VWS V14.00,2013-01-17 08:21:00,
2013-01-17 02:22:00,24.1,19.7,30.29,NW,308,0.0,0.0,83,0.00,,---,0.00,VWS V14.00,2013-01-17 08:22:00,
2013-01-17 02:23:00,24.1,19.7,30.29,NW,308,0.0,0.0,83,0.00,,---,0.00,VWS V14.00,2013-01-17 08:23:00,
2013-01-17 02:24:00,24.1,19.7,30.29,NW,308,0.0,0.0,83,0.00,,---,0.00,VWS V14.00,2013-01-17 08:24:00,
2013-01-17 02:25:00,24.1,19.7,30.29,NW,308,0.0,0.0,83,0.00,,---,0.00,VWS V14.00,2013-01-17 08:25:00,
2013-01-17 02:26:00,24.1,19.7,30.29,NW,308,0.0,0.0,83,0.00,,---,0.00,VWS V14.00,2013-01-17 08:26:00,
2013-01-17 02:27:00,24.1,19.7,30.29,NW,308,0.0,0.0,83,0.00,,---,0.00,VWS V14.00,2013-01-17 08:27:00,
2013-01-17 02:28:00,24.1,19.7,30.29,NW,308,0.0,0.0,83,0.00,,---,0.00,VWS V14.00,2013-01-17 08:28:00,
2013-01-17 02:29:00,24.1,19.7,30.29,NW,308,0.0,0.0,83,0.00,,---,0.00,VWS V14.00,2013-01-17 08:29:00,
2013-01-17 02:30:00,24.1,19.7,30.29,NW,308,0.0,0.0,83,0.00,,---,0.00,VWS V14.00,2013-01-17 08:30:00,
2013-01-17 02:31:00,24.1,19.7,30.29,NW,308,0.0,0.0,83,0.00,,---,0.00,VWS V14.00,2013-01-17 08:31:00,
2013-01-17 02:32:00,23.9,19.5,30.29,NW,308,0.0,0.0,83,0.00,,---,0.00,VWS V14.00,2013-01-17 08:32:00,
2013-01-17 02:33:00,23.9,19.5,30.29,NW,308,0.0,0.0,83,0.00,,---,0.00,VWS V14.00,2013-01-17 08:33:00,
2013-01-17 02:34:00,23.9,19.5,30.29,NW,308,0.0,0.0,83,0.00,,---,0.00,VWS V14.00,2013-01-17 08:34:00,
2013-01-17 02:35:00,23.9,19.5,30.29,NW,308,0.0,0.0,83,0.00,,---,0.00,VWS V14.00,2013-01-17 08:35:00,
2013-01-17 02:36:00,23.9,19.5,30.29,NW,308,0.0,0.0,83,0.00,,---,0.00,VWS V14.00,2013-01-17 08:36:00,
2013-01-17 02:37:00,23.9,19.5,30.29,NW,308,0.0,0.0,83,0.00,,---,0.00,VWS V14.00,2013-01-17 08:37:00,
2013-01-17 02:38:00,23.9,19.5,30.29,NW,308,0.0,0.0,83,0.00,,---,0.00,VWS V14.00,2013-01-17 08:38:00,
2013-01-17 02:39:00,23.9,19.5,30.29,NW,308,0.0,2.0,83,0.00,,---,0.00,VWS V14.00,2013-01-17 08:39:00,
2013-01-17 02:40:00,23.9,19.5,30.29,NW,308,0.0,0.0,83,0.00,,---,0.00,VWS V14.00,2013-01-17 08:40:00,
2013-01-17 02:41:00,23.9,19.5,30.29,NW,308,0.0,0.0,83,0.00,,---,0.00,VWS V14.00,2013-01-17 08:41:00,
2013-01-17 02:42:00,23.9,19.5,30.29,NW,308,0.0,0.0,83,0.00,,---,0.00,VWS V14.00,2013-01-17 08:42:00,
2013-01-17 02:43:00,23.8,19.4,30.29,NW,308,0.0,0.0,83,0.00,,---,0.00,VWS V14.00,2013-01-17 08:43:00,
2013-01-17 02:44:00,23.8,19.4,30.29,NW,308,0.0,0.0,83,0.00,,---,0.00,VWS V14.00,2013-01-17 08:44:00,
2013-01-17 02:45:00,23.8,19.4,30.29,NW,308,0.0,0.0,83,0.00,,---,0.00,VWS V14.00,2013-01-17 08:45:00,
2013-01-17 02:46:00,23.8,19.4,30.29,NW,308,0.0,0.0,83,0.00,,---,0.00,VWS V14.00,2013-01-17 08:46:00,
2013-01-17 02:47:00,23.8,19.4,30.29,NW,308,0.0,0.0,83,0.00,,---,0.00,VWS V14.00,2013-01-17 08:47:00,
2013-01-17 02:48:00,23.6,19.2,30.29,NW,308,0.0,0.0,83,0.00,,---,0.00,VWS V14.00,2013-01-17 08:48:00,
2013-01-17 02:49:00,23.8,19.4,30.29,NW,308,0.0,0.0,83,0.00,,---,0.00,VWS V14.00,2013-01-17 08:49:00,
2013-01-17 02:50:00,23.6,19.2,30.29,NW,308,0.0,0.0,83,0.00,,---,0.00,VWS V14.00,2013-01-17 08:50:00,
2013-01-17 02:51:00,23.6,19.2,30.29,NW,308,0.0,0.0,83,0.00,,---,0.00,VWS V14.00,2013-01-17 08:51:00,
2013-01-17 02:52:00,23.6,19.2,30.29,NW,308,0.0,0.0,83,0.00,,---,0.00,VWS V14.00,2013-01-17 08:52:00,
2013-01-17 02:53:00,23.6,19.2,30.29,NW,308,3.0,3.0,83,0.00,,---,0.00,VWS V14.00,2013-01-17 08:53:00,
2013-01-17 02:54:00,23.6,19.2,30.29,NW,308,0.0,3.0,83,0.00,,---,0.00,VWS V14.00,2013-01-17 08:54:00,
2013-01-17 02:55:00,23.6,19.2,30.29,NW,308,3.0,3.0,83,0.00,,---,0.00,VWS V14.00,2013-01-17 08:55:00,
2013-01-17 02:56:00,23.6,19.2,30.29,NW,308,2.0,3.0,83,0.00,,---,0.00,VWS V14.00,2013-01-17 08:56:00,
2013-01-17 02:57:00,23.8,19.4,30.29,NW,308,2.0,2.0,83,0.00,,---,0.00,VWS V14.00,2013-01-17 08:57:00,
2013-01-17 02:58:00,23.8,19.4,30.29,NW,308,0.0,0.0,83,0.00,,---,0.00,VWS V14.00,2013-01-17 08:58:00,
2013-01-17 02:59:00,23.8,19.4,30.29,NW,308,0.0,3.0,83,0.00,,---,0.00,VWS V14.00,2013-01-17 08:59:00,
2013-01-17 03:00:00,23.8,19.4,30.29,NW,308,0.0,0.0,83,0.00,,---,0.00,VWS V14.00,2013-01-17 09:00:00,
2013-01-17 03:01:00,23.8,19.4,30.29,NW,308,0.0,0.0,83,0.00,,---,0.00,VWS V14.00,2013-01-17 09:01:00,
2013-01-17 03:02:00,23.8,19.1,30.29,NW,308,0.0,0.0,82,0.00,,---,0.00,VWS V14.00,2013-01-17 09:02:00,
2013-01-17 03:03:00,23.8,19.1,30.29,NW,308,0.0,0.0,82,0.00,,---,0.00,VWS V14.00,2013-01-17 09:03:00,
2013-01-17 03:04:00,23.8,19.1,30.29,NW,308,0.0,0.0,82,0.00,,---,0.00,VWS V14.00,2013-01-17 09:04:00,
2013-01-17 03:05:00,23.8,19.1,30.29,NW,308,0.0,0.0,82,0.00,,---,0.00,VWS V14.00,2013-01-17 09:05:00,
2013-01-17 03:06:00,23.8,19.1,30.29,NW,308,0.0,0.0,82,0.00,,---,0.00,VWS V14.00,2013-01-17 09:06:00,
2013-01-17 03:07:00,23.8,19.1,30.29,NW,308,0.0,0.0,82,0.00,,---,0.00,VWS V14.00,2013-01-17 09:07:00,
2013-01-17 03:08:00,23.6,18.9,30.29,NW,308,0.0,0.0,82,0.00,,---,0.00,VWS V14.00,2013-01-17 09:08:00,
2013-01-17 03:09:00,23.6,18.9,30.29,NW,308,0.0,0.0,82,0.00,,---,0.00,VWS V14.00,2013-01-17 09:09:00,
2013-01-17 03:10:00,23.6,18.9,30.29,NW,308,0.0,0.0,82,0.00,,---,0.00,VWS V14.00,2013-01-17 09:10:00,
2013-01-17 03:11:00,23.6,18.9,30.29,NW,308,0.0,0.0,82,0.00,,---,0.00,VWS V14.00,2013-01-17 09:11:00,
2013-01-17 03:12:00,23.6,18.9,30.29,NW,308,0.0,0.0,82,0.00,,---,0.00,VWS V14.00,2013-01-17 09:12:00,
2013-01-17 03:13:00,23.6,19.2,30.29,NW,308,0.0,0.0,83,0.00,,---,0.00,VWS V14.00,2013-01-17 09:13:00,
2013-01-17 03:14:00,23.6,18.9,30.29,NW,308,0.0,0.0,82,0.00,,---,0.00,VWS V14.00,2013-01-17 09:14:00,
2013-01-17 03:15:00,23.6,19.2,30.29,NW,308,0.0,0.0,83,0.00,,---,0.00,VWS V14.00,2013-01-17 09:15:00,
2013-01-17 03:16:00,23.6,19.2,30.29,NW,308,0.0,0.0,83,0.00,,---,0.00,VWS V14.00,2013-01-17 09:16:00,
2013-01-17 03:17:00,23.6,19.2,30.29,NW,308,0.0,0.0,83,0.00,,---,0.00,VWS V14.00,2013-01-17 09:17:00,
2013-01-17 03:18:00,23.5,19.1,30.29,NW,308,0.0,0.0,83,0.00,,---,0.00,VWS V14.00,2013-01-17 09:18:00,
2013-01-17 03:19:00,23.5,18.8,30.29,NW,308,0.0,0.0,82,0.00,,---,0.00,VWS V14.00,2013-01-17 09:19:00,
2013-01-17 03:20:00,23.5,19.1,30.29,NW,308,0.0,0.0,83,0.00,,---,0.00,VWS V14.00,2013-01-17 09:20:00,
2013-01-17 03:21:00,23.5,19.1,30.29,NW,308,0.0,0.0,83,0.00,,---,0.00,VWS V14.00,2013-01-17 09:21:00,
2013-01-17 03:22:00,23.5,18.8,30.29,NW,308,0.0,0.0,82,0.00,,---,0.00,VWS V14.00,2013-01-17 09:22:00,
2013-01-17 03:23:00,23.3,18.9,30.30,NW,308,0.0,0.0,83,0.00,,---,0.00,VWS V14.00,2013-01-17 09:23:00,
2013-01-17 03:24:00,23.3,18.9,30.30,NW,308,0.0,0.0,83,0.00,,---,0.00,VWS V14.00,2013-01-17 09:24:00,
2013-01-17 03:25:00,23.3,18.9,30.30,NW,308,0.0,0.0,83,0.00,,---,0.00,VWS V14.00,2013-01-17 09:25:00,
2013-01-17 03:26:00,23.5,19.1,30.30,NW,308,0.0,0.0,83,0.00,,---,0.00,VWS V14.00,2013-01-17 09:26:00,
2013-01-17 03:27:00,23.5,19.1,30.30,NW,308,0.0,0.0,83,0.00,,---,0.00,VWS V14.00,2013-01-17 09:27:00,
2013-01-17 03:28:00,23.5,19.1,30.30,NW,308,0.0,0.0,83,0.00,,---,0.00,VWS V14.00,2013-01-17 09:28:00,
2013-01-17 03:29:00,23.5,19.1,30.30,NW,308,0.0,0.0,83,0.00,,---,0.00,VWS V14.00,2013-01-17 09:29:00,
2013-01-17 03:30:00,23.5,19.1,30.30,NW,308,0.0,0.0,83,0.00,,---,0.00,VWS V14.00,2013-01-17 09:30:00,
2013-01-17 03:31:00,23.5,19.1,30.30,NW,308,0.0,0.0,83,0.00,,---,0.00,VWS V14.00,2013-01-17 09:31:00,
2013-01-17 03:32:00,23.5,19.1,30.30,NW,308,0.0,0.0,83,0.00,,---,0.00,VWS V14.00,2013-01-17 09:32:00,
2013-01-17 03:33:00,23.5,19.1,30.30,NW,308,0.0,0.0,83,0.00,,---,0.00,VWS V14.00,2013-01-17 09:33:00,
2013-01-17 03:34:00,23.5,19.1,30.30,NW,308,0.0,0.0,83,0.00,,---,0.00,VWS V14.00,2013-01-17 09:34:00,
2013-01-17 03:35:00,23.5,19.1,30.30,NW,308,0.0,0.0,83,0.00,,---,0.00,VWS V14.00,2013-01-17 09:35:00,
2013-01-17 03:36:00,23.5,19.1,30.30,NW,308,0.0,0.0,83,0.00,,---,0.00,VWS V14.00,2013-01-17 09:36:00,
2013-01-17 03:37:00,23.5,19.1,30.30,NW,308,0.0,0.0,83,0.00,,---,0.00,VWS V14.00,2013-01-17 09:37:00,
2013-01-17 03:38:00,23.5,19.1,30.30,NW,308,0.0,0.0,83,0.00,,---,0.00,VWS V14.00,2013-01-17 09:38:00,
2013-01-17 03:39:00,23.5,19.1,30.30,NW,308,0.0,0.0,83,0.00,,---,0.00,VWS V14.00,2013-01-17 09:39:00,
2013-01-17 03:40:00,23.5,19.1,30.30,NW,308,0.0,0.0,83,0.00,,---,0.00,VWS V14.00,2013-01-17 09:40:00,
2013-01-17 03:41:00,23.3,18.9,30.30,NW,308,0.0,0.0,83,0.00,,---,0.00,VWS V14.00,2013-01-17 09:41:00,
2013-01-17 03:42:00,23.3,18.9,30.31,NW,308,0.0,0.0,83,0.00,,---,0.00,VWS V14.00,2013-01-17 09:42:00,
2013-01-17 03:43:00,23.2,18.8,30.31,NW,308,0.0,0.0,83,0.00,,---,0.00,VWS V14.00,2013-01-17 09:43:00,
2013-01-17 03:44:00,23.3,18.9,30.31,NW,308,0.0,0.0,83,0.00,,---,0.00,VWS V14.00,2013-01-17 09:44:00,
2013-01-17 03:45:00,23.2,18.8,30.31,NW,308,0.0,0.0,83,0.00,,---,0.00,VWS V14.00,2013-01-17 09:45:00,
2013-01-17 03:46:00,23.2,18.8,30.31,NW,308,0.0,0.0,83,0.00,,---,0.00,VWS V14.00,2013-01-17 09:46:00,
2013-01-17 03:47:00,23.2,18.8,30.31,NW,308,0.0,0.0,83,0.00,,---,0.00,VWS V14.00,2013-01-17 09:47:00,
2013-01-17 03:48:00,23.2,18.8,30.31,NW,308,0.0,0.0,83,0.00,,---,0.00,VWS V14.00,2013-01-17 09:48:00,
2013-01-17 03:49:00,23.2,18.8,30.31,NW,308,0.0,0.0,83,0.00,,---,0.00,VWS V14.00,2013-01-17 09:49:00,
2013-01-17 03:50:00,23.2,18.8,30.31,NW,308,0.0,0.0,83,0.00,,---,0.00,VWS V14.00,2013-01-17 09:50:00,
2013-01-17 03:51:00,23.2,18.8,30.31,NW,308,0.0,0.0,83,0.00,,---,0.00,VWS V14.00,2013-01-17 09:51:00,
2013-01-17 03:52:00,23.2,18.8,30.31,NW,308,0.0,0.0,83,0.00,,---,0.00,VWS V14.00,2013-01-17 09:52:00,
2013-01-17 03:53:00,23.0,18.6,30.31,NW,308,0.0,0.0,83,0.00,,---,0.00,VWS V14.00,2013-01-17 09:53:00,
2013-01-17 03:54:00,23.0,18.6,30.31,NW,308,0.0,0.0,83,0.00,,---,0.00,VWS V14.00,2013-01-17 09:54:00,
2013-01-17 03:55:00,23.0,18.6,30.31,NW,308,0.0,0.0,83,0.00,,---,0.00,VWS V14.00,2013-01-17 09:55:00,
2013-01-17 03:56:00,23.0,18.6,30.31,NW,308,0.0,0.0,83,0.00,,---,0.00,VWS V14.00,2013-01-17 09:56:00,
2013-01-17 03:57:00,23.0,18.6,30.31,NW,308,0.0,0.0,83,0.00,,---,0.00,VWS V14.00,2013-01-17 09:57:00,
2013-01-17 03:58:00,23.0,18.9,30.31,NW,308,0.0,1.0,84,0.00,,---,0.00,VWS V14.00,2013-01-17 09:58:00,
2013-01-17 03:59:00,23.0,18.6,30.31,NW,308,0.0,0.0,83,0.00,,---,0.00,VWS V14.00,2013-01-17 09:59:00,
2013-01-17 04:00:00,23.0,18.9,30.31,NW,308,0.0,1.0,84,0.00,,---,0.00,VWS V14.00,2013-01-17 10:00:00,
2013-01-17 04:01:00,23.0,18.9,30.31,NW,308,3.0,3.0,84,0.00,,---,0.00,VWS V14.00,2013-01-17 10:01:00,
2013-01-17 04:02:00,23.0,18.9,30.31,NW,308,1.0,3.0,84,0.00,,---,0.00,VWS V14.00,2013-01-17 10:02:00,
2013-01-17 04:03:00,23.0,18.9,30.31,NW,308,0.0,0.0,84,0.00,,---,0.00,VWS V14.00,2013-01-17 10:03:00,
2013-01-17 04:04:00,23.0,18.9,30.31,NW,308,0.0,0.0,84,0.00,,---,0.00,VWS V14.00,2013-01-17 10:04:00,
2013-01-17 04:05:00,23.0,18.9,30.31,NW,308,0.0,0.0,84,0.00,,---,0.00,VWS V14.00,2013-01-17 10:05:00,
2013-01-17 04:06:00,23.0,18.9,30.31,NW,308,0.0,0.0,84,0.00,,---,0.00,VWS V14.00,2013-01-17 10:06:00,
2013-01-17 04:07:00,23.0,18.9,30.31,NW,308,2.0,3.0,84,0.00,,---,0.00,VWS V14.00,2013-01-17 10:07:00,
2013-01-17 04:08:00,23.0,18.9,30.31,NW,308,2.0,2.0,84,0.00,,---,0.00,VWS V14.00,2013-01-17 10:08:00,
2013-01-17 04:09:00,23.0,18.9,30.31,NW,308,0.0,0.0,84,0.00,,---,0.00,VWS V14.00,2013-01-17 10:09:00,
2013-01-17 04:10:00,23.0,18.9,30.31,NW,308,2.0,2.0,84,0.00,,---,0.00,VWS V14.00,2013-01-17 10:10:00,
2013-01-17 04:11:00,22.9,18.8,30.31,NW,308,2.0,3.0,84,0.00,,---,0.00,VWS V14.00,2013-01-17 10:11:00,
2013-01-17 04:12:00,22.9,18.8,30.31,NW,308,2.0,2.0,84,0.00,,---,0.00,VWS V14.00,2013-01-17 10:12:00,
2013-01-17 04:13:00,22.9,19.1,30.32,NW,308,2.0,3.0,85,0.00,,---,0.00,VWS V14.00,2013-01-17 10:13:00,
2013-01-17 04:14:00,22.9,18.8,30.32,NW,308,2.0,3.0,84,0.00,,---,0.00,VWS V14.00,2013-01-17 10:14:00,
2013-01-17 04:15:00,22.9,19.1,30.32,NW,308,1.0,3.0,85,0.00,,---,0.00,VWS V14.00,2013-01-17 10:15:00,
2013-01-17 04:16:00,22.9,19.1,30.32,NW,308,0.0,2.0,85,0.00,,---,0.00,VWS V14.00,2013-01-17 10:16:00,
2013-01-17 04:17:00,22.9,19.1,30.32,NW,308,0.0,0.0,85,0.00,,---,0.00,VWS V14.00,2013-01-17 10:17:00,
2013-01-17 04:18:00,22.9,19.1,30.32,NW,308,0.0,0.0,85,0.00,,---,0.00,VWS V14.00,2013-01-17 10:18:00,
2013-01-17 04:19:00,22.9,19.1,30.32,NW,308,0.0,0.0,85,0.00,,---,0.00,VWS V14.00,2013-01-17 10:19:00,
2013-01-17 04:20:00,22.9,19.1,30.32,NW,308,0.0,0.0,85,0.00,,---,0.00,VWS V14.00,2013-01-17 10:20:00,
2013-01-17 04:21:00,22.9,19.1,30.32,NW,308,0.0,0.0,85,0.00,,---,0.00,VWS V14.00,2013-01-17 10:21:00,
2013-01-17 04:22:00,22.9,19.1,30.32,NW,308,0.0,0.0,85,0.00,,---,0.00,VWS V14.00,2013-01-17 10:22:00,
2013-01-17 04:23:00,22.9,19.1,30.32,NW,308,0.0,0.0,85,0.00,,---,0.00,VWS V14.00,2013-01-17 10:23:00,
2013-01-17 04:24:00,22.9,19.1,30.32,NW,308,0.0,0.0,85,0.00,,---,0.00,VWS V14.00,2013-01-17 10:24:00,
2013-01-17 04:25:00,22.9,19.1,30.32,NW,308,0.0,0.0,85,0.00,,---,0.00,VWS V14.00,2013-01-17 10:25:00,
2013-01-17 04:26:00,22.9,19.1,30.32,NW,308,0.0,0.0,85,0.00,,---,0.00,VWS V14.00,2013-01-17 10:26:00,
2013-01-17 04:27:00,22.9,19.1,30.32,NW,308,0.0,0.0,85,0.00,,---,0.00,VWS V14.00,2013-01-17 10:27:00,
2013-01-17 04:28:00,22.7,18.9,30.32,NW,308,0.0,0.0,85,0.00,,---,0.00,VWS V14.00,2013-01-17 10:28:00,
2013-01-17 04:29:00,22.9,19.1,30.32,NW,308,0.0,0.0,85,0.00,,---,0.00,VWS V14.00,2013-01-17 10:29:00,
2013-01-17 04:30:00,22.7,18.9,30.32,NW,308,0.0,0.0,85,0.00,,---,0.00,VWS V14.00,2013-01-17 10:30:00,
2013-01-17 04:31:00,22.7,18.9,30.32,NW,308,0.0,0.0,85,0.00,,---,0.00,VWS V14.00,2013-01-17 10:31:00,
2013-01-17 04:32:00,22.7,18.9,30.32,NW,308,0.0,0.0,85,0.00,,---,0.00,VWS V14.00,2013-01-17 10:32:00,
2013-01-17 04:33:00,22.7,18.9,30.32,NW,308,0.0,0.0,85,0.00,,---,0.00,VWS V14.00,2013-01-17 10:33:00,
2013-01-17 04:34:00,22.7,18.9,30.32,NW,308,0.0,2.0,85,0.00,,---,0.00,VWS V14.00,2013-01-17 10:34:00,
2013-01-17 04:35:00,22.7,18.9,30.32,NW,308,0.0,0.0,85,0.00,,---,0.00,VWS V14.00,2013-01-17 10:35:00,
2013-01-17 04:36:00,22.7,18.9,30.32,NW,308,0.0,0.0,85,0.00,,---,0.00,VWS V14.00,2013-01-17 10:36:00,
2013-01-17 04:37:00,22.7,18.9,30.32,NW,308,0.0,0.0,85,0.00,,---,0.00,VWS V14.00,2013-01-17 10:37:00,
2013-01-17 04:38:00,22.5,18.7,30.32,NW,308,0.0,0.0,85,0.00,,---,0.00,VWS V14.00,2013-01-17 10:38:00,
2013-01-17 04:39:00,22.5,18.7,30.32,NW,308,0.0,0.0,85,0.00,,---,0.00,VWS V14.00,2013-01-17 10:39:00,
2013-01-17 04:40:00,22.5,18.7,30.32,NW,308,0.0,0.0,85,0.00,,---,0.00,VWS V14.00,2013-01-17 10:40:00,
2013-01-17 04:41:00,22.5,18.7,30.32,NW,308,0.0,0.0,85,0.00,,---,0.00,VWS V14.00,2013-01-17 10:41:00,
2013-01-17 04:42:00,22.5,18.7,30.32,NW,308,0.0,0.0,85,0.00,,---,0.00,VWS V14.00,2013-01-17 10:42:00,
2013-01-17 04:43:00,22.5,18.7,30.32,NW,308,0.0,0.0,85,0.00,,---,0.00,VWS V14.00,2013-01-17 10:43:00,
2013-01-17 04:44:00,22.5,18.7,30.32,NW,308,0.0,0.0,85,0.00,,---,0.00,VWS V14.00,2013-01-17 10:44:00,
2013-01-17 04:45:00,22.5,18.7,30.32,NW,308,0.0,0.0,85,0.00,,---,0.00,VWS V14.00,2013-01-17 10:45:00,
2013-01-17 04:46:00,22.5,18.7,30.32,NW,308,0.0,0.0,85,0.00,,---,0.00,VWS V14.00,2013-01-17 10:46:00,
2013-01-17 04:47:00,22.5,18.7,30.32,NW,308,0.0,0.0,85,0.00,,---,0.00,VWS V14.00,2013-01-17 10:47:00,
2013-01-17 04:48:00,22.4,18.6,30.33,NW,308,0.0,0.0,85,0.00,,---,0.00,VWS V14.00,2013-01-17 10:48:00,
2013-01-17 04:49:00,22.4,18.6,30.33,NW,308,0.0,0.0,85,0.00,,---,0.00,VWS V14.00,2013-01-17 10:49:00,
2013-01-17 04:50:00,22.4,18.6,30.33,NW,308,0.0,0.0,85,0.00,,---,0.00,VWS V14.00,2013-01-17 10:50:00,
2013-01-17 04:51:00,22.4,18.6,30.33,NW,308,0.0,0.0,85,0.00,,---,0.00,VWS V14.00,2013-01-17 10:51:00,
2013-01-17 04:52:00,22.4,18.6,30.33,NW,308,0.0,0.0,85,0.00,,---,0.00,VWS V14.00,2013-01-17 10:52:00,
2013-01-17 04:53:00,22.4,18.9,30.33,NW,308,0.0,0.0,86,0.00,,---,0.00,VWS V14.00,2013-01-17 10:53:00,
2013-01-17 04:54:00,22.4,18.9,30.33,NW,308,0.0,0.0,86,0.00,,---,0.00,VWS V14.00,2013-01-17 10:54:00,
2013-01-17 04:55:00,22.4,18.9,30.33,NW,308,0.0,0.0,86,0.00,,---,0.00,VWS V14.00,2013-01-17 10:55:00,
2013-01-17 04:56:00,22.4,18.9,30.33,NW,308,0.0,0.0,86,0.00,,---,0.00,VWS V14.00,2013-01-17 10:56:00,
2013-01-17 04:57:00,22.4,18.9,30.33,NW,308,0.0,0.0,86,0.00,,---,0.00,VWS V14.00,2013-01-17 10:57:00,
2013-01-17 04:58:00,22.4,18.9,30.33,NW,308,0.0,0.0,86,0.00,,---,0.00,VWS V14.00,2013-01-17 10:58:00,
2013-01-17 04:59:00,22.4,18.9,30.33,NW,308,0.0,0.0,86,0.00,,---,0.00,VWS V14.00,2013-01-17 10:59:00,
2013-01-17 05:00:00,22.4,18.9,30.33,NW,308,0.0,0.0,86,0.00,,---,0.00,VWS V14.00,2013-01-17 11:00:00,
2013-01-17 05:01:00,22.4,18.9,30.34,NW,308,0.0,0.0,86,0.00,,---,0.00,VWS V14.00,2013-01-17 11:01:00,
2013-01-17 05:02:00,22.4,18.6,30.34,NW,308,0.0,0.0,85,0.00,,---,0.00,VWS V14.00,2013-01-17 11:02:00,
2013-01-17 05:03:00,22.4,18.9,30.34,NW,308,0.0,0.0,86,0.00,,---,0.00,VWS V14.00,2013-01-17 11:03:00,
2013-01-17 05:04:00,22.4,18.9,30.34,NW,308,0.0,0.0,86,0.00,,---,0.00,VWS V14.00,2013-01-17 11:04:00,
2013-01-17 05:05:00,22.4,18.9,30.34,NW,308,0.0,0.0,86,0.00,,---,0.00,VWS V14.00,2013-01-17 11:05:00,
2013-01-17 05:06:00,22.4,18.9,30.34,NW,308,0.0,0.0,86,0.00,,---,0.00,VWS V14.00,2013-01-17 11:06:00,
2013-01-17 05:07:00,22.2,18.7,30.34,NW,308,0.0,0.0,86,0.00,,---,0.00,VWS V14.00,2013-01-17 11:07:00,
2013-01-17 05:08:00,22.2,18.7,30.34,NW,308,0.0,0.0,86,0.00,,---,0.00,VWS V14.00,2013-01-17 11:08:00,
2013-01-17 05:09:00,22.2,18.7,30.34,NW,308,0.0,0.0,86,0.00,,---,0.00,VWS V14.00,2013-01-17 11:09:00,
2013-01-17 05:10:00,22.2,18.7,30.34,NW,308,0.0,0.0,86,0.00,,---,0.00,VWS V14.00,2013-01-17 11:10:00,
2013-01-17 05:11:00,22.2,18.7,30.34,NW,308,0.0,0.0,86,0.00,,---,0.00,VWS V14.00,2013-01-17 11:11:00,
2013-01-17 05:12:00,22.2,18.7,30.34,NW,308,0.0,0.0,86,0.00,,---,0.00,VWS V14.00,2013-01-17 11:12:00,
2013-01-17 05:13:00,22.2,18.7,30.34,NW,308,0.0,0.0,86,0.00,,---,0.00,VWS V14.00,2013-01-17 11:13:00,
2013-01-17 05:14:00,22.2,18.7,30.34,NW,308,0.0,0.0,86,0.00,,---,0.00,VWS V14.00,2013-01-17 11:14:00,
2013-01-17 05:15:00,22.2,18.7,30.34,NW,308,0.0,0.0,86,0.00,,---,0.00,VWS V14.00,2013-01-17 11:15:00,
2013-01-17 05:16:00,22.2,18.7,30.34,NW,308,0.0,2.0,86,0.00,,---,0.00,VWS V14.00,2013-01-17 11:16:00,
2013-01-17 05:17:00,22.2,18.7,30.34,NW,308,1.0,3.0,86,0.00,,---,0.00,VWS V14.00,2013-01-17 11:17:00,
2013-01-17 05:18:00,22.4,18.9,30.34,NW,308,0.0,0.0,86,0.00,,---,0.00,VWS V14.00,2013-01-17 11:18:00,
2013-01-17 05:19:00,22.4,18.9,30.34,NW,308,0.0,0.0,86,0.00,,---,0.00,VWS V14.00,2013-01-17 11:19:00,
2013-01-17 05:20:00,22.4,18.9,30.34,NW,308,0.0,0.0,86,0.00,,---,0.00,VWS V14.00,2013-01-17 11:20:00,
2013-01-17 05:21:00,22.2,18.7,30.34,NW,308,0.0,0.0,86,0.00,,---,0.00,VWS V14.00,2013-01-17 11:21:00,
2013-01-17 05:22:00,22.2,18.7,30.34,NW,308,0.0,0.0,86,0.00,,---,0.00,VWS V14.00,2013-01-17 11:22:00,
2013-01-17 05:23:00,22.2,18.7,30.34,NW,308,0.0,0.0,86,0.00,,---,0.00,VWS V14.00,2013-01-17 11:23:00,
2013-01-17 05:24:00,22.2,18.7,30.34,NW,308,0.0,0.0,86,0.00,,---,0.00,VWS V14.00,2013-01-17 11:24:00,
2013-01-17 05:25:00,22.2,18.7,30.34,NW,308,0.0,0.0,86,0.00,,---,0.00,VWS V14.00,2013-01-17 11:25:00,
2013-01-17 05:26:00,22.2,18.7,30.34,NW,308,0.0,0.0,86,0.00,,---,0.00,VWS V14.00,2013-01-17 11:26:00,
2013-01-17 05:27:00,22.2,18.7,30.35,NW,308,0.0,0.0,86,0.00,,---,0.00,VWS V14.00,2013-01-17 11:27:00,
2013-01-17 05:28:00,22.1,18.6,30.35,NW,308,0.0,0.0,86,0.00,,---,0.00,VWS V14.00,2013-01-17 11:28:00,
2013-01-17 05:29:00,22.1,18.6,30.35,NW,308,0.0,0.0,86,0.00,,---,0.00,VWS V14.00,2013-01-17 11:29:00,
2013-01-17 05:30:00,22.1,18.6,30.35,NW,308,0.0,0.0,86,0.00,,---,0.00,VWS V14.00,2013-01-17 11:30:00,
2013-01-17 05:31:00,22.1,18.6,30.35,NW,308,0.0,0.0,86,0.00,,---,0.00,VWS V14.00,2013-01-17 11:31:00,
2013-01-17 05:32:00,22.1,18.6,30.35,NW,308,0.0,0.0,86,0.00,,---,0.00,VWS V14.00,2013-01-17 11:32:00,
2013-01-17 05:33:00,22.1,18.6,30.35,NW,308,0.0,0.0,86,0.00,,---,0.00,VWS V14.00,2013-01-17 11:33:00,
2013-01-17 05:34:00,22.1,18.6,30.35,NW,308,0.0,0.0,86,0.00,,---,0.00,VWS V14.00,2013-01-17 11:34:00,
2013-01-17 05:35:00,22.1,18.6,30.35,NW,308,0.0,0.0,86,0.00,,---,0.00,VWS V14.00,2013-01-17 11:35:00,
2013-01-17 05:36:00,21.9,18.4,30.35,NW,308,0.0,0.0,86,0.00,,---,0.00,VWS V14.00,2013-01-17 11:36:00,
2013-01-17 05:37:00,21.9,18.4,30.35,NW,308,0.0,0.0,86,0.00,,---,0.00,VWS V14.00,2013-01-17 11:37:00,
2013-01-17 05:38:00,21.9,18.4,30.35,NW,308,0.0,0.0,86,0.00,,---,0.00,VWS V14.00,2013-01-17 11:38:00,
2013-01-17 05:39:00,21.9,18.4,30.35,NW,308,0.0,0.0,86,0.00,,---,0.00,VWS V14.00,2013-01-17 11:39:00,
2013-01-17 05:40:00,21.9,18.4,30.35,NW,308,0.0,0.0,86,0.00,,---,0.00,VWS V14.00,2013-01-17 11:40:00,
2013-01-17 05:41:00,21.9,18.4,30.35,NW,308,0.0,0.0,86,0.00,,---,0.00,VWS V14.00,2013-01-17 11:41:00,
2013-01-17 05:42:00,21.9,18.4,30.35,NW,308,0.0,0.0,86,0.00,,---,0.00,VWS V14.00,2013-01-17 11:42:00,
2013-01-17 05:43:00,21.9,18.4,30.35,NW,308,0.0,0.0,86,0.00,,---,0.00,VWS V14.00,2013-01-17 11:43:00,
2013-01-17 05:44:00,21.9,18.4,30.35,NW,308,0.0,0.0,86,0.00,,---,0.00,VWS V14.00,2013-01-17 11:44:00,
2013-01-17 05:45:00,21.9,18.4,30.35,NW,308,0.0,0.0,86,0.00,,---,0.00,VWS V14.00,2013-01-17 11:45:00,
2013-01-17 05:46:00,21.9,18.4,30.35,NW,308,0.0,0.0,86,0.00,,---,0.00,VWS V14.00,2013-01-17 11:46:00,
2013-01-17 05:47:00,21.9,18.4,30.35,NW,308,0.0,0.0,86,0.00,,---,0.00,VWS V14.00,2013-01-17 11:47:00,
2013-01-17 05:48:00,21.8,18.3,30.35,NW,308,0.0,0.0,86,0.00,,---,0.00,VWS V14.00,2013-01-17 11:48:00,
2013-01-17 05:49:00,21.9,18.4,30.35,NW,308,0.0,0.0,86,0.00,,---,0.00,VWS V14.00,2013-01-17 11:49:00,
2013-01-17 05:50:00,21.8,18.3,30.35,NW,308,0.0,0.0,86,0.00,,---,0.00,VWS V14.00,2013-01-17 11:50:00,
2013-01-17 05:51:00,21.8,18.3,30.35,NW,308,0.0,0.0,86,0.00,,---,0.00,VWS V14.00,2013-01-17 11:51:00,
2013-01-17 05:52:00,21.8,18.3,30.35,NW,308,0.0,0.0,86,0.00,,---,0.00,VWS V14.00,2013-01-17 11:52:00,
2013-01-17 05:53:00,21.8,18.3,30.35,NW,308,0.0,0.0,86,0.00,,---,0.00,VWS V14.00,2013-01-17 11:53:00,
2013-01-17 05:54:00,21.8,18.3,30.35,NW,308,0.0,0.0,86,0.00,,---,0.00,VWS V14.00,2013-01-17 11:54:00,
2013-01-17 05:55:00,21.8,18.3,30.35,NW,308,0.0,0.0,86,0.00,,---,0.00,VWS V14.00,2013-01-17 11:55:00,
2013-01-17 05:56:00,21.8,18.3,30.35,NW,308,0.0,0.0,86,0.00,,---,0.00,VWS V14.00,2013-01-17 11:56:00,
2013-01-17 05:57:00,21.8,18.3,30.35,NW,308,0.0,0.0,86,0.00,,---,0.00,VWS V14.00,2013-01-17 11:57:00,
2013-01-17 05:58:00,21.6,18.1,30.35,NW,308,0.0,0.0,86,0.00,,---,0.00,VWS V14.00,2013-01-17 11:58:00,
2013-01-17 05:59:00,21.6,18.1,30.35,NW,308,0.0,0.0,86,0.00,,---,0.00,VWS V14.00,2013-01-17 11:59:00,
2013-01-17 06:00:00,21.6,18.1,30.35,NW,308,0.0,0.0,86,0.00,,---,0.00,VWS V14.00,2013-01-17 12:00:00,
2013-01-17 06:01:00,21.6,18.1,30.36,NW,308,0.0,0.0,86,0.00,,---,0.00,VWS V14.00,2013-01-17 12:01:00,
2013-01-17 06:02:00,21.6,18.1,30.36,NW,308,0.0,0.0,86,0.00,,---,0.00,VWS V14.00,2013-01-17 12:02:00,
2013-01-17 06:03:00,21.6,18.1,30.36,NW,308,0.0,0.0,86,0.00,,---,0.00,VWS V14.00,2013-01-17 12:03:00,
2013-01-17 06:04:00,21.6,18.1,30.36,NW,308,0.0,0.0,86,0.00,,---,0.00,VWS V14.00,2013-01-17 12:04:00,
2013-01-17 06:05:00,21.6,18.1,30.36,NW,308,0.0,0.0,86,0.00,,---,0.00,VWS V14.00,2013-01-17 12:05:00,
2013-01-17 06:06:00,21.6,18.1,30.36,NW,308,0.0,0.0,86,0.00,,---,0.00,VWS V14.00,2013-01-17 12:06:00,
2013-01-17 06:07:00,21.6,18.1,30.36,NW,308,0.0,0.0,86,0.00,,---,0.00,VWS V14.00,2013-01-17 12:07:00,
2013-01-17 06:08:00,21.6,18.1,30.36,NW,308,0.0,0.0,86,0.00,,---,0.00,VWS V14.00,2013-01-17 12:08:00,
2013-01-17 06:09:00,21.6,18.1,30.36,NW,308,0.0,0.0,86,0.00,,---,0.00,VWS V14.00,2013-01-17 12:09:00,
2013-01-17 06:10:00,21.6,18.1,30.36,NW,308,0.0,0.0,86,0.00,,---,0.00,VWS V14.00,2013-01-17 12:10:00,
2013-01-17 06:11:00,21.6,18.1,30.36,NW,308,0.0,0.0,86,0.00,,---,0.00,VWS V14.00,2013-01-17 12:11:00,
2013-01-17 06:12:00,21.6,18.1,30.36,NW,308,0.0,0.0,86,0.00,,---,0.00,VWS V14.00,2013-01-17 12:12:00,
2013-01-17 06:13:00,21.6,18.1,30.36,NW,308,0.0,0.0,86,0.00,,---,0.00,VWS V14.00,2013-01-17 12:13:00,
2013-01-17 06:14:00,21.6,18.1,30.36,NW,308,0.0,0.0,86,0.00,,---,0.00,VWS V14.00,2013-01-17 12:14:00,
2013-01-17 06:15:00,21.6,18.1,30.36,NW,308,0.0,0.0,86,0.00,,---,0.00,VWS V14.00,2013-01-17 12:15:00,
2013-01-17 06:16:00,21.6,18.1,30.36,NW,308,0.0,0.0,86,0.00,,---,0.00,VWS V14.00,2013-01-17 12:16:00,
2013-01-17 06:17:00,21.6,18.1,30.36,NW,308,0.0,0.0,86,0.00,,---,0.00,VWS V14.00,2013-01-17 12:17:00,
2013-01-17 06:18:00,21.6,18.1,30.36,NW,308,0.0,0.0,86,0.00,,---,0.00,VWS V14.00,2013-01-17 12:18:00,
2013-01-17 06:19:00,21.6,18.1,30.36,NW,308,0.0,0.0,86,0.00,,---,0.00,VWS V14.00,2013-01-17 12:19:00,
2013-01-17 06:20:00,21.6,18.1,30.37,NW,308,0.0,0.0,86,0.00,,---,0.00,VWS V14.00,2013-01-17 12:20:00,
2013-01-17 06:21:00,21.6,18.1,30.36,NW,308,0.0,0.0,86,0.00,,---,0.00,VWS V14.00,2013-01-17 12:21:00,
2013-01-17 06:22:00,21.6,18.3,30.37,NW,308,0.0,0.0,87,0.00,,---,0.00,VWS V14.00,2013-01-17 12:22:00,
2013-01-17 06:23:00,21.6,18.3,30.37,NW,308,0.0,0.0,87,0.00,,---,0.00,VWS V14.00,2013-01-17 12:23:00,
2013-01-17 06:24:00,21.6,18.3,30.37,NW,308,0.0,0.0,87,0.00,,---,0.00,VWS V14.00,2013-01-17 12:24:00,
2013-01-17 06:25:00,21.6,18.3,30.37,NW,308,0.0,0.0,87,0.00,,---,0.00,VWS V14.00,2013-01-17 12:25:00,
2013-01-17 06:26:00,21.6,18.3,30.37,NW,308,0.0,0.0,87,0.00,,---,0.00,VWS V14.00,2013-01-17 12:26:00,
2013-01-17 06:27:00,21.6,18.3,30.37,NW,308,0.0,0.0,87,0.00,,---,0.00,VWS V14.00,2013-01-17 12:27:00,
2013-01-17 06:28:00,21.6,18.3,30.37,NW,308,0.0,0.0,87,0.00,,---,0.00,VWS V14.00,2013-01-17 12:28:00,
2013-01-17 06:29:00,21.6,18.3,30.37,NW,308,0.0,0.0,87,0.00,,---,0.00,VWS V14.00,2013-01-17 12:29:00,
2013-01-17 06:30:00,21.6,18.3,30.37,NW,308,0.0,0.0,87,0.00,,---,0.00,VWS V14.00,2013-01-17 12:30:00,
2013-01-17 06:31:00,21.6,18.3,30.37,NW,308,0.0,0.0,87,0.00,,---,0.00,VWS V14.00,2013-01-17 12:31:00,
2013-01-17 06:32:00,21.6,18.3,30.37,NW,308,0.0,0.0,87,0.00,,---,0.00,VWS V14.00,2013-01-17 12:32:00,
2013-01-17 06:33:00,21.6,18.3,30.37,NW,308,0.0,0.0,87,0.00,,---,0.00,VWS V14.00,2013-01-17 12:33:00,
2013-01-17 06:34:00,21.6,18.3,30.37,NW,308,0.0,0.0,87,0.00,,---,0.00,VWS V14.00,2013-01-17 12:34:00,
2013-01-17 06:35:00,21.6,18.3,30.37,NW,308,0.0,0.0,87,0.00,,---,0.00,VWS V14.00,2013-01-17 12:35:00,
2013-01-17 06:36:00,21.6,18.3,30.37,NW,308,0.0,0.0,87,0.00,,---,0.00,VWS V14.00,2013-01-17 12:36:00,
2013-01-17 06:37:00,21.6,18.3,30.37,NW,308,0.0,0.0,87,0.00,,---,0.00,VWS V14.00,2013-01-17 12:37:00,
2013-01-17 06:38:00,21.6,18.3,30.37,NW,308,0.0,0.0,87,0.00,,---,0.00,VWS V14.00,2013-01-17 12:38:00,
2013-01-17 06:39:00,21.6,18.3,30.37,NW,308,0.0,0.0,87,0.00,,---,0.00,VWS V14.00,2013-01-17 12:39:00,
2013-01-17 06:40:00,21.6,18.3,30.37,NW,308,0.0,0.0,87,0.00,,---,0.00,VWS V14.00,2013-01-17 12:40:00,
2013-01-17 06:41:00,21.6,18.3,30.37,NW,308,0.0,0.0,87,0.00,,---,0.00,VWS V14.00,2013-01-17 12:41:00,
2013-01-17 06:42:00,21.6,18.3,30.37,NW,308,0.0,0.0,87,0.00,,---,0.00,VWS V14.00,2013-01-17 12:42:00,
2013-01-17 06:43:00,21.4,18.1,30.38,NW,308,0.0,0.0,87,0.00,,---,0.00,VWS V14.00,2013-01-17 12:43:00,
2013-01-17 06:44:00,21.4,18.1,30.38,NW,308,0.0,0.0,87,0.00,,---,0.00,VWS V14.00,2013-01-17 12:44:00,
2013-01-17 06:45:00,21.4,18.1,30.38,NW,308,0.0,0.0,87,0.00,,---,0.00,VWS V14.00,2013-01-17 12:45:00,
2013-01-17 06:46:00,21.4,18.1,30.38,NW,308,0.0,0.0,87,0.00,,---,0.00,VWS V14.00,2013-01-17 12:46:00,
2013-01-17 06:47:00,21.4,18.1,30.38,NW,308,0.0,0.0,87,0.00,,---,0.00,VWS V14.00,2013-01-17 12:47:00,
2013-01-17 06:48:00,21.3,18.0,30.38,NW,308,0.0,0.0,87,0.00,,---,0.00,VWS V14.00,2013-01-17 12:48:00,
2013-01-17 06:49:00,21.3,18.0,30.38,NW,308,0.0,0.0,87,0.00,,---,0.00,VWS V14.00,2013-01-17 12:49:00,
2013-01-17 06:50:00,21.3,18.0,30.38,NW,308,0.0,0.0,87,0.00,,---,0.00,VWS V14.00,2013-01-17 12:50:00,
2013-01-17 06:51:00,21.3,18.0,30.38,NW,308,0.0,0.0,87,0.00,,---,0.00,VWS V14.00,2013-01-17 12:51:00,
2013-01-17 06:52:00,21.3,18.0,30.39,NW,308,0.0,0.0,87,0.00,,---,0.00,VWS V14.00,2013-01-17 12:52:00,
2013-01-17 06:53:00,21.1,17.8,30.39,NW,308,0.0,0.0,87,0.00,,---,0.00,VWS V14.00,2013-01-17 12:53:00,
2013-01-17 06:54:00,21.1,17.8,30.39,NW,308,0.0,0.0,87,0.00,,---,0.00,VWS V14.00,2013-01-17 12:54:00,
2013-01-17 06:55:00,21.1,17.8,30.39,NW,308,0.0,0.0,87,0.00,,---,0.00,VWS V14.00,2013-01-17 12:55:00,
2013-01-17 06:56:00,21.1,17.8,30.39,NW,308,0.0,0.0,87,0.00,,---,0.00,VWS V14.00,2013-01-17 12:56:00,
2013-01-17 06:57:00,21.1,17.8,30.39,NW,308,0.0,0.0,87,0.00,,---,0.00,VWS V14.00,2013-01-17 12:57:00,
2013-01-17 06:58:00,21.1,17.8,30.39,NW,308,0.0,0.0,87,0.00,,---,0.00,VWS V14.00,2013-01-17 12:58:00,
2013-01-17 06:59:00,21.1,17.8,30.39,NW,308,0.0,0.0,87,0.00,,---,0.00,VWS V14.00,2013-01-17 12:59:00,
2013-01-17 07:00:00,21.1,17.8,30.39,NW,308,0.0,0.0,87,0.00,,---,0.00,VWS V14.00,2013-01-17 13:00:00,
2013-01-17 07:01:00,21.1,17.8,30.40,NW,308,0.0,0.0,87,0.00,,---,0.00,VWS V14.00,2013-01-17 13:01:00,
2013-01-17 07:02:00,21.1,17.8,30.40,NW,308,0.0,0.0,87,0.00,,---,0.00,VWS V14.00,2013-01-17 13:02:00,
2013-01-17 07:03:00,21.1,17.8,30.40,NW,308,0.0,0.0,87,0.00,,---,0.00,VWS V14.00,2013-01-17 13:03:00,
2013-01-17 07:04:00,21.1,17.8,30.40,NW,308,0.0,0.0,87,0.00,,---,0.00,VWS V14.00,2013-01-17 13:04:00,
2013-01-17 07:05:00,21.1,17.8,30.40,NW,308,0.0,0.0,87,0.00,,---,0.00,VWS V14.00,2013-01-17 13:05:00,
2013-01-17 07:06:00,21.1,17.8,30.40,NW,308,0.0,0.0,87,0.00,,---,0.00,VWS V14.00,2013-01-17 13:06:00,
2013-01-17 07:07:00,21.1,17.8,30.40,NW,308,0.0,0.0,87,0.00,,---,0.00,VWS V14.00,2013-01-17 13:07:00,
2013-01-17 07:08:00,21.1,17.8,30.40,NW,308,0.0,0.0,87,0.00,,---,0.00,VWS V14.00,2013-01-17 13:08:00,
2013-01-17 07:09:00,21.1,17.8,30.40,NW,308,0.0,0.0,87,0.00,,---,0.00,VWS V14.00,2013-01-17 13:09:00,
2013-01-17 07:10:00,21.1,17.8,30.40,NW,308,0.0,0.0,87,0.00,,---,0.00,VWS V14.00,2013-01-17 13:10:00,
2013-01-17 07:11:00,21.1,17.8,30.40,NW,308,0.0,0.0,87,0.00,,---,0.00,VWS V14.00,2013-01-17 13:11:00,
2013-01-17 07:12:00,21.3,18.0,30.40,NW,308,0.0,0.0,87,0.00,,---,0.00,VWS V14.00,2013-01-17 13:12:00,
2013-01-17 07:13:00,21.3,18.0,30.40,NW,308,0.0,0.0,87,0.00,,---,0.00,VWS V14.00,2013-01-17 13:13:00,
2013-01-17 07:14:00,21.3,18.0,30.40,NW,308,0.0,0.0,87,0.00,,---,0.00,VWS V14.00,2013-01-17 13:14:00,
2013-01-17 07:15:00,21.3,18.0,30.40,NW,308,0.0,0.0,87,0.00,,---,0.00,VWS V14.00,2013-01-17 13:15:00,
2013-01-17 07:16:00,21.3,18.0,30.40,NW,308,0.0,0.0,87,0.00,,---,0.00,VWS V14.00,2013-01-17 13:16:00,
2013-01-17 07:17:00,21.3,18.0,30.40,NW,308,0.0,0.0,87,0.00,,---,0.00,VWS V14.00,2013-01-17 13:17:00,
2013-01-17 07:18:00,21.4,18.1,30.40,NW,308,0.0,0.0,87,0.00,,---,0.00,VWS V14.00,2013-01-17 13:18:00,
2013-01-17 07:19:00,21.4,18.1,30.40,NW,308,0.0,0.0,87,0.00,,---,0.00,VWS V14.00,2013-01-17 13:19:00,
2013-01-17 07:20:00,21.4,18.1,30.40,NW,308,0.0,0.0,87,0.00,,---,0.00,VWS V14.00,2013-01-17 13:20:00,
2013-01-17 07:21:00,21.4,18.1,30.40,NW,308,0.0,0.0,87,0.00,,---,0.00,VWS V14.00,2013-01-17 13:21:00,
2013-01-17 07:22:00,21.4,18.1,30.40,NW,308,0.0,0.0,87,0.00,,---,0.00,VWS V14.00,2013-01-17 13:22:00,
2013-01-17 07:23:00,21.4,18.1,30.40,NW,308,0.0,0.0,87,0.00,,---,0.00,VWS V14.00,2013-01-17 13:23:00,
2013-01-17 07:24:00,21.4,18.1,30.40,NW,308,0.0,0.0,87,0.00,,---,0.00,VWS V14.00,2013-01-17 13:24:00,
2013-01-17 07:25:00,21.4,18.1,30.41,NW,308,0.0,0.0,87,0.00,,---,0.00,VWS V14.00,2013-01-17 13:25:00,
2013-01-17 07:26:00,21.4,18.1,30.41,NW,308,0.0,0.0,87,0.00,,---,0.00,VWS V14.00,2013-01-17 13:26:00,
2013-01-17 07:27:00,21.4,18.1,30.41,NW,308,0.0,0.0,87,0.00,,---,0.00,VWS V14.00,2013-01-17 13:27:00,
2013-01-17 07:28:00,21.4,18.1,30.41,NW,308,0.0,0.0,87,0.00,,---,0.00,VWS V14.00,2013-01-17 13:28:00,
2013-01-17 07:29:00,21.4,18.1,30.41,NW,308,0.0,0.0,87,0.00,,---,0.00,VWS V14.00,2013-01-17 13:29:00,
2013-01-17 07:30:00,21.4,18.1,30.41,NW,308,0.0,0.0,87,0.00,,---,0.00,VWS V14.00,2013-01-17 13:30:00,
2013-01-17 07:31:00,21.4,18.1,30.41,NW,308,0.0,0.0,87,0.00,,---,0.00,VWS V14.00,2013-01-17 13:31:00,
2013-01-17 07:32:00,21.4,18.1,30.41,NW,308,0.0,0.0,87,0.00,,---,0.00,VWS V14.00,2013-01-17 13:32:00,
2013-01-17 07:33:00,21.4,18.1,30.41,NW,308,0.0,0.0,87,0.00,,---,0.00,VWS V14.00,2013-01-17 13:33:00,
2013-01-17 07:34:00,21.4,18.1,30.41,NW,308,0.0,0.0,87,0.00,,---,0.00,VWS V14.00,2013-01-17 13:34:00,
2013-01-17 07:35:00,21.4,18.1,30.41,NW,308,0.0,0.0,87,0.00,,---,0.00,VWS V14.00,2013-01-17 13:35:00,
2013-01-17 07:36:00,21.4,18.1,30.41,NW,308,0.0,0.0,87,0.00,,---,0.00,VWS V14.00,2013-01-17 13:36:00,
2013-01-17 07:37:00,21.4,18.1,30.41,NW,308,0.0,0.0,87,0.00,,---,0.00,VWS V14.00,2013-01-17 13:37:00,
2013-01-17 07:38:00,21.4,18.1,30.41,NW,308,0.0,0.0,87,0.00,,---,0.00,VWS V14.00,2013-01-17 13:38:00,
2013-01-17 07:39:00,21.4,18.1,30.41,NW,308,0.0,0.0,87,0.00,,---,0.00,VWS V14.00,2013-01-17 13:39:00,
2013-01-17 07:40:00,21.4,18.1,30.42,NW,308,0.0,0.0,87,0.00,,---,0.00,VWS V14.00,2013-01-17 13:40:00,
2013-01-17 07:41:00,21.4,18.1,30.42,NW,308,0.0,0.0,87,0.00,,---,0.00,VWS V14.00,2013-01-17 13:41:00,
2013-01-17 07:42:00,21.4,18.1,30.42,NW,308,0.0,0.0,87,0.00,,---,0.00,VWS V14.00,2013-01-17 13:42:00,
2013-01-17 07:43:00,21.4,18.1,30.42,NW,308,0.0,2.0,87,0.00,,---,0.00,VWS V14.00,2013-01-17 13:43:00,
2013-01-17 07:44:00,21.4,18.1,30.42,NW,308,1.0,1.0,87,0.00,,---,0.00,VWS V14.00,2013-01-17 13:44:00,
2013-01-17 07:45:00,21.4,18.1,30.42,NW,308,0.0,2.0,87,0.00,,---,0.00,VWS V14.00,2013-01-17 13:45:00,
2013-01-17 07:46:00,21.4,18.1,30.42,NW,308,0.0,0.0,87,0.00,,---,0.00,VWS V14.00,2013-01-17 13:46:00,
2013-01-17 07:47:00,21.4,18.1,30.42,NW,308,0.0,0.0,87,0.00,,---,0.00,VWS V14.00,2013-01-17 13:47:00,
2013-01-17 07:48:00,21.4,18.1,30.42,NW,308,0.0,0.0,87,0.00,,---,0.00,VWS V14.00,2013-01-17 13:48:00,
2013-01-17 07:49:00,21.4,18.1,30.42,NW,308,0.0,0.0,87,0.00,,---,0.00,VWS V14.00,2013-01-17 13:49:00,
2013-01-17 07:50:00,21.6,18.3,30.42,NW,308,0.0,0.0,87,0.00,,---,0.00,VWS V14.00,2013-01-17 13:50:00,
2013-01-17 07:51:00,21.6,18.3,30.42,NW,308,0.0,0.0,87,0.00,,---,0.00,VWS V14.00,2013-01-17 13:51:00,
2013-01-17 07:52:00,21.6,18.3,30.42,NW,308,0.0,0.0,87,0.00,,---,0.00,VWS V14.00,2013-01-17 13:52:00,
2013-01-17 07:53:00,21.8,18.5,30.42,NW,308,0.0,0.0,87,0.00,,---,0.00,VWS V14.00,2013-01-17 13:53:00,
2013-01-17 07:54:00,21.8,18.5,30.42,NW,308,0.0,0.0,87,0.00,,---,0.00,VWS V14.00,2013-01-17 13:54:00,
2013-01-17 07:55:00,21.8,18.5,30.42,NW,308,0.0,0.0,87,0.00,,---,0.00,VWS V14.00,2013-01-17 13:55:00,
2013-01-17 07:56:00,21.8,18.5,30.42,NW,308,0.0,0.0,87,0.00,,---,0.00,VWS V14.00,2013-01-17 13:56:00,
2013-01-17 07:57:00,21.9,18.6,30.42,NW,308,0.0,0.0,87,0.00,,---,0.00,VWS V14.00,2013-01-17 13:57:00,
2013-01-17 07:58:00,22.2,19.2,30.42,NW,308,0.0,0.0,88,0.00,,---,0.00,VWS V14.00,2013-01-17 13:58:00,
2013-01-17 07:59:00,22.1,19.1,30.42,NW,308,0.0,0.0,88,0.00,,---,0.00,VWS V14.00,2013-01-17 13:59:00,
2013-01-17 08:00:00,22.2,19.2,30.42,NW,308,0.0,0.0,88,0.00,,---,0.00,VWS V14.00,2013-01-17 14:00:00,
2013-01-17 08:01:00,22.4,19.4,30.43,NW,308,0.0,0.0,88,0.00,,---,0.00,VWS V14.00,2013-01-17 14:01:00,
2013-01-17 08:02:00,22.4,19.4,30.43,NW,308,0.0,0.0,88,0.00,,---,0.00,VWS V14.00,2013-01-17 14:02:00,
2013-01-17 08:03:00,22.7,19.7,30.43,NW,308,0.0,0.0,88,0.00,,---,0.00,VWS V14.00,2013-01-17 14:03:00,
2013-01-17 08:04:00,22.7,19.4,30.43,NW,308,0.0,0.0,87,0.00,,---,0.00,VWS V14.00,2013-01-17 14:04:00,
2013-01-17 08:05:00,22.9,19.9,30.43,NW,308,0.0,0.0,88,0.00,,---,0.00,VWS V14.00,2013-01-17 14:05:00,
2013-01-17 08:06:00,22.9,19.6,30.43,NW,308,0.0,4.0,87,0.00,,---,0.00,VWS V14.00,2013-01-17 14:06:00,
2013-01-17 08:07:00,23.0,19.7,30.43,NW,308,0.0,4.0,87,0.00,,---,0.00,VWS V14.00,2013-01-17 14:07:00,
2013-01-17 08:08:00,23.0,19.7,30.43,NW,308,1.0,2.0,87,0.00,,---,0.00,VWS V14.00,2013-01-17 14:08:00,
2013-01-17 08:09:00,23.0,19.7,30.43,NW,308,2.0,3.0,87,0.00,,---,0.00,VWS V14.00,2013-01-17 14:09:00,
2013-01-17 08:10:00,23.0,19.7,30.43,NW,308,2.0,2.0,87,0.00,,---,0.00,VWS V14.00,2013-01-17 14:10:00,
2013-01-17 08:11:00,23.0,19.7,30.43,NW,308,0.0,3.0,87,0.00,,---,0.00,VWS V14.00,2013-01-17 14:11:00,
2013-01-17 08:12:00,23.2,19.9,30.43,NW,308,0.0,0.0,87,0.00,,---,0.00,VWS V14.00,2013-01-17 14:12:00,
2013-01-17 08:13:00,23.3,20.0,30.43,NW,308,0.0,0.0,87,0.00,,---,0.00,VWS V14.00,2013-01-17 14:13:00,
2013-01-17 08:14:00,23.3,20.0,30.43,NW,308,0.0,0.0,87,0.00,,---,0.00,VWS V14.00,2013-01-17 14:14:00,
2013-01-17 08:15:00,23.3,20.0,30.43,NW,308,0.0,0.0,87,0.00,,---,0.00,VWS V14.00,2013-01-17 14:15:00,
2013-01-17 08:16:00,23.5,20.2,30.43,NW,308,0.0,0.0,87,0.00,,---,0.00,VWS V14.00,2013-01-17 14:16:00,
2013-01-17 08:17:00,23.8,20.5,30.43,NW,308,3.0,4.0,87,0.00,,---,0.00,VWS V14.00,2013-01-17 14:17:00,
2013-01-17 08:18:00,23.6,20.3,30.43,NW,308,0.0,0.0,87,0.00,,---,0.00,VWS V14.00,2013-01-17 14:18:00,
2013-01-17 08:19:00,23.8,20.5,30.43,NW,308,3.0,3.0,87,0.00,,---,0.00,VWS V14.00,2013-01-17 14:19:00,
2013-01-17 08:20:00,23.9,20.6,30.43,NW,308,2.0,4.0,87,0.00,,---,0.00,VWS V14.00,2013-01-17 14:20:00,
2013-01-17 08:21:00,23.9,20.6,30.43,NW,308,2.0,3.0,87,0.00,,---,0.00,VWS V14.00,2013-01-17 14:21:00,
2013-01-17 08:22:00,24.5,21.2,30.44,NW,308,2.0,3.0,87,0.00,,---,0.00,VWS V14.00,2013-01-17 14:22:00,
2013-01-17 08:23:00,24.2,21.2,30.44,NW,308,0.0,1.0,88,0.00,,---,0.00,VWS V14.00,2013-01-17 14:23:00,
2013-01-17 08:24:00,24.4,21.1,30.44,NW,308,1.0,1.0,87,0.00,,---,0.00,VWS V14.00,2013-01-17 14:24:00,
2013-01-17 08:25:00,24.5,21.2,30.43,NW,308,1.0,3.0,87,0.00,,---,0.00,VWS V14.00,2013-01-17 14:25:00,
2013-01-17 08:26:00,24.5,21.2,30.43,NW,308,0.0,1.0,87,0.00,,---,0.00,VWS V14.00,2013-01-17 14:26:00,
2013-01-17 08:27:00,25.3,22.2,30.44,NW,308,2.0,2.0,88,0.00,,---,0.00,VWS V14.00,2013-01-17 14:27:00,
2013-01-17 08:28:00,24.8,21.8,30.44,NW,308,0.0,0.0,88,0.00,,---,0.00,VWS V14.00,2013-01-17 14:28:00,
2013-01-17 08:29:00,25.0,22.0,30.44,NW,308,2.0,3.0,88,0.00,,---,0.00,VWS V14.00,2013-01-17 14:29:00,
2013-01-17 08:30:00,25.3,22.2,30.44,NW,308,2.0,2.0,88,0.00,,---,0.00,VWS V14.00,2013-01-17 14:30:00,
2013-01-17 08:31:00,25.4,22.4,30.44,NW,308,3.0,3.0,88,0.00,,---,0.00,VWS V14.00,2013-01-17 14:31:00,
2013-01-17 08:32:00,25.6,22.5,30.44,NW,308,3.0,3.0,88,0.00,,---,0.00,VWS V14.00,2013-01-17 14:32:00,
2013-01-17 08:33:00,25.8,22.7,30.44,NW,308,3.0,3.0,88,0.00,,---,0.00,VWS V14.00,2013-01-17 14:33:00,
2013-01-17 08:34:00,25.7,22.6,30.44,NW,308,3.0,3.0,88,0.00,,---,0.00,VWS V14.00,2013-01-17 14:34:00,
2013-01-17 08:35:00,25.8,22.7,30.44,NW,308,1.0,3.0,88,0.00,,---,0.00,VWS V14.00,2013-01-17 14:35:00,
2013-01-17 08:36:00,26.0,22.9,30.44,NW,308,0.0,1.0,88,0.00,,---,0.00,VWS V14.00,2013-01-17 14:36:00,
2013-01-17 08:37:00,26.0,22.9,30.44,NW,308,1.0,2.0,88,0.00,,---,0.00,VWS V14.00,2013-01-17 14:37:00,
2013-01-17 08:38:00,26.4,23.3,30.44,NW,308,0.0,0.0,88,0.00,,---,0.00,VWS V14.00,2013-01-17 14:38:00,
2013-01-17 08:39:00,26.3,23.2,30.44,NW,308,0.0,0.0,88,0.00,,---,0.00,VWS V14.00,2013-01-17 14:39:00,
2013-01-17 08:40:00,26.4,23.3,30.44,NW,308,0.0,0.0,88,0.00,,---,0.00,VWS V14.00,2013-01-17 14:40:00,
2013-01-17 08:41:00,26.6,23.5,30.44,NW,308,0.0,0.0,88,0.00,,---,0.00,VWS V14.00,2013-01-17 14:41:00,
2013-01-17 08:42:00,26.6,23.3,30.44,NW,308,0.0,0.0,87,0.00,,---,0.00,VWS V14.00,2013-01-17 14:42:00,
2013-01-17 08:43:00,27.0,23.9,30.44,NW,308,0.0,0.0,88,0.00,,---,0.00,VWS V14.00,2013-01-17 14:43:00,
2013-01-17 08:44:00,27.0,23.9,30.44,NW,308,0.0,0.0,88,0.00,,---,0.00,VWS V14.00,2013-01-17 14:44:00,
2013-01-17 08:45:00,27.0,23.9,30.44,NW,308,0.0,0.0,88,0.00,,---,0.00,VWS V14.00,2013-01-17 14:45:00,
2013-01-17 08:46:00,27.2,23.9,30.44,NW,308,0.0,0.0,87,0.00,,---,0.00,VWS V14.00,2013-01-17 14:46:00,
2013-01-17 08:47:00,27.3,24.0,30.44,NW,308,0.0,0.0,87,0.00,,---,0.00,VWS V14.00,2013-01-17 14:47:00,
2013-01-17 08:48:00,27.6,24.2,30.44,NW,308,0.0,0.0,87,0.00,,---,0.00,VWS V14.00,2013-01-17 14:48:00,
2013-01-17 08:49:00,27.5,24.1,30.44,NW,308,0.0,0.0,87,0.00,,---,0.00,VWS V14.00,2013-01-17 14:49:00,
2013-01-17 08:50:00,27.6,24.2,30.45,NW,308,0.0,0.0,87,0.00,,---,0.00,VWS V14.00,2013-01-17 14:50:00,
2013-01-17 08:51:00,27.8,24.4,30.45,NW,308,0.0,0.0,87,0.00,,---,0.00,VWS V14.00,2013-01-17 14:51:00,
2013-01-17 08:52:00,27.9,24.5,30.45,NW,308,0.0,0.0,87,0.00,,---,0.00,VWS V14.00,2013-01-17 14:52:00,
2013-01-17 08:53:00,28.5,25.4,30.45,NW,308,0.0,0.0,88,0.00,,---,0.00,VWS V14.00,2013-01-17 14:53:00,
2013-01-17 08:54:00,28.4,25.3,30.45,NW,308,0.0,0.0,88,0.00,,---,0.00,VWS V14.00,2013-01-17 14:54:00,
2013-01-17 08:55:00,28.5,25.4,30.45,NW,308,0.0,0.0,88,0.00,,---,0.00,VWS V14.00,2013-01-17 14:55:00,
2013-01-17 08:56:00,28.8,25.7,30.45,NW,308,0.0,0.0,88,0.00,,---,0.00,VWS V14.00,2013-01-17 14:56:00,
2013-01-17 08:57:00,29.1,26.0,30.45,NW,308,0.0,0.0,88,0.00,,---,0.00,VWS V14.00,2013-01-17 14:57:00,
2013-01-17 08:58:00,29.8,26.7,30.45,NW,308,0.0,0.0,88,0.00,,---,0.00,VWS V14.00,2013-01-17 14:58:00,
2013-01-17 08:59:00,29.7,26.9,30.45,NW,308,0.0,0.0,89,0.00,,---,0.00,VWS V14.00,2013-01-17 14:59:00,
2013-01-17 09:00:00,29.8,26.7,30.45,NW,308,0.0,0.0,88,0.00,,---,0.00,VWS V14.00,2013-01-17 15:00:00,
2013-01-17 09:01:00,30.1,27.0,30.45,NW,308,0.0,0.0,88,0.00,,---,0.00,VWS V14.00,2013-01-17 15:01:00,
2013-01-17 09:02:00,30.4,27.3,30.45,NW,308,2.0,4.0,88,0.00,,---,0.00,VWS V14.00,2013-01-17 15:02:00,
2013-01-17 09:03:00,31.3,28.2,30.45,NW,308,4.0,7.0,88,0.00,,---,0.00,VWS V14.00,2013-01-17 15:03:00,
2013-01-17 09:04:00,31.0,28.1,30.45,NW,308,5.0,6.0,89,0.00,,---,0.00,VWS V14.00,2013-01-17 15:04:00,
2013-01-17 09:05:00,31.3,28.2,30.45,NW,308,2.0,7.0,88,0.00,,---,0.00,VWS V14.00,2013-01-17 15:05:00,
2013-01-17 09:06:00,31.8,28.7,30.45,NW,308,3.0,4.0,88,0.00,,---,0.00,VWS V14.00,2013-01-17 15:06:00,
2013-01-17 09:07:00,32.1,29.0,30.45,NW,308,3.0,4.0,88,0.00,,---,0.00,VWS V14.00,2013-01-17 15:07:00,
2013-01-17 09:08:00,32.8,29.4,30.45,NW,308,6.0,9.0,87,0.00,,---,0.00,VWS V14.00,2013-01-17 15:08:00,
2013-01-17 09:09:00,32.7,29.3,30.45,NW,308,6.0,9.0,87,0.00,,---,0.00,VWS V14.00,2013-01-17 15:09:00,
2013-01-17 09:10:00,32.9,29.5,30.45,NW,308,6.0,9.0,87,0.00,,---,0.00,VWS V14.00,2013-01-17 15:10:00,
2013-01-17 09:11:00,33.1,29.4,30.45,NW,308,3.0,6.0,86,0.00,,---,0.00,VWS V14.00,2013-01-17 15:11:00,
2013-01-17 09:12:00,33.4,29.7,30.46,NW,308,6.0,7.0,86,0.00,,---,0.00,VWS V14.00,2013-01-17 15:12:00,
2013-01-17 09:13:00,34.0,30.0,30.46,NW,308,3.0,7.0,85,0.00,,---,0.00,VWS V14.00,2013-01-17 15:13:00,
2013-01-17 09:14:00,33.8,29.8,30.46,NW,308,4.0,6.0,85,0.00,,---,0.00,VWS V14.00,2013-01-17 15:14:00,
2013-01-17 09:15:00,34.0,30.0,30.46,NW,308,2.0,7.0,85,0.00,,---,0.00,VWS V14.00,2013-01-17 15:15:00,
2013-01-17 09:16:00,34.1,30.1,30.46,NW,308,6.0,9.0,85,0.00,,---,0.00,VWS V14.00,2013-01-17 15:16:00,
2013-01-17 09:17:00,34.3,30.0,30.46,NW,308,4.0,7.0,84,0.00,,---,0.00,VWS V14.00,2013-01-17 15:17:00,
2013-01-17 09:18:00,34.7,30.4,30.46,NW,308,7.0,7.0,84,0.00,,---,0.00,VWS V14.00,2013-01-17 15:18:00,
2013-01-17 09:19:00,34.6,30.3,30.46,NW,308,6.0,10.0,84,0.00,,---,0.00,VWS V14.00,2013-01-17 15:19:00,
2013-01-17 09:20:00,34.7,30.4,30.46,NW,308,4.0,7.0,84,0.00,,---,0.00,VWS V14.00,2013-01-17 15:20:00,
2013-01-17 09:21:00,34.7,30.1,30.46,NW,308,5.0,7.0,83,0.00,,---,0.00,VWS V14.00,2013-01-17 15:21:00,
2013-01-17 09:22:00,34.9,30.3,30.46,NW,308,9.0,9.0,83,0.00,,---,0.00,VWS V14.00,2013-01-17 15:22:00,
2013-01-17 09:23:00,35.2,30.6,30.46,NW,308,5.0,5.0,83,0.00,,---,0.00,VWS V14.00,2013-01-17 15:23:00,
2013-01-17 09:24:00,35.0,30.1,30.46,NW,308,4.0,9.0,82,0.00,,---,0.00,VWS V14.00,2013-01-17 15:24:00,
2013-01-17 09:25:00,35.2,30.6,30.46,NW,308,7.0,7.0,83,0.00,,---,0.00,VWS V14.00,2013-01-17 15:25:00,
2013-01-17 09:26:00,35.3,30.4,30.46,NNE,20,4.0,8.0,82,0.00,,---,0.00,VWS V14.00,2013-01-17 15:26:00,
2013-01-17 09:27:00,35.3,30.4,30.46,NNW,338,4.0,8.0,82,0.00,,---,0.00,VWS V14.00,2013-01-17 15:27:00,
2013-01-17 09:28:00,35.5,30.6,30.45,NNW,337,3.0,5.0,82,0.00,,---,0.00,VWS V14.00,2013-01-17 15:28:00,
2013-01-17 09:29:00,35.5,30.6,30.46,NNW,338,3.0,6.0,82,0.00,,---,0.00,VWS V14.00,2013-01-17 15:29:00,
2013-01-17 09:30:00,35.5,30.6,30.45,NNW,337,5.0,5.0,82,0.00,,---,0.00,VWS V14.00,2013-01-17 15:30:00,
2013-01-17 09:31:00,35.6,30.7,30.46,NNW,338,4.0,7.0,82,0.00,,---,0.00,VWS V14.00,2013-01-17 15:31:00,
2013-01-17 09:32:00,35.8,30.9,30.45,NNW,338,5.0,5.0,82,0.00,,---,0.00,VWS V14.00,2013-01-17 15:32:00,
2013-01-17 09:33:00,35.9,31.0,30.45,NNW,338,5.0,6.0,82,0.00,,---,0.00,VWS V14.00,2013-01-17 15:33:00,
2013-01-17 09:34:00,35.8,30.9,30.45,NNW,338,5.0,6.0,82,0.00,,---,0.00,VWS V14.00,2013-01-17 15:34:00,
2013-01-17 09:35:00,35.9,30.6,30.45,NNW,338,6.0,6.0,81,0.00,,---,0.00,VWS V14.00,2013-01-17 15:35:00,
2013-01-17 09:36:00,35.9,30.6,30.45,NNW,338,4.0,6.0,81,0.00,,---,0.00,VWS V14.00,2013-01-17 15:36:00,
2013-01-17 09:37:00,35.9,30.6,30.46,NNW,337,3.0,7.0,81,0.00,,---,0.00,VWS V14.00,2013-01-17 15:37:00,
2013-01-17 09:38:00,36.2,30.9,30.46,NNW,337,2.0,4.0,81,0.00,,---,0.00,VWS V14.00,2013-01-17 15:38:00,
2013-01-17 09:39:00,36.0,30.8,30.46,NNW,337,2.0,3.0,81,0.00,,---,0.00,VWS V14.00,2013-01-17 15:39:00,
2013-01-17 09:40:00,36.2,30.9,30.46,NNW,337,3.0,4.0,81,0.00,,---,0.00,VWS V14.00,2013-01-17 15:40:00,
2013-01-17 09:41:00,36.2,30.9,30.46,NNW,337,3.0,5.0,81,0.00,,---,0.00,VWS V14.00,2013-01-17 15:41:00,
2013-01-17 09:42:00,36.3,31.0,30.46,NNW,337,4.0,8.0,81,0.00,,---,0.00,VWS V14.00,2013-01-17 15:42:00,
2013-01-17 09:43:00,36.5,30.9,30.46,NNW,336,5.0,8.0,80,0.00,,---,0.00,VWS V14.00,2013-01-17 15:43:00,
2013-01-17 09:44:00,36.3,31.0,30.46,NNW,337,4.0,6.0,81,0.00,,---,0.00,VWS V14.00,2013-01-17 15:44:00,
2013-01-17 09:45:00,36.5,30.9,30.46,NNW,336,6.0,8.0,80,0.00,,---,0.00,VWS V14.00,2013-01-17 15:45:00,
2013-01-17 09:46:00,36.5,30.9,30.46,NNW,336,5.0,6.0,80,0.00,,---,0.00,VWS V14.00,2013-01-17 15:46:00,
2013-01-17 09:47:00,36.5,30.9,30.46,NNW,336,2.0,6.0,80,0.00,,---,0.00,VWS V14.00,2013-01-17 15:47:00,
2013-01-17 09:48:00,36.6,31.0,30.46,NNW,338,3.0,4.0,80,0.00,,---,0.00,VWS V14.00,2013-01-17 15:48:00,
2013-01-17 09:49:00,36.6,31.0,30.46,NNW,338,4.0,7.0,80,0.00,,---,0.00,VWS V14.00,2013-01-17 15:49:00,
2013-01-17 09:50:00,36.8,31.2,30.46,NNW,338,3.0,4.0,80,0.00,,---,0.00,VWS V14.00,2013-01-17 15:50:00,
2013-01-17 09:51:00,36.8,31.2,30.46,NNW,338,0.0,4.0,80,0.00,,---,0.00,VWS V14.00,2013-01-17 15:51:00,
2013-01-17 09:52:00,36.9,31.3,30.46,NNW,338,3.0,3.0,80,0.00,,---,0.00,VWS V14.00,2013-01-17 15:52:00,
2013-01-17 09:53:00,37.0,31.4,30.46,NNW,336,2.0,3.0,80,0.00,,---,0.00,VWS V14.00,2013-01-17 15:53:00,
2013-01-17 09:54:00,37.0,31.4,30.46,NNW,336,2.0,5.0,80,0.00,,---,0.00,VWS V14.00,2013-01-17 15:54:00,
2013-01-17 09:55:00,37.0,31.4,30.46,NNW,336,4.0,4.0,80,0.00,,---,0.00,VWS V14.00,2013-01-17 15:55:00,
2013-01-17 09:56:00,37.2,31.6,30.46,NNW,336,2.0,4.0,80,0.00,,---,0.00,VWS V14.00,2013-01-17 15:56:00,
2013-01-17 09:57:00,37.2,31.6,30.46,NNW,336,0.0,6.0,80,0.00,,---,0.00,VWS V14.00,2013-01-17 15:57:00,
2013-01-17 09:58:00,37.5,31.6,30.46,NNW,336,5.0,6.0,79,0.00,,---,0.00,VWS V14.00,2013-01-17 15:58:00,
2013-01-17 09:59:00,37.3,31.4,30.46,NNW,336,0.0,4.0,79,0.00,,---,0.00,VWS V14.00,2013-01-17 15:59:00,
2013-01-17 10:00:00,37.5,31.6,30.46,NNW,336,3.0,6.0,79,0.00,,---,0.00,VWS V14.00,2013-01-17 16:00:00,
2013-01-17 10:01:00,37.5,31.6,30.46,NNW,331,5.0,10.0,79,0.00,,---,0.00,VWS V14.00,2013-01-17 16:01:00,
2013-01-17 10:02:00,37.6,31.7,30.46,NNW,331,7.0,7.0,79,0.00,,---,0.00,VWS V14.00,2013-01-17 16:02:00,
2013-01-17 10:03:00,37.8,31.9,30.46,NNW,331,4.0,6.0,79,0.00,,---,0.00,VWS V14.00,2013-01-17 16:03:00,
2013-01-17 10:04:00,37.8,31.9,30.46,NNW,331,6.0,6.0,79,0.00,,---,0.00,VWS V14.00,2013-01-17 16:04:00,
2013-01-17 10:05:00,37.8,31.9,30.46,NNW,331,3.0,6.0,79,0.00,,---,0.00,VWS V14.00,2013-01-17 16:05:00,
2013-01-17 10:06:00,37.9,32.0,30.46,NNW,333,5.0,7.0,79,0.00,,---,0.00,VWS V14.00,2013-01-17 16:06:00,
2013-01-17 10:07:00,37.9,32.0,30.46,NNW,334,4.0,9.0,79,0.00,,---,0.00,VWS V14.00,2013-01-17 16:07:00,
2013-01-17 10:08:00,38.0,31.8,30.46,NNW,334,5.0,7.0,78,0.00,,---,0.00,VWS V14.00,2013-01-17 16:08:00,
2013-01-17 10:09:00,38.0,31.8,30.46,NNW,334,7.0,8.0,78,0.00,,---,0.00,VWS V14.00,2013-01-17 16:09:00,
2013-01-17 10:10:00,38.0,31.8,30.46,NNW,334,4.0,7.0,78,0.00,,---,0.00,VWS V14.00,2013-01-17 16:10:00,
2013-01-17 10:11:00,38.2,32.0,30.46,NNW,334,2.0,5.0,78,0.00,,---,0.00,VWS V14.00,2013-01-17 16:11:00,
2013-01-17 10:12:00,38.2,32.0,30.46,NNW,334,7.0,7.0,78,0.00,,---,0.00,VWS V14.00,2013-01-17 16:12:00,
2013-01-17 10:13:00,38.5,32.2,30.46,NNW,333,3.0,6.0,78,0.00,,---,0.00,VWS V14.00,2013-01-17 16:13:00,
2013-01-17 10:14:00,38.5,32.2,30.46,NNW,333,4.0,4.0,78,0.00,,---,0.00,VWS V14.00,2013-01-17 16:14:00,
2013-01-17 10:15:00,38.5,32.2,30.46,NNW,333,3.0,6.0,78,0.00,,---,0.00,VWS V14.00,2013-01-17 16:15:00,
2013-01-17 10:16:00,38.6,32.3,30.46,NNW,333,4.0,9.0,78,0.00,,---,0.00,VWS V14.00,2013-01-17 16:16:00,
2013-01-17 10:17:00,38.8,32.2,30.46,NNW,333,5.0,11.0,77,0.00,,---,0.00,VWS V14.00,2013-01-17 16:17:00,
2013-01-17 10:18:00,38.9,32.3,30.46,NNW,336,4.0,13.0,77,0.00,,---,0.00,VWS V14.00,2013-01-17 16:18:00,
2013-01-17 10:19:00,38.9,32.3,30.46,NNW,335,6.0,8.0,77,0.00,,---,0.00,VWS V14.00,2013-01-17 16:19:00,
2013-01-17 10:20:00,38.9,32.3,30.46,NNW,336,3.0,13.0,77,0.00,,---,0.00,VWS V14.00,2013-01-17 16:20:00,
2013-01-17 10:21:00,38.9,32.3,30.46,NNW,336,3.0,6.0,77,0.00,,---,0.00,VWS V14.00,2013-01-17 16:21:00,
2013-01-17 10:22:00,39.2,32.6,30.46,NNW,335,5.0,9.0,77,0.00,,---,0.00,VWS V14.00,2013-01-17 16:22:00,
2013-01-17 10:23:00,39.1,32.5,30.46,NNW,336,4.0,5.0,77,0.00,,---,0.00,VWS V14.00,2013-01-17 16:23:00,
2013-01-17 10:24:00,39.2,32.6,30.46,NNW,336,4.0,8.0,77,0.00,,---,0.00,VWS V14.00,2013-01-17 16:24:00,
2013-01-17 10:25:00,39.2,32.6,30.46,NNW,335,7.0,9.0,77,0.00,,---,0.00,VWS V14.00,2013-01-17 16:25:00,
2013-01-17 10:26:00,39.3,32.4,30.46,NNW,333,6.0,10.0,76,0.00,,---,0.00,VWS V14.00,2013-01-17 16:26:00,
2013-01-17 10:27:00,39.5,32.6,30.46,NNW,333,9.0,10.0,76,0.00,,---,0.00,VWS V14.00,2013-01-17 16:27:00,
2013-01-17 10:28:00,39.5,32.6,30.47,NNW,333,4.0,7.0,76,0.00,,---,0.00,VWS V14.00,2013-01-17 16:28:00,
2013-01-17 10:29:00,39.5,32.6,30.46,NNW,333,6.0,6.0,76,0.00,,---,0.00,VWS V14.00,2013-01-17 16:29:00,
2013-01-17 10:30:00,39.5,32.6,30.46,NNW,333,4.0,10.0,76,0.00,,---,0.00,VWS V14.00,2013-01-17 16:30:00,
2013-01-17 10:31:00,39.6,32.3,30.47,NNW,333,3.0,9.0,75,0.00,,---,0.00,VWS V14.00,2013-01-17 16:31:00,
2013-01-17 10:32:00,39.6,32.3,30.47,NNW,333,5.0,7.0,75,0.00,,---,0.00,VWS V14.00,2013-01-17 16:32:00,
2013-01-17 10:33:00,39.8,32.5,30.47,NNW,333,5.0,5.0,75,0.00,,---,0.00,VWS V14.00,2013-01-17 16:33:00,
2013-01-17 10:34:00,39.6,32.3,30.47,NNW,333,3.0,5.0,75,0.00,,---,0.00,VWS V14.00,2013-01-17 16:34:00,
2013-01-17 10:35:00,39.8,32.5,30.47,NNW,333,3.0,5.0,75,0.00,,---,0.00,VWS V14.00,2013-01-17 16:35:00,
2013-01-17 10:36:00,39.8,32.5,30.47,NNW,333,3.0,3.0,75,0.00,,---,0.00,VWS V14.00,2013-01-17 16:36:00,
2013-01-17 10:37:00,40.1,32.8,30.47,NNW,333,3.0,4.0,75,0.00,,---,0.00,VWS V14.00,2013-01-17 16:37:00,
2013-01-17 10:38:00,39.9,32.6,30.47,NNW,333,0.0,9.0,75,0.00,,---,0.00,VWS V14.00,2013-01-17 16:38:00,
2013-01-17 10:39:00,40.1,32.8,30.47,NNW,333,0.0,6.0,75,0.00,,---,0.00,VWS V14.00,2013-01-17 16:39:00,
2013-01-17 10:40:00,40.1,32.8,30.47,NNW,333,2.0,4.0,75,0.00,,---,0.00,VWS V14.00,2013-01-17 16:40:00,
2013-01-17 10:41:00,40.2,32.9,30.47,NNW,333,4.0,5.0,75,0.00,,---,0.00,VWS V14.00,2013-01-17 16:41:00,
2013-01-17 10:42:00,40.2,32.9,30.47,NNW,333,5.0,6.0,75,0.00,,---,0.00,VWS V14.00,2013-01-17 16:42:00,
2013-01-17 10:43:00,40.3,32.7,30.47,NW,325,4.0,8.0,74,0.00,,---,0.00,VWS V14.00,2013-01-17 16:43:00,
2013-01-17 10:44:00,40.3,32.7,30.47,NW,325,5.0,9.0,74,0.00,,---,0.00,VWS V14.00,2013-01-17 16:44:00,
2013-01-17 10:45:00,40.3,32.7,30.47,NW,326,4.0,8.0,74,0.00,,---,0.00,VWS V14.00,2013-01-17 16:45:00,
2013-01-17 10:46:00,40.3,32.7,30.47,NNW,327,9.0,11.0,74,0.00,,---,0.00,VWS V14.00,2013-01-17 16:46:00,
2013-01-17 10:47:00,40.3,32.3,30.47,NW,325,11.0,13.0,73,0.00,,---,0.00,VWS V14.00,2013-01-17 16:47:00,
2013-01-17 10:48:00,40.3,32.3,30.47,NNW,329,10.0,10.0,73,0.00,,---,0.00,VWS V14.00,2013-01-17 16:48:00,
2013-01-17 10:49:00,40.3,32.3,30.47,NW,319,11.0,14.0,73,0.00,,---,0.00,VWS V14.00,2013-01-17 16:49:00,
2013-01-17 10:50:00,40.3,32.3,30.47,NNW,335,12.0,13.0,73,0.00,,---,0.00,VWS V14.00,2013-01-17 16:50:00,
2013-01-17 10:51:00,40.2,32.2,30.47,NNW,327,7.0,14.0,73,0.00,,---,0.00,VWS V14.00,2013-01-17 16:51:00,
2013-01-17 10:52:00,40.2,32.2,30.47,NW,323,11.0,14.0,73,0.00,,---,0.00,VWS V14.00,2013-01-17 16:52:00,
2013-01-17 10:53:00,40.2,31.9,30.47,NNW,331,12.0,14.0,72,0.00,,---,0.00,VWS V14.00,2013-01-17 16:53:00,
2013-01-17 10:54:00,40.2,31.9,30.47,NNW,344,9.0,18.0,72,0.00,,---,0.00,VWS V14.00,2013-01-17 16:54:00,
2013-01-17 10:55:00,40.2,31.9,30.47,NNW,331,7.0,14.0,72,0.00,,---,0.00,VWS V14.00,2013-01-17 16:55:00,
2013-01-17 10:56:00,40.2,31.9,30.47,NNW,336,13.0,13.0,72,0.00,,---,0.00,VWS V14.00,2013-01-17 16:56:00,
2013-01-17 10:57:00,40.1,31.8,30.47,NNW,329,15.0,15.0,72,0.00,,---,0.00,VWS V14.00,2013-01-17 16:57:00,
2013-01-17 10:58:00,40.2,32.2,30.47,NNW,331,11.0,12.0,73,0.00,,---,0.00,VWS V14.00,2013-01-17 16:58:00,
2013-01-17 10:59:00,40.2,32.2,30.47,NNW,330,6.0,8.0,73,0.00,,---,0.00,VWS V14.00,2013-01-17 16:59:00,
2013-01-17 11:00:00,40.2,32.2,30.47,NNW,331,12.0,12.0,73,0.00,,---,0.00,VWS V14.00,2013-01-17 17:00:00,
2013-01-17 11:01:00,40.2,31.9,30.47,NNW,338,4.0,13.0,72,0.00,,---,0.00,VWS V14.00,2013-01-17 17:01:00,
2013-01-17 11:02:00,40.2,32.2,30.47,NNW,338,4.0,9.0,73,0.00,,---,0.00,VWS V14.00,2013-01-17 17:02:00,
2013-01-17 11:03:00,40.3,32.3,30.47,NW,312,7.0,10.0,73,0.00,,---,0.00,VWS V14.00,2013-01-17 17:03:00,
2013-01-17 11:04:00,40.3,32.3,30.47,NNW,336,3.0,9.0,73,0.00,,---,0.00,VWS V14.00,2013-01-17 17:04:00,
2013-01-17 11:05:00,40.3,32.3,30.47,NW,312,7.0,10.0,73,0.00,,---,0.00,VWS V14.00,2013-01-17 17:05:00,
2013-01-17 11:06:00,40.3,32.0,30.47,NW,325,7.0,14.0,72,0.00,,---,0.00,VWS V14.00,2013-01-17 17:06:00,
2013-01-17 11:07:00,40.2,31.9,30.47,NNW,341,5.0,8.0,72,0.00,,---,0.00,VWS V14.00,2013-01-17 17:07:00,
2013-01-17 11:08:00,40.3,32.0,30.47,NNW,340,12.0,14.0,72,0.00,,---,0.00,VWS V14.00,2013-01-17 17:08:00,
2013-01-17 11:09:00,40.2,31.9,30.47,NNW,341,5.0,12.0,72,0.00,,---,0.00,VWS V14.00,2013-01-17 17:09:00,
2013-01-17 11:10:00,40.2,31.9,30.47,NNW,342,7.0,8.0,72,0.00,,---,0.00,VWS V14.00,2013-01-17 17:10:00,
2013-01-17 11:11:00,40.1,31.8,30.47,NNW,341,5.0,10.0,72,0.00,,---,0.00,VWS V14.00,2013-01-17 17:11:00,
2013-01-17 11:12:00,40.2,31.9,30.47,NNW,336,5.0,6.0,72,0.00,,---,0.00,VWS V14.00,2013-01-17 17:12:00,
2013-01-17 11:13:00,40.1,31.8,30.47,NNW,336,10.0,11.0,72,0.00,,---,0.00,VWS V14.00,2013-01-17 17:13:00,
2013-01-17 11:14:00,40.1,31.8,30.47,NNW,336,5.0,10.0,72,0.00,,---,0.00,VWS V14.00,2013-01-17 17:14:00,
2013-01-17 11:15:00,40.2,31.9,30.47,NNW,336,3.0,6.0,72,0.00,,---,0.00,VWS V14.00,2013-01-17 17:15:00,
2013-01-17 11:16:00,40.2,31.9,30.47,NNW,336,2.0,3.0,72,0.00,,---,0.00,VWS V14.00,2013-01-17 17:16:00,
2013-01-17 11:17:00,40.5,32.2,30.48,NW,323,6.0,10.0,72,0.00,,---,0.00,VWS V14.00,2013-01-17 17:17:00,
2013-01-17 11:18:00,40.3,32.0,30.48,NNW,328,7.0,9.0,72,0.00,,---,0.00,VWS V14.00,2013-01-17 17:18:00,
2013-01-17 11:19:00,40.3,32.0,30.48,NNW,328,3.0,7.0,72,0.00,,---,0.00,VWS V14.00,2013-01-17 17:19:00,
2013-01-17 11:20:00,40.5,32.2,30.48,NW,323,5.0,10.0,72,0.00,,---,0.00,VWS V14.00,2013-01-17 17:20:00,
2013-01-17 11:21:00,40.5,32.2,30.48,NW,326,7.0,11.0,72,0.00,,---,0.00,VWS V14.00,2013-01-17 17:21:00,
2013-01-17 11:22:00,40.5,32.2,30.48,NW,326,4.0,7.0,72,0.00,,---,0.00,VWS V14.00,2013-01-17 17:22:00,
2013-01-17 11:23:00,40.5,32.2,30.48,NW,326,9.0,11.0,72,0.00,,---,0.00,VWS V14.00,2013-01-17 17:23:00,
2013-01-17 11:24:00,40.5,32.2,30.48,NW,326,7.0,9.0,72,0.00,,---,0.00,VWS V14.00,2013-01-17 17:24:00,
2013-01-17 11:25:00,40.5,32.2,30.48,NW,326,4.0,7.0,72,0.00,,---,0.00,VWS V14.00,2013-01-17 17:25:00,
2013-01-17 11:26:00,40.5,32.2,30.48,NW,326,5.0,10.0,72,0.00,,---,0.00,VWS V14.00,2013-01-17 17:26:00,
2013-01-17 11:27:00,40.5,32.2,30.48,NW,323,10.0,13.0,72,0.00,,---,0.00,VWS V14.00,2013-01-17 17:27:00,
2013-01-17 11:28:00,40.5,32.2,30.48,NNW,331,9.0,15.0,72,0.00,,---,0.00,VWS V14.00,2013-01-17 17:28:00,
2013-01-17 11:29:00,40.5,32.2,30.48,NNW,329,9.0,12.0,72,0.00,,---,0.00,VWS V14.00,2013-01-17 17:29:00,
2013-01-17 11:30:00,40.5,32.2,30.48,NW,323,6.0,13.0,72,0.00,,---,0.00,VWS V14.00,2013-01-17 17:30:00,
2013-01-17 11:31:00,40.5,32.2,30.48,NW,322,6.0,11.0,72,0.00,,---,0.00,VWS V14.00,2013-01-17 17:31:00,
2013-01-17 11:32:00,40.3,32.0,30.48,NNW,337,11.0,15.0,72,0.00,,---,0.00,VWS V14.00,2013-01-17 17:32:00,
2013-01-17 11:33:00,40.5,32.2,30.48,NW,323,11.0,13.0,72,0.00,,---,0.00,VWS V14.00,2013-01-17 17:33:00,
2013-01-17 11:34:00,40.3,32.0,30.48,NW,314,15.0,15.0,72,0.00,,---,0.00,VWS V14.00,2013-01-17 17:34:00,
2013-01-17 11:35:00,40.2,31.9,30.48,NW,321,11.0,15.0,72,0.00,,---,0.00,VWS V14.00,2013-01-17 17:35:00,
2013-01-17 11:36:00,40.2,31.9,30.48,NW,316,9.0,14.0,72,0.00,,---,0.00,VWS V14.00,2013-01-17 17:36:00,
2013-01-17 11:37:00,40.2,31.9,30.48,NW,322,10.0,11.0,72,0.00,,---,0.00,VWS V14.00,2013-01-17 17:37:00,
2013-01-17 11:38:00,40.2,31.9,30.48,NNW,327,10.0,15.0,72,0.00,,---,0.00,VWS V14.00,2013-01-17 17:38:00,
2013-01-17 11:39:00,40.2,31.9,30.48,NW,319,5.0,11.0,72,0.00,,---,0.00,VWS V14.00,2013-01-17 17:39:00,
2013-01-17 11:40:00,40.2,31.9,30.48,NW,322,9.0,11.0,72,0.00,,---,0.00,VWS V14.00,2013-01-17 17:40:00,
2013-01-17 11:41:00,40.2,31.9,30.48,NW,324,11.0,13.0,72,0.00,,---,0.00,VWS V14.00,2013-01-17 17:41:00,
2013-01-17 11:42:00,40.3,32.0,30.47,NW,316,10.0,10.0,72,0.00,,---,0.00,VWS V14.00,2013-01-17 17:42:00,
2013-01-17 11:43:00,40.3,32.0,30.48,NW,315,12.0,12.0,72,0.00,,---,0.00,VWS V14.00,2013-01-17 17:43:00,
2013-01-17 11:44:00,40.3,32.0,30.47,NW,319,10.0,15.0,72,0.00,,---,0.00,VWS V14.00,2013-01-17 17:44:00,
2013-01-17 11:45:00,40.3,32.0,30.47,NW,312,10.0,10.0,72,0.00,,---,0.00,VWS V14.00,2013-01-17 17:45:00,
2013-01-17 11:46:00,40.5,32.2,30.47,NW,315,10.0,13.0,72,0.00,,---,0.00,VWS V14.00,2013-01-17 17:46:00,
2013-01-17 11:47:00,40.5,32.2,30.47,NW,317,8.0,12.0,72,0.00,,---,0.00,VWS V14.00,2013-01-17 17:47:00,
2013-01-17 11:48:00,40.5,32.2,30.47,NW,313,5.0,13.0,72,0.00,,---,0.00,VWS V14.00,2013-01-17 17:48:00,
2013-01-17 11:49:00,40.5,32.2,30.47,NW,314,6.0,12.0,72,0.00,,---,0.00,VWS V14.00,2013-01-17 17:49:00,
2013-01-17 11:50:00,40.5,32.2,30.47,NW,308,11.0,14.0,72,0.00,,---,0.00,VWS V14.00,2013-01-17 17:50:00,
2013-01-17 11:51:00,40.6,32.3,30.47,NW,315,11.0,14.0,72,0.00,,---,0.00,VWS V14.00,2013-01-17 17:51:00,
2013-01-17 11:52:00,40.6,32.0,30.47,NNW,336,7.0,12.0,71,0.00,,---,0.00,VWS V14.00,2013-01-17 17:52:00,
2013-01-17 11:53:00,40.6,32.0,30.47,NNW,331,10.0,15.0,71,0.00,,---,0.00,VWS V14.00,2013-01-17 17:53:00,
2013-01-17 11:54:00,40.6,32.0,30.47,NNW,341,8.0,12.0,71,0.00,,---,0.00,VWS V14.00,2013-01-17 17:54:00,
2013-01-17 11:55:00,40.6,32.0,30.47,NNW,327,10.0,12.0,71,0.00,,---,0.00,VWS V14.00,2013-01-17 17:55:00,
2013-01-17 11:56:00,40.6,32.0,30.47,NNW,336,14.0,15.0,71,0.00,,---,0.00,VWS V14.00,2013-01-17 17:56:00,
2013-01-17 11:57:00,40.6,32.0,30.47,NW,321,13.0,15.0,71,0.00,,---,0.00,VWS V14.00,2013-01-17 17:57:00,
2013-01-17 11:58:00,40.6,32.3,30.47,NNW,333,11.0,11.0,72,0.00,,---,0.00,VWS V14.00,2013-01-17 17:58:00,
2013-01-17 11:59:00,40.6,32.0,30.47,NNW,328,15.0,16.0,71,0.00,,---,0.00,VWS V14.00,2013-01-17 17:59:00,
2013-01-17 12:00:00,40.6,32.0,30.47,NW,321,12.0,15.0,71,0.00,,---,0.00,VWS V14.00,2013-01-17 18:00:00,
2013-01-17 12:01:00,40.6,32.0,30.47,NW,321,9.0,12.0,71,0.00,,---,0.00,VWS V14.00,2013-01-17 18:01:00,
2013-01-17 12:02:00,40.6,32.0,30.47,NW,305,11.0,12.0,71,0.00,,---,0.00,VWS V14.00,2013-01-17 18:02:00,
2013-01-17 12:03:00,40.6,32.0,30.47,NW,320,9.0,13.0,71,0.00,,---,0.00,VWS V14.00,2013-01-17 18:03:00,
2013-01-17 12:04:00,40.6,32.0,30.47,NW,312,12.0,13.0,71,0.00,,---,0.00,VWS V14.00,2013-01-17 18:04:00,
2013-01-17 12:05:00,40.8,32.1,30.46,NW,305,7.0,12.0,71,0.00,,---,0.00,VWS V14.00,2013-01-17 18:05:00,
2013-01-17 12:06:00,40.8,32.1,30.46,NW,317,11.0,14.0,71,0.00,,---,0.00,VWS V14.00,2013-01-17 18:06:00,
2013-01-17 12:07:00,40.9,32.2,30.46,NW,315,12.0,16.0,71,0.00,,---,0.00,VWS V14.00,2013-01-17 18:07:00,
2013-01-17 12:08:00,40.9,32.2,30.46,NW,323,10.0,12.0,71,0.00,,---,0.00,VWS V14.00,2013-01-17 18:08:00,
2013-01-17 12:09:00,40.9,32.2,30.46,NW,315,10.0,15.0,71,0.00,,---,0.00,VWS V14.00,2013-01-17 18:09:00,
2013-01-17 12:10:00,40.9,32.2,30.46,NW,318,11.0,16.0,71,0.00,,---,0.00,VWS V14.00,2013-01-17 18:10:00,
2013-01-17 12:11:00,40.9,31.9,30.46,NNW,340,5.0,13.0,70,0.00,,---,0.00,VWS V14.00,2013-01-17 18:11:00,
2013-01-17 12:12:00,40.9,32.2,30.46,NW,304,9.0,11.0,71,0.00,,---,0.00,VWS V14.00,2013-01-17 18:12:00,
2013-01-17 12:13:00,40.9,31.9,30.46,NNW,332,6.0,10.0,70,0.00,,---,0.00,VWS V14.00,2013-01-17 18:13:00,
2013-01-17 12:14:00,40.9,32.2,30.46,NNW,327,8.0,11.0,71,0.00,,---,0.00,VWS V14.00,2013-01-17 18:14:00,
2013-01-17 12:15:00,41.1,32.4,30.46,NW,314,10.0,11.0,71,0.00,,---,0.00,VWS V14.00,2013-01-17 18:15:00,
2013-01-17 12:16:00,41.1,32.1,30.46,NW,312,10.0,13.0,70,0.00,,---,0.00,VWS V14.00,2013-01-17 18:16:00,
2013-01-17 12:17:00,41.2,32.2,30.46,NW,319,9.0,12.0,70,0.00,,---,0.00,VWS V14.00,2013-01-17 18:17:00,
2013-01-17 12:18:00,41.2,32.2,30.46,NNW,329,13.0,13.0,70,0.00,,---,0.00,VWS V14.00,2013-01-17 18:18:00,
2013-01-17 12:19:00,41.2,32.2,30.46,NNW,329,7.0,13.0,70,0.00,,---,0.00,VWS V14.00,2013-01-17 18:19:00,
2013-01-17 12:20:00,41.2,32.2,30.47,NW,319,7.0,12.0,70,0.00,,---,0.00,VWS V14.00,2013-01-17 18:20:00,
2013-01-17 12:21:00,41.1,32.1,30.46,NW,316,12.0,14.0,70,0.00,,---,0.00,VWS V14.00,2013-01-17 18:21:00,
2013-01-17 12:22:00,41.1,31.7,30.47,NW,324,9.0,10.0,69,0.00,,---,0.00,VWS V14.00,2013-01-17 18:22:00,
2013-01-17 12:23:00,41.1,31.7,30.46,NNW,332,13.0,14.0,69,0.00,,---,0.00,VWS V14.00,2013-01-17 18:23:00,
2013-01-17 12:24:00,41.1,31.7,30.47,NW,325,10.0,14.0,69,0.00,,---,0.00,VWS V14.00,2013-01-17 18:24:00,
2013-01-17 12:25:00,41.1,32.1,30.47,NW,325,10.0,10.0,70,0.00,,---,0.00,VWS V14.00,2013-01-17 18:25:00,
2013-01-17 12:26:00,41.1,32.1,30.46,NW,325,13.0,13.0,70,0.00,,---,0.00,VWS V14.00,2013-01-17 18:26:00,
2013-01-17 12:27:00,41.1,31.7,30.46,NNW,333,9.0,13.0,69,0.00,,---,0.00,VWS V14.00,2013-01-17 18:27:00,
2013-01-17 12:28:00,41.1,31.7,30.46,NW,313,11.0,14.0,69,0.00,,---,0.00,VWS V14.00,2013-01-17 18:28:00,
2013-01-17 12:29:00,41.1,31.7,30.46,NW,324,11.0,12.0,69,0.00,,---,0.00,VWS V14.00,2013-01-17 18:29:00,
2013-01-17 12:30:00,41.1,31.7,30.46,NNW,329,6.0,13.0,69,0.00,,---,0.00,VWS V14.00,2013-01-17 18:30:00,
2013-01-17 12:31:00,41.1,31.7,30.46,NW,320,7.0,11.0,69,0.00,,---,0.00,VWS V14.00,2013-01-17 18:31:00,
2013-01-17 12:32:00,41.1,31.7,30.46,NW,321,10.0,10.0,69,0.00,,---,0.00,VWS V14.00,2013-01-17 18:32:00,
2013-01-17 12:33:00,41.2,31.8,30.46,NW,317,7.0,11.0,69,0.00,,---,0.00,VWS V14.00,2013-01-17 18:33:00,
2013-01-17 12:34:00,41.2,31.8,30.46,NW,317,4.0,12.0,69,0.00,,---,0.00,VWS V14.00,2013-01-17 18:34:00,
2013-01-17 12:35:00,41.2,31.8,30.46,NW,317,7.0,11.0,69,0.00,,---,0.00,VWS V14.00,2013-01-17 18:35:00,
2013-01-17 12:36:00,41.3,31.9,30.46,NW,317,9.0,10.0,69,0.00,,---,0.00,VWS V14.00,2013-01-17 18:36:00,
2013-01-17 12:37:00,41.6,31.8,30.46,NW,315,11.0,12.0,68,0.00,,---,0.00,VWS V14.00,2013-01-17 18:37:00,
2013-01-17 12:38:00,41.5,32.1,30.46,NW,311,7.0,13.0,69,0.00,,---,0.00,VWS V14.00,2013-01-17 18:38:00,
2013-01-17 12:39:00,41.6,31.8,30.46,NW,313,10.0,11.0,68,0.00,,---,0.00,VWS V14.00,2013-01-17 18:39:00,
2013-01-17 12:40:00,41.6,31.8,30.46,NW,315,9.0,12.0,68,0.00,,---,0.00,VWS V14.00,2013-01-17 18:40:00,
2013-01-17 12:41:00,41.6,31.8,30.46,NW,315,7.0,11.0,68,0.00,,---,0.00,VWS V14.00,2013-01-17 18:41:00,
2013-01-17 12:42:00,41.8,31.7,30.46,NW,311,11.0,12.0,67,0.00,,---,0.00,VWS V14.00,2013-01-17 18:42:00,
2013-01-17 12:43:00,41.6,31.8,30.46,NW,311,9.0,13.0,68,0.00,,---,0.00,VWS V14.00,2013-01-17 18:43:00,
2013-01-17 12:44:00,41.8,32.0,30.46,NW,311,4.0,11.0,68,0.00,,---,0.00,VWS V14.00,2013-01-17 18:44:00,
2013-01-17 12:45:00,41.9,31.8,30.46,NW,311,10.0,12.0,67,0.00,,---,0.00,VWS V14.00,2013-01-17 18:45:00,
2013-01-17 12:46:00,41.9,31.8,30.47,NW,309,12.0,12.0,67,0.00,,---,0.00,VWS V14.00,2013-01-17 18:46:00,
2013-01-17 12:47:00,42.1,32.0,30.46,NW,309,6.0,7.0,67,0.00,,---,0.00,VWS V14.00,2013-01-17 18:47:00,
2013-01-17 12:48:00,42.1,32.0,30.47,NW,309,7.0,10.0,67,0.00,,---,0.00,VWS V14.00,2013-01-17 18:48:00,
2013-01-17 12:49:00,42.1,31.6,30.46,NW,309,7.0,9.0,66,0.00,,---,0.00,VWS V14.00,2013-01-17 18:49:00,
2013-01-17 12:50:00,42.1,32.0,30.46,NW,309,6.0,7.0,67,0.00,,---,0.00,VWS V14.00,2013-01-17 18:50:00,
2013-01-17 12:51:00,42.1,31.6,30.46,NW,314,7.0,9.0,66,0.00,,---,0.00,VWS V14.00,2013-01-17 18:51:00,
2013-01-17 12:52:00,42.2,31.7,30.46,NW,311,6.0,9.0,66,0.00,,---,0.00,VWS V14.00,2013-01-17 18:52:00,
2013-01-17 12:53:00,42.2,31.7,30.46,NW,313,11.0,12.0,66,0.00,,---,0.00,VWS V14.00,2013-01-17 18:53:00,
2013-01-17 12:54:00,42.2,31.7,30.46,NW,310,5.0,12.0,66,0.00,,---,0.00,VWS V14.00,2013-01-17 18:54:00,
2013-01-17 12:55:00,42.2,31.7,30.46,NW,311,6.0,9.0,66,0.00,,---,0.00,VWS V14.00,2013-01-17 18:55:00,
2013-01-17 12:56:00,42.2,31.7,30.46,NW,319,9.0,13.0,66,0.00,,---,0.00,VWS V14.00,2013-01-17 18:56:00,
2013-01-17 12:57:00,42.3,31.8,30.46,NW,322,10.0,12.0,66,0.00,,---,0.00,VWS V14.00,2013-01-17 18:57:00,
2013-01-17 12:58:00,42.2,31.7,30.46,NW,321,10.0,11.0,66,0.00,,---,0.00,VWS V14.00,2013-01-17 18:58:00,
2013-01-17 12:59:00,42.2,31.7,30.46,NW,320,9.0,10.0,66,0.00,,---,0.00,VWS V14.00,2013-01-17 18:59:00,
2013-01-17 13:00:00,42.3,31.8,30.46,NW,322,9.0,12.0,66,0.00,,---,0.00,VWS V14.00,2013-01-17 19:00:00,
2013-01-17 13:01:00,42.3,31.4,30.46,NW,321,12.0,13.0,65,0.00,,---,0.00,VWS V14.00,2013-01-17 19:01:00,
2013-01-17 13:02:00,42.3,31.4,30.46,NW,321,11.0,13.0,65,0.00,,---,0.00,VWS V14.00,2013-01-17 19:02:00,
2013-01-17 13:03:00,42.3,31.0,30.46,NW,315,5.0,9.0,64,0.00,,---,0.00,VWS V14.00,2013-01-17 19:03:00,
2013-01-17 13:04:00,42.3,31.4,30.46,NW,315,7.0,15.0,65,0.00,,---,0.00,VWS V14.00,2013-01-17 19:04:00,
2013-01-17 13:05:00,42.3,31.0,30.46,NW,315,12.0,12.0,64,0.00,,---,0.00,VWS V14.00,2013-01-17 19:05:00,
2013-01-17 13:06:00,42.3,31.4,30.46,NW,315,10.0,13.0,65,0.00,,---,0.00,VWS V14.00,2013-01-17 19:06:00,
2013-01-17 13:07:00,42.3,31.4,30.46,NNW,337,9.0,11.0,65,0.00,,---,0.00,VWS V14.00,2013-01-17 19:07:00,
2013-01-17 13:08:00,42.3,31.0,30.46,NW,321,9.0,10.0,64,0.00,,---,0.00,VWS V14.00,2013-01-17 19:08:00,
2013-01-17 13:09:00,42.3,31.4,30.46,NW,321,9.0,10.0,65,0.00,,---,0.00,VWS V14.00,2013-01-17 19:09:00,
2013-01-17 13:10:00,42.3,31.4,30.46,NNW,337,5.0,11.0,65,0.00,,---,0.00,VWS V14.00,2013-01-17 19:10:00,
2013-01-17 13:11:00,42.3,31.4,30.46,NNW,329,7.0,12.0,65,0.00,,---,0.00,VWS V14.00,2013-01-17 19:11:00,
2013-01-17 13:12:00,42.5,30.8,30.47,NNW,327,11.0,15.0,63,0.00,,---,0.00,VWS V14.00,2013-01-17 19:12:00,
2013-01-17 13:13:00,42.5,31.6,30.46,NW,311,10.0,13.0,65,0.00,,---,0.00,VWS V14.00,2013-01-17 19:13:00,
2013-01-17 13:14:00,42.5,31.2,30.46,NW,312,14.0,14.0,64,0.00,,---,0.00,VWS V14.00,2013-01-17 19:14:00,
2013-01-17 13:15:00,42.5,30.8,30.47,NNW,329,10.0,15.0,63,0.00,,---,0.00,VWS V14.00,2013-01-17 19:15:00,
2013-01-17 13:16:00,42.5,30.8,30.47,NNW,328,10.0,12.0,63,0.00,,---,0.00,VWS V14.00,2013-01-17 19:16:00,
2013-01-17 13:17:00,42.8,31.1,30.46,NW,321,8.0,13.0,63,0.00,,---,0.00,VWS V14.00,2013-01-17 19:17:00,
2013-01-17 13:18:00,42.6,30.9,30.46,NW,318,8.0,10.0,63,0.00,,---,0.00,VWS V14.00,2013-01-17 19:18:00,
2013-01-17 13:19:00,42.8,31.1,30.46,NNW,336,10.0,14.0,63,0.00,,---,0.00,VWS V14.00,2013-01-17 19:19:00,
2013-01-17 13:20:00,42.8,31.1,30.46,NW,321,11.0,13.0,63,0.00,,---,0.00,VWS V14.00,2013-01-17 19:20:00,
2013-01-17 13:21:00,42.8,31.1,30.46,NNW,329,11.0,14.0,63,0.00,,---,0.00,VWS V14.00,2013-01-17 19:21:00,
2013-01-17 13:22:00,42.9,30.8,30.46,NW,316,11.0,14.0,62,0.00,,---,0.00,VWS V14.00,2013-01-17 19:22:00,
2013-01-17 13:23:00,42.9,31.2,30.46,NW,306,16.0,16.0,63,0.00,,---,0.00,VWS V14.00,2013-01-17 19:23:00,
2013-01-17 13:24:00,42.9,30.8,30.46,NW,320,14.0,16.0,62,0.00,,---,0.00,VWS V14.00,2013-01-17 19:24:00,
2013-01-17 13:25:00,42.9,30.8,30.46,NW,317,13.0,14.0,62,0.00,,---,0.00,VWS V14.00,2013-01-17 19:25:00,
2013-01-17 13:26:00,42.9,30.8,30.46,NNW,329,14.0,15.0,62,0.00,,---,0.00,VWS V14.00,2013-01-17 19:26:00,
2013-01-17 13:27:00,42.9,30.8,30.46,NW,324,9.0,11.0,62,0.00,,---,0.00,VWS V14.00,2013-01-17 19:27:00,
2013-01-17 13:28:00,42.9,30.4,30.46,NW,317,10.0,14.0,61,0.00,,---,0.00,VWS V14.00,2013-01-17 19:28:00,
2013-01-17 13:29:00,42.9,30.8,30.46,NW,323,10.0,16.0,62,0.00,,---,0.00,VWS V14.00,2013-01-17 19:29:00,
2013-01-17 13:30:00,42.9,30.8,30.46,NW,321,11.0,11.0,62,0.00,,---,0.00,VWS V14.00,2013-01-17 19:30:00,
2013-01-17 13:31:00,43.1,31.0,30.46,NNW,338,14.0,14.0,62,0.00,,---,0.00,VWS V14.00,2013-01-17 19:31:00,
2013-01-17 13:32:00,43.1,31.0,30.46,NNW,335,14.0,15.0,62,0.00,,---,0.00,VWS V14.00,2013-01-17 19:32:00,
2013-01-17 13:33:00,43.1,31.0,30.46,NW,326,6.0,15.0,62,0.00,,---,0.00,VWS V14.00,2013-01-17 19:33:00,
2013-01-17 13:34:00,43.1,31.0,30.46,NW,323,9.0,13.0,62,0.00,,---,0.00,VWS V14.00,2013-01-17 19:34:00,
2013-01-17 13:35:00,43.2,31.1,30.46,NNW,333,14.0,15.0,62,0.00,,---,0.00,VWS V14.00,2013-01-17 19:35:00,
2013-01-17 13:36:00,43.2,30.7,30.46,NNW,345,13.0,16.0,61,0.00,,---,0.00,VWS V14.00,2013-01-17 19:36:00,
2013-01-17 13:37:00,43.2,30.7,30.46,NW,324,8.0,15.0,61,0.00,,---,0.00,VWS V14.00,2013-01-17 19:37:00,
2013-01-17 13:38:00,43.2,30.7,30.46,NW,322,13.0,16.0,61,0.00,,---,0.00,VWS V14.00,2013-01-17 19:38:00,
2013-01-17 13:39:00,43.2,30.7,30.46,NNW,342,13.0,16.0,61,0.00,,---,0.00,VWS V14.00,2013-01-17 19:39:00,
2013-01-17 13:40:00,43.2,30.7,30.46,NW,326,9.0,15.0,61,0.00,,---,0.00,VWS V14.00,2013-01-17 19:40:00,
2013-01-17 13:41:00,43.2,30.7,30.46,North,355,11.0,15.0,61,0.00,,---,0.00,VWS V14.00,2013-01-17 19:41:00,
2013-01-17 13:42:00,43.3,30.8,30.46,NNW,340,7.0,10.0,61,0.00,,---,0.00,VWS V14.00,2013-01-17 19:42:00,
2013-01-17 13:43:00,43.3,30.8,30.46,NNW,338,11.0,14.0,61,0.00,,---,0.00,VWS V14.00,2013-01-17 19:43:00,
2013-01-17 13:44:00,43.3,30.8,30.46,NNW,342,5.0,14.0,61,0.00,,---,0.00,VWS V14.00,2013-01-17 19:44:00,
2013-01-17 13:45:00,43.3,30.8,30.46,NNW,341,13.0,13.0,61,0.00,,---,0.00,VWS V14.00,2013-01-17 19:45:00,
2013-01-17 13:46:00,43.5,31.0,30.46,NNW,340,13.0,14.0,61,0.00,,---,0.00,VWS V14.00,2013-01-17 19:46:00,
2013-01-17 13:47:00,43.8,30.8,30.46,NW,320,12.0,13.0,60,0.00,,---,0.00,VWS V14.00,2013-01-17 19:47:00,
2013-01-17 13:48:00,43.6,31.0,30.46,NW,326,5.0,8.0,61,0.00,,---,0.00,VWS V14.00,2013-01-17 19:48:00,
2013-01-17 13:49:00,43.6,30.6,30.46,NW,321,6.0,13.0,60,0.00,,---,0.00,VWS V14.00,2013-01-17 19:49:00,
2013-01-17 13:50:00,43.8,30.8,30.46,NW,316,14.0,14.0,60,0.00,,---,0.00,VWS V14.00,2013-01-17 19:50:00,
2013-01-17 13:51:00,43.9,30.9,30.46,NW,310,13.0,14.0,60,0.00,,---,0.00,VWS V14.00,2013-01-17 19:51:00,
2013-01-17 13:52:00,43.9,30.5,30.46,NW,321,10.0,13.0,59,0.00,,---,0.00,VWS V14.00,2013-01-17 19:52:00,
2013-01-17 13:53:00,43.9,30.5,30.46,NW,323,10.0,13.0,59,0.00,,---,0.00,VWS V14.00,2013-01-17 19:53:00,
2013-01-17 13:54:00,43.9,30.5,30.46,NW,323,13.0,14.0,59,0.00,,---,0.00,VWS V14.00,2013-01-17 19:54:00,
2013-01-17 13:55:00,43.9,30.5,30.46,NW,324,9.0,13.0,59,0.00,,---,0.00,VWS V14.00,2013-01-17 19:55:00,
2013-01-17 13:56:00,44.1,31.1,30.46,NNW,336,7.0,12.0,60,0.00,,---,0.00,VWS V14.00,2013-01-17 19:56:00,
2013-01-17 13:57:00,44.1,30.7,30.46,NW,312,11.0,12.0,59,0.00,,---,0.00,VWS V14.00,2013-01-17 19:57:00,
2013-01-17 13:58:00,44.1,31.1,30.46,NW,317,8.0,9.0,60,0.00,,---,0.00,VWS V14.00,2013-01-17 19:58:00,
2013-01-17 13:59:00,44.1,30.7,30.46,NW,315,14.0,14.0,59,0.00,,---,0.00,VWS V14.00,2013-01-17 19:59:00,
2013-01-17 14:00:00,44.1,30.7,30.46,NW,311,11.0,13.0,59,0.00,,---,0.00,VWS V14.00,2013-01-17 20:00:00,
2013-01-17 14:01:00,44.2,30.8,30.46,NNW,339,12.0,14.0,59,0.00,,---,0.00,VWS V14.00,2013-01-17 20:01:00,
2013-01-17 14:02:00,44.2,30.4,30.46,NW,316,12.0,17.0,58,0.00,,---,0.00,VWS V14.00,2013-01-17 20:02:00,
2013-01-17 14:03:00,44.2,30.4,30.46,NW,305,13.0,14.0,58,0.00,,---,0.00,VWS V14.00,2013-01-17 20:03:00,
2013-01-17 14:04:00,44.2,30.4,30.46,NW,321,13.0,14.0,58,0.00,,---,0.00,VWS V14.00,2013-01-17 20:04:00,
2013-01-17 14:05:00,44.3,30.5,30.46,NW,323,15.0,17.0,58,0.00,,---,0.00,VWS V14.00,2013-01-17 20:05:00,
2013-01-17 14:06:00,44.3,30.5,30.46,NW,309,11.0,15.0,58,0.00,,---,0.00,VWS V14.00,2013-01-17 20:06:00,
2013-01-17 14:07:00,44.3,30.5,30.46,NNW,344,6.0,10.0,58,0.00,,---,0.00,VWS V14.00,2013-01-17 20:07:00,
2013-01-17 14:08:00,44.3,30.5,30.46,North,355,9.0,14.0,58,0.00,,---,0.00,VWS V14.00,2013-01-17 20:08:00,
2013-01-17 14:09:00,44.3,30.5,30.46,North,350,10.0,12.0,58,0.00,,---,0.00,VWS V14.00,2013-01-17 20:09:00,
2013-01-17 14:10:00,44.3,30.5,30.46,NNW,344,13.0,14.0,58,0.00,,---,0.00,VWS V14.00,2013-01-17 20:10:00,
2013-01-17 14:11:00,44.3,30.5,30.46,NW,319,11.0,16.0,58,0.00,,---,0.00,VWS V14.00,2013-01-17 20:11:00,
2013-01-17 14:12:00,44.5,30.7,30.46,NNW,344,10.0,12.0,58,0.00,,---,0.00,VWS V14.00,2013-01-17 20:12:00,
2013-01-17 14:13:00,44.5,30.7,30.46,NW,309,12.0,13.0,58,0.00,,---,0.00,VWS V14.00,2013-01-17 20:13:00,
2013-01-17 14:14:00,44.5,30.7,30.46,NNW,336,9.0,16.0,58,0.00,,---,0.00,VWS V14.00,2013-01-17 20:14:00,
2013-01-17 14:15:00,44.5,30.7,30.46,NNW,333,9.0,12.0,58,0.00,,---,0.00,VWS V14.00,2013-01-17 20:15:00,
2013-01-17 14:16:00,44.5,30.2,30.46,NW,326,8.0,11.0,57,0.00,,---,0.00,VWS V14.00,2013-01-17 20:16:00,
2013-01-17 14:17:00,44.3,30.5,30.46,NNW,345,6.0,6.0,58,0.00,,---,0.00,VWS V14.00,2013-01-17 20:17:00,
2013-01-17 14:18:00,44.3,30.0,30.46,NNW,347,4.0,11.0,57,0.00,,---,0.00,VWS V14.00,2013-01-17 20:18:00,
2013-01-17 14:19:00,44.3,30.5,30.46,NNW,345,6.0,7.0,58,0.00,,---,0.00,VWS V14.00,2013-01-17 20:19:00,
2013-01-17 14:20:00,44.3,30.5,30.46,NNW,345,6.0,6.0,58,0.00,,---,0.00,VWS V14.00,2013-01-17 20:20:00,
2013-01-17 14:21:00,44.3,30.5,30.46,NNW,344,6.0,10.0,58,0.00,,---,0.00,VWS V14.00,2013-01-17 20:21:00,
2013-01-17 14:22:00,44.5,30.7,30.46,NNW,329,12.0,12.0,58,0.00,,---,0.00,VWS V14.00,2013-01-17 20:22:00,
2013-01-17 14:23:00,44.5,30.7,30.46,NNW,329,5.0,12.0,58,0.00,,---,0.00,VWS V14.00,2013-01-17 20:23:00,
2013-01-17 14:24:00,44.5,30.7,30.46,NW,316,10.0,12.0,58,0.00,,---,0.00,VWS V14.00,2013-01-17 20:24:00,
2013-01-17 14:25:00,44.6,30.8,30.46,NNW,329,11.0,12.0,58,0.00,,---,0.00,VWS V14.00,2013-01-17 20:25:00,
2013-01-17 14:26:00,44.6,30.8,30.46,NW,317,7.0,11.0,58,0.00,,---,0.00,VWS V14.00,2013-01-17 20:26:00,
2013-01-17 14:27:00,44.8,30.9,30.46,NW,308,10.0,12.0,58,0.00,,---,0.00,VWS V14.00,2013-01-17 20:27:00,
2013-01-17 14:28:00,44.8,30.9,30.46,NW,320,7.0,10.0,58,0.00,,---,0.00,VWS V14.00,2013-01-17 20:28:00,
2013-01-17 14:29:00,44.8,30.9,30.46,NW,319,7.0,9.0,58,0.00,,---,0.00,VWS V14.00,2013-01-17 20:29:00,
2013-01-17 14:30:00,44.8,30.9,30.46,NW,309,10.0,12.0,58,0.00,,---,0.00,VWS V14.00,2013-01-17 20:30:00,
2013-01-17 14:31:00,44.9,30.6,30.46,NW,309,5.0,10.0,57,0.00,,---,0.00,VWS V14.00,2013-01-17 20:31:00,
2013-01-17 14:32:00,44.9,30.6,30.45,NW,310,6.0,9.0,57,0.00,,---,0.00,VWS V14.00,2013-01-17 20:32:00,
2013-01-17 14:33:00,44.9,30.6,30.46,NW,309,10.0,11.0,57,0.00,,---,0.00,VWS V14.00,2013-01-17 20:33:00,
2013-01-17 14:34:00,44.9,30.6,30.45,NW,309,9.0,10.0,57,0.00,,---,0.00,VWS V14.00,2013-01-17 20:34:00,
2013-01-17 14:35:00,44.9,30.6,30.45,NW,311,6.0,9.0,57,0.00,,---,0.00,VWS V14.00,2013-01-17 20:35:00,
2013-01-17 14:36:00,44.9,30.6,30.45,NNE,15,5.0,10.0,57,0.00,,---,0.00,VWS V14.00,2013-01-17 20:36:00,
2013-01-17 14:37:00,44.9,30.2,30.45,NNW,348,7.0,9.0,56,0.00,,---,0.00,VWS V14.00,2013-01-17 20:37:00,
2013-01-17 14:38:00,45.1,30.8,30.46,North,349,10.0,13.0,57,0.00,,---,0.00,VWS V14.00,2013-01-17 20:38:00,
2013-01-17 14:39:00,44.9,30.6,30.45,NNW,348,9.0,12.0,57,0.00,,---,0.00,VWS V14.00,2013-01-17 20:39:00,
2013-01-17 14:40:00,44.9,30.6,30.46,NW,322,8.0,10.0,57,0.00,,---,0.00,VWS V14.00,2013-01-17 20:40:00,
2013-01-17 14:41:00,44.9,30.6,30.46,NW,322,7.0,8.0,57,0.00,,---,0.00,VWS V14.00,2013-01-17 20:41:00,
2013-01-17 14:42:00,45.1,30.8,30.45,NNW,336,9.0,11.0,57,0.00,,---,0.00,VWS V14.00,2013-01-17 20:42:00,
2013-01-17 14:43:00,44.9,30.6,30.45,NW,323,7.0,10.0,57,0.00,,---,0.00,VWS V14.00,2013-01-17 20:43:00,
2013-01-17 14:44:00,44.9,30.6,30.45,NNW,336,11.0,11.0,57,0.00,,---,0.00,VWS V14.00,2013-01-17 20:44:00,
2013-01-17 14:45:00,45.1,30.8,30.45,NNW,337,11.0,11.0,57,0.00,,---,0.00,VWS V14.00,2013-01-17 20:45:00,
2013-01-17 14:46:00,45.1,30.4,30.45,NNW,336,9.0,12.0,56,0.00,,---,0.00,VWS V14.00,2013-01-17 20:46:00,
2013-01-17 14:47:00,45.2,30.5,30.45,NNW,327,9.0,9.0,56,0.00,,---,0.00,VWS V14.00,2013-01-17 20:47:00,
2013-01-17 14:48:00,45.1,30.8,30.46,NW,309,9.0,12.0,57,0.00,,---,0.00,VWS V14.00,2013-01-17 20:48:00,
2013-01-17 14:49:00,45.1,30.4,30.45,NW,309,9.0,12.0,56,0.00,,---,0.00,VWS V14.00,2013-01-17 20:49:00,
2013-01-17 14:50:00,45.2,30.5,30.45,NNW,327,10.0,10.0,56,0.00,,---,0.00,VWS V14.00,2013-01-17 20:50:00,
2013-01-17 14:51:00,45.2,30.5,30.45,NW,316,7.0,13.0,56,0.00,,---,0.00,VWS V14.00,2013-01-17 20:51:00,
2013-01-17 14:52:00,45.4,30.6,30.46,NW,319,5.0,7.0,56,0.00,,---,0.00,VWS V14.00,2013-01-17 20:52:00,
2013-01-17 14:53:00,45.2,30.9,30.45,NW,319,6.0,10.0,57,0.00,,---,0.00,VWS V14.00,2013-01-17 20:53:00,
2013-01-17 14:54:00,45.4,30.6,30.46,NW,319,2.0,6.0,56,0.00,,---,0.00,VWS V14.00,2013-01-17 20:54:00,
2013-01-17 14:55:00,45.4,30.6,30.45,NW,319,6.0,7.0,56,0.00,,---,0.00,VWS V14.00,2013-01-17 20:55:00,
2013-01-17 14:56:00,45.4,30.6,30.46,NW,319,6.0,8.0,56,0.00,,---,0.00,VWS V14.00,2013-01-17 20:56:00,
2013-01-17 14:57:00,45.5,30.7,30.46,NW,317,5.0,6.0,56,0.00,,---,0.00,VWS V14.00,2013-01-17 20:57:00,
2013-01-17 14:58:00,45.5,31.2,30.45,NW,317,9.0,10.0,57,0.00,,---,0.00,VWS V14.00,2013-01-17 20:58:00,
2013-01-17 14:59:00,45.5,30.7,30.46,NW,317,6.0,10.0,56,0.00,,---,0.00,VWS V14.00,2013-01-17 20:59:00,
2013-01-17 15:00:00,45.5,30.7,30.46,NW,317,7.0,10.0,56,0.00,,---,0.00,VWS V14.00,2013-01-17 21:00:00,
2013-01-17 15:01:00,45.7,30.9,30.46,NW,317,4.0,11.0,56,0.00,,---,0.00,VWS V14.00,2013-01-17 21:01:00,
2013-01-17 15:02:00,45.8,31.0,30.46,NNW,328,9.0,12.0,56,0.00,,---,0.00,VWS V14.00,2013-01-17 21:02:00,
2013-01-17 15:03:00,45.7,30.9,30.46,NW,312,8.0,12.0,56,0.00,,---,0.00,VWS V14.00,2013-01-17 21:03:00,
2013-01-17 15:04:00,45.8,31.0,30.46,NW,312,10.0,13.0,56,0.00,,---,0.00,VWS V14.00,2013-01-17 21:04:00,
2013-01-17 15:05:00,45.8,30.6,30.46,NNW,328,5.0,12.0,55,0.00,,---,0.00,VWS V14.00,2013-01-17 21:05:00,
2013-01-17 15:06:00,45.8,30.6,30.46,NNW,328,3.0,7.0,55,0.00,,---,0.00,VWS V14.00,2013-01-17 21:06:00,
2013-01-17 15:07:00,45.8,30.6,30.46,NW,319,7.0,11.0,55,0.00,,---,0.00,VWS V14.00,2013-01-17 21:07:00,
2013-01-17 15:08:00,45.8,30.6,30.46,NNW,332,10.0,10.0,55,0.00,,---,0.00,VWS V14.00,2013-01-17 21:08:00,
2013-01-17 15:09:00,45.8,30.6,30.46,NNW,331,6.0,11.0,55,0.00,,---,0.00,VWS V14.00,2013-01-17 21:09:00,
2013-01-17 15:10:00,45.8,30.6,30.46,NW,319,5.0,11.0,55,0.00,,---,0.00,VWS V14.00,2013-01-17 21:10:00,
2013-01-17 15:11:00,45.8,30.6,30.46,NW,319,6.0,7.0,55,0.00,,---,0.00,VWS V14.00,2013-01-17 21:11:00,
2013-01-17 15:12:00,46.0,30.8,30.46,NW,313,7.0,9.0,55,0.00,,---,0.00,VWS V14.00,2013-01-17 21:12:00,
2013-01-17 15:13:00,46.0,30.8,30.46,NW,313,7.0,10.0,55,0.00,,---,0.00,VWS V14.00,2013-01-17 21:13:00,
2013-01-17 15:14:00,46.0,30.8,30.46,NW,314,7.0,9.0,55,0.00,,---,0.00,VWS V14.00,2013-01-17 21:14:00,
2013-01-17 15:15:00,46.0,30.8,30.46,NW,313,4.0,9.0,55,0.00,,---,0.00,VWS V14.00,2013-01-17 21:15:00,
2013-01-17 15:16:00,46.0,30.8,30.46,NW,313,3.0,7.0,55,0.00,,---,0.00,VWS V14.00,2013-01-17 21:16:00,
2013-01-17 15:17:00,46.1,30.4,30.46,NW,313,10.0,11.0,54,0.00,,---,0.00,VWS V14.00,2013-01-17 21:17:00,
2013-01-17 15:18:00,46.1,30.9,30.46,NW,314,10.0,10.0,55,0.00,,---,0.00,VWS V14.00,2013-01-17 21:18:00,
2013-01-17 15:19:00,46.1,30.9,30.46,NW,317,6.0,12.0,55,0.00,,---,0.00,VWS V14.00,2013-01-17 21:19:00,
2013-01-17 15:20:00,46.1,30.4,30.46,NW,313,9.0,11.0,54,0.00,,---,0.00,VWS V14.00,2013-01-17 21:20:00,
2013-01-17 15:21:00,46.1,29.9,30.46,NNW,332,9.0,16.0,53,0.00,,---,0.00,VWS V14.00,2013-01-17 21:21:00,
2013-01-17 15:22:00,46.1,30.4,30.46,NNW,342,11.0,11.0,54,0.00,,---,0.00,VWS V14.00,2013-01-17 21:22:00,
2013-01-17 15:23:00,46.1,30.4,30.46,NNW,336,11.0,12.0,54,0.00,,---,0.00,VWS V14.00,2013-01-17 21:23:00,
2013-01-17 15:24:00,46.1,29.9,30.46,NNW,339,9.0,12.0,53,0.00,,---,0.00,VWS V14.00,2013-01-17 21:24:00,
2013-01-17 15:25:00,46.1,30.4,30.46,NNW,342,10.0,11.0,54,0.00,,---,0.00,VWS V14.00,2013-01-17 21:25:00,
2013-01-17 15:26:00,46.1,30.4,30.46,NNW,344,11.0,12.0,54,0.00,,---,0.00,VWS V14.00,2013-01-17 21:26:00,
2013-01-17 15:27:00,46.1,29.9,30.46,NW,319,7.0,11.0,53,0.00,,---,0.00,VWS V14.00,2013-01-17 21:27:00,
2013-01-17 15:28:00,46.1,29.9,30.46,NW,317,4.0,11.0,53,0.00,,---,0.00,VWS V14.00,2013-01-17 21:28:00,
2013-01-17 15:29:00,46.1,30.4,30.46,NW,317,11.0,11.0,54,0.00,,---,0.00,VWS V14.00,2013-01-17 21:29:00,
2013-01-17 15:30:00,46.1,29.9,30.46,NW,319,5.0,11.0,53,0.00,,---,0.00,VWS V14.00,2013-01-17 21:30:00,
2013-01-17 15:31:00,46.1,29.9,30.46,NW,319,5.0,11.0,53,0.00,,---,0.00,VWS V14.00,2013-01-17 21:31:00,
2013-01-17 15:32:00,46.2,30.5,30.46,NW,322,5.0,8.0,54,0.00,,---,0.00,VWS V14.00,2013-01-17 21:32:00,
2013-01-17 15:33:00,46.2,30.0,30.46,NW,321,10.0,10.0,53,0.00,,---,0.00,VWS V14.00,2013-01-17 21:33:00,
2013-01-17 15:34:00,46.2,30.5,30.46,NW,321,5.0,10.0,54,0.00,,---,0.00,VWS V14.00,2013-01-17 21:34:00,
2013-01-17 15:35:00,46.2,30.5,30.46,NW,322,4.0,8.0,54,0.00,,---,0.00,VWS V14.00,2013-01-17 21:35:00,
2013-01-17 15:36:00,46.2,30.0,30.46,NNW,328,5.0,9.0,53,0.00,,---,0.00,VWS V14.00,2013-01-17 21:36:00,
2013-01-17 15:37:00,46.2,29.6,30.47,NNW,333,14.0,14.0,52,0.00,,---,0.00,VWS V14.00,2013-01-17 21:37:00,
2013-01-17 15:38:00,46.2,30.0,30.47,NNW,332,9.0,14.0,53,0.00,,---,0.00,VWS V14.00,2013-01-17 21:38:00,
2013-01-17 15:39:00,46.2,29.6,30.47,NNW,341,12.0,14.0,52,0.00,,---,0.00,VWS V14.00,2013-01-17 21:39:00,
2013-01-17 15:40:00,46.2,29.6,30.47,NW,323,16.0,16.0,52,0.00,,---,0.00,VWS V14.00,2013-01-17 21:40:00,
2013-01-17 15:41:00,46.2,29.6,30.47,NNW,338,7.0,16.0,52,0.00,,---,0.00,VWS V14.00,2013-01-17 21:41:00,
2013-01-17 15:42:00,46.4,30.2,30.47,NNW,335,4.0,7.0,53,0.00,,---,0.00,VWS V14.00,2013-01-17 21:42:00,
2013-01-17 15:43:00,46.4,29.8,30.47,NNW,332,7.0,10.0,52,0.00,,---,0.00,VWS V14.00,2013-01-17 21:43:00,
2013-01-17 15:44:00,46.4,30.2,30.47,NNW,332,7.0,8.0,53,0.00,,---,0.00,VWS V14.00,2013-01-17 21:44:00,
2013-01-17 15:45:00,46.4,29.8,30.47,NNW,329,6.0,12.0,52,0.00,,---,0.00,VWS V14.00,2013-01-17 21:45:00,
2013-01-17 15:46:00,46.4,29.8,30.47,NNW,339,11.0,13.0,52,0.00,,---,0.00,VWS V14.00,2013-01-17 21:46:00,
2013-01-17 15:47:00,46.5,27.9,30.47,NNW,348,10.0,13.0,48,0.00,,---,0.00,VWS V14.00,2013-01-17 21:47:00,
2013-01-17 15:48:00,46.5,29.4,30.47,NNW,337,10.0,12.0,51,0.00,,---,0.00,VWS V14.00,2013-01-17 21:48:00,
2013-01-17 15:49:00,46.5,28.9,30.47,North,350,7.0,13.0,50,0.00,,---,0.00,VWS V14.00,2013-01-17 21:49:00,
2013-01-17 15:50:00,46.5,28.4,30.47,NNW,348,5.0,13.0,49,0.00,,---,0.00,VWS V14.00,2013-01-17 21:50:00,
2013-01-17 15:51:00,46.5,28.4,30.47,NNW,338,10.0,10.0,49,0.00,,---,0.00,VWS V14.00,2013-01-17 21:51:00,
2013-01-17 15:52:00,46.5,28.4,30.47,NW,325,12.0,14.0,49,0.00,,---,0.00,VWS V14.00,2013-01-17 21:52:00,
2013-01-17 15:53:00,46.5,27.9,30.47,NW,321,12.0,15.0,48,0.00,,---,0.00,VWS V14.00,2013-01-17 21:53:00,
2013-01-17 15:54:00,46.5,28.4,30.47,NNW,340,11.0,12.0,49,0.00,,---,0.00,VWS V14.00,2013-01-17 21:54:00,
2013-01-17 15:55:00,46.5,28.4,30.47,NNW,338,11.0,14.0,49,0.00,,---,0.00,VWS V14.00,2013-01-17 21:55:00,
2013-01-17 15:56:00,46.5,27.9,30.47,NW,319,12.0,15.0,48,0.00,,---,0.00,VWS V14.00,2013-01-17 21:56:00,
2013-01-17 15:57:00,46.5,27.9,30.47,NNW,334,10.0,16.0,48,0.00,,---,0.00,VWS V14.00,2013-01-17 21:57:00,
2013-01-17 15:58:00,46.5,27.9,30.47,NW,325,14.0,18.0,48,0.00,,---,0.00,VWS V14.00,2013-01-17 21:58:00,
2013-01-17 15:59:00,46.5,27.9,30.47,NNW,340,14.0,17.0,48,0.00,,---,0.00,VWS V14.00,2013-01-17 21:59:00,
2013-01-17 16:00:00,46.5,27.9,30.47,NNW,336,9.0,16.0,48,0.00,,---,0.00,VWS V14.00,2013-01-17 22:00:00,
2013-01-17 16:01:00,46.5,27.9,30.47,NNW,331,9.0,12.0,48,0.00,,---,0.00,VWS V14.00,2013-01-17 22:01:00,
2013-01-17 16:02:00,46.5,27.9,30.48,NNW,340,9.0,9.0,48,0.00,,---,0.00,VWS V14.00,2013-01-17 22:02:00,
2013-01-17 16:03:00,46.5,27.9,30.48,NNW,348,7.0,8.0,48,0.00,,---,0.00,VWS V14.00,2013-01-17 22:03:00,
2013-01-17 16:04:00,46.5,27.9,30.48,NNW,342,6.0,9.0,48,0.00,,---,0.00,VWS V14.00,2013-01-17 22:04:00,
2013-01-17 16:05:00,46.5,27.9,30.48,NW,324,9.0,9.0,48,0.00,,---,0.00,VWS V14.00,2013-01-17 22:05:00,
2013-01-17 16:06:00,46.5,27.9,30.48,NW,315,11.0,16.0,48,0.00,,---,0.00,VWS V14.00,2013-01-17 22:06:00,
2013-01-17 16:07:00,46.5,27.9,30.48,NW,321,10.0,10.0,48,0.00,,---,0.00,VWS V14.00,2013-01-17 22:07:00,
2013-01-17 16:08:00,46.5,27.9,30.48,NNW,332,11.0,14.0,48,0.00,,---,0.00,VWS V14.00,2013-01-17 22:08:00,
2013-01-17 16:09:00,46.5,27.9,30.48,NW,322,10.0,12.0,48,0.00,,---,0.00,VWS V14.00,2013-01-17 22:09:00,
2013-01-17 16:10:00,46.5,27.9,30.48,NW,318,9.0,12.0,48,0.00,,---,0.00,VWS V14.00,2013-01-17 22:10:00,
2013-01-17 16:11:00,46.4,27.3,30.48,NW,321,12.0,13.0,47,0.00,,---,0.00,VWS V14.00,2013-01-17 22:11:00,
2013-01-17 16:12:00,46.4,27.8,30.48,NNW,327,7.0,9.0,48,0.00,,---,0.00,VWS V14.00,2013-01-17 22:12:00,
2013-01-17 16:13:00,46.4,27.8,30.48,NW,324,9.0,13.0,48,0.00,,---,0.00,VWS V14.00,2013-01-17 22:13:00,
2013-01-17 16:14:00,46.4,27.8,30.48,NNW,327,9.0,10.0,48,0.00,,---,0.00,VWS V14.00,2013-01-17 22:14:00,
2013-01-17 16:15:00,46.4,27.3,30.48,NNW,327,6.0,9.0,47,0.00,,---,0.00,VWS V14.00,2013-01-17 22:15:00,
2013-01-17 16:16:00,46.4,27.3,30.48,NW,316,12.0,13.0,47,0.00,,---,0.00,VWS V14.00,2013-01-17 22:16:00,
2013-01-17 16:17:00,46.2,26.6,30.48,NNW,331,10.0,11.0,46,0.00,,---,0.00,VWS V14.00,2013-01-17 22:17:00,
2013-01-17 16:18:00,46.4,26.8,30.48,NW,321,9.0,14.0,46,0.00,,---,0.00,VWS V14.00,2013-01-17 22:18:00,
2013-01-17 16:19:00,46.2,26.6,30.48,NNW,338,10.0,12.0,46,0.00,,---,0.00,VWS V14.00,2013-01-17 22:19:00,
2013-01-17 16:20:00,46.2,26.6,30.48,NNW,329,6.0,11.0,46,0.00,,---,0.00,VWS V14.00,2013-01-17 22:20:00,
2013-01-17 16:21:00,46.2,26.6,30.48,NW,319,10.0,12.0,46,0.00,,---,0.00,VWS V14.00,2013-01-17 22:21:00,
2013-01-17 16:22:00,46.2,26.6,30.48,NNW,329,2.0,5.0,46,0.00,,---,0.00,VWS V14.00,2013-01-17 22:22:00,
2013-01-17 16:23:00,46.2,26.0,30.48,NNW,329,5.0,10.0,45,0.00,,---,0.00,VWS V14.00,2013-01-17 22:23:00,
2013-01-17 16:24:00,46.2,26.0,30.48,NNW,329,5.0,5.0,45,0.00,,---,0.00,VWS V14.00,2013-01-17 22:24:00,
2013-01-17 16:25:00,46.2,26.6,30.48,NNW,329,2.0,5.0,46,0.00,,---,0.00,VWS V14.00,2013-01-17 22:25:00,
2013-01-17 16:26:00,46.2,26.6,30.48,NNW,329,5.0,6.0,46,0.00,,---,0.00,VWS V14.00,2013-01-17 22:26:00,
2013-01-17 16:27:00,46.2,27.1,30.48,NNW,330,5.0,8.0,47,0.00,,---,0.00,VWS V14.00,2013-01-17 22:27:00,
2013-01-17 16:28:00,46.2,26.6,30.48,NNW,329,4.0,10.0,46,0.00,,---,0.00,VWS V14.00,2013-01-17 22:28:00,
2013-01-17 16:29:00,46.2,26.6,30.48,NNW,330,3.0,6.0,46,0.00,,---,0.00,VWS V14.00,2013-01-17 22:29:00,
2013-01-17 16:30:00,46.2,27.1,30.48,NNW,330,8.0,8.0,47,0.00,,---,0.00,VWS V14.00,2013-01-17 22:30:00,
2013-01-17 16:31:00,46.2,26.6,30.48,NNW,330,6.0,8.0,46,0.00,,---,0.00,VWS V14.00,2013-01-17 22:31:00,
2013-01-17 16:32:00,46.2,27.1,30.48,NNW,329,3.0,7.0,47,0.00,,---,0.00,VWS V14.00,2013-01-17 22:32:00,
2013-01-17 16:33:00,46.2,27.1,30.48,NNW,330,7.0,9.0,47,0.00,,---,0.00,VWS V14.00,2013-01-17 22:33:00,
2013-01-17 16:34:00,46.2,27.1,30.48,NNW,330,5.0,8.0,47,0.00,,---,0.00,VWS V14.00,2013-01-17 22:34:00,
2013-01-17 16:35:00,46.2,27.1,30.48,NNW,329,4.0,7.0,47,0.00,,---,0.00,VWS V14.00,2013-01-17 22:35:00,
2013-01-17 16:36:00,46.1,27.0,30.48,NNW,329,3.0,5.0,47,0.00,,---,0.00,VWS V14.00,2013-01-17 22:36:00,
2013-01-17 16:37:00,46.0,26.9,30.48,NNW,329,6.0,7.0,47,0.00,,---,0.00,VWS V14.00,2013-01-17 22:37:00,
2013-01-17 16:38:00,46.1,27.5,30.48,NNW,329,3.0,6.0,48,0.00,,---,0.00,VWS V14.00,2013-01-17 22:38:00,
2013-01-17 16:39:00,46.1,27.0,30.48,NNW,329,4.0,5.0,47,0.00,,---,0.00,VWS V14.00,2013-01-17 22:39:00,
2013-01-17 16:40:00,46.0,26.9,30.48,NNW,329,2.0,7.0,47,0.00,,---,0.00,VWS V14.00,2013-01-17 22:40:00,
2013-01-17 16:41:00,46.0,26.9,30.48,NNW,329,4.0,6.0,47,0.00,,---,0.00,VWS V14.00,2013-01-17 22:41:00,
2013-01-17 16:42:00,46.0,27.4,30.48,NNW,329,3.0,5.0,48,0.00,,---,0.00,VWS V14.00,2013-01-17 22:42:00,
2013-01-17 16:43:00,46.0,27.4,30.48,NNW,329,5.0,7.0,48,0.00,,---,0.00,VWS V14.00,2013-01-17 22:43:00,
2013-01-17 16:44:00,46.0,27.4,30.48,NNW,329,3.0,6.0,48,0.00,,---,0.00,VWS V14.00,2013-01-17 22:44:00,
2013-01-17 16:45:00,46.0,27.4,30.48,NNW,329,5.0,6.0,48,0.00,,---,0.00,VWS V14.00,2013-01-17 22:45:00,
2013-01-17 16:46:00,46.0,27.4,30.48,NNW,329,3.0,6.0,48,0.00,,---,0.00,VWS V14.00,2013-01-17 22:46:00,
2013-01-17 16:47:00,45.8,27.2,30.49,NW,323,8.0,9.0,48,0.00,,---,0.00,VWS V14.00,2013-01-17 22:47:00,
2013-01-17 16:48:00,46.0,27.4,30.49,NNW,329,5.0,6.0,48,0.00,,---,0.00,VWS V14.00,2013-01-17 22:48:00,
2013-01-17 16:49:00,45.8,27.2,30.49,NNW,329,5.0,5.0,48,0.00,,---,0.00,VWS V14.00,2013-01-17 22:49:00,
2013-01-17 16:50:00,45.8,27.2,30.49,NW,323,6.0,9.0,48,0.00,,---,0.00,VWS V14.00,2013-01-17 22:50:00,
2013-01-17 16:51:00,45.8,27.2,30.49,NW,323,4.0,7.0,48,0.00,,---,0.00,VWS V14.00,2013-01-17 22:51:00,
2013-01-17 16:52:00,45.7,27.1,30.49,NW,323,5.0,9.0,48,0.00,,---,0.00,VWS V14.00,2013-01-17 22:52:00,
2013-01-17 16:53:00,45.7,27.1,30.49,NW,323,5.0,6.0,48,0.00,,---,0.00,VWS V14.00,2013-01-17 22:53:00,
2013-01-17 16:54:00,45.7,27.1,30.49,NW,323,4.0,6.0,48,0.00,,---,0.00,VWS V14.00,2013-01-17 22:54:00,
2013-01-17 16:55:00,45.5,27.0,30.49,NW,322,7.0,9.0,48,0.00,,---,0.00,VWS V14.00,2013-01-17 22:55:00,
2013-01-17 16:56:00,45.5,27.0,30.49,NW,322,5.0,7.0,48,0.00,,---,0.00,VWS V14.00,2013-01-17 22:56:00,
2013-01-17 16:57:00,45.4,27.4,30.49,NW,322,2.0,5.0,49,0.00,,---,0.00,VWS V14.00,2013-01-17 22:57:00,
2013-01-17 16:58:00,45.4,26.9,30.49,NW,322,4.0,6.0,48,0.00,,---,0.00,VWS V14.00,2013-01-17 22:58:00,
2013-01-17 16:59:00,45.4,26.9,30.49,NW,322,3.0,5.0,48,0.00,,---,0.00,VWS V14.00,2013-01-17 22:59:00,
2013-01-17 17:00:00,45.4,27.4,30.49,NW,322,4.0,5.0,49,0.00,,---,0.00,VWS V14.00,2013-01-17 23:00:00,
2013-01-17 17:01:00,45.2,26.7,30.49,NW,322,5.0,6.0,48,0.00,,---,0.00,VWS V14.00,2013-01-17 23:01:00,
2013-01-17 17:02:00,45.1,26.6,30.49,NW,322,5.0,5.0,48,0.00,,---,0.00,VWS V14.00,2013-01-17 23:02:00,
2013-01-17 17:03:00,45.2,27.2,30.49,NW,322,3.0,6.0,49,0.00,,---,0.00,VWS V14.00,2013-01-17 23:03:00,
2013-01-17 17:04:00,45.1,26.6,30.49,NW,322,3.0,4.0,48,0.00,,---,0.00,VWS V14.00,2013-01-17 23:04:00,
2013-01-17 17:05:00,45.1,26.6,30.49,NW,322,5.0,5.0,48,0.00,,---,0.00,VWS V14.00,2013-01-17 23:05:00,
2013-01-17 17:06:00,44.9,26.4,30.49,NW,322,6.0,6.0,48,0.00,,---,0.00,VWS V14.00,2013-01-17 23:06:00,
2013-01-17 17:07:00,44.8,26.3,30.49,NW,322,3.0,3.0,48,0.00,,---,0.00,VWS V14.00,2013-01-17 23:07:00,
2013-01-17 17:08:00,44.9,26.4,30.49,NW,322,3.0,4.0,48,0.00,,---,0.00,VWS V14.00,2013-01-17 23:08:00,
2013-01-17 17:09:00,44.8,26.3,30.49,NW,322,3.0,4.0,48,0.00,,---,0.00,VWS V14.00,2013-01-17 23:09:00,
2013-01-17 17:10:00,44.8,26.3,30.49,NW,322,4.0,4.0,48,0.00,,---,0.00,VWS V14.00,2013-01-17 23:10:00,
2013-01-17 17:11:00,44.8,26.3,30.49,NW,322,3.0,4.0,48,0.00,,---,0.00,VWS V14.00,2013-01-17 23:11:00,
2013-01-17 17:12:00,44.6,26.1,30.49,NW,322,2.0,3.0,48,0.00,,---,0.00,VWS V14.00,2013-01-17 23:12:00,
2013-01-17 17:13:00,44.6,26.1,30.49,NW,322,3.0,4.0,48,0.00,,---,0.00,VWS V14.00,2013-01-17 23:13:00,
2013-01-17 17:14:00,44.6,26.1,30.49,NW,322,2.0,3.0,48,0.00,,---,0.00,VWS V14.00,2013-01-17 23:14:00,
2013-01-17 17:15:00,44.6,26.1,30.49,NW,322,2.0,3.0,48,0.00,,---,0.00,VWS V14.00,2013-01-17 23:15:00,
2013-01-17 17:16:00,44.5,26.0,30.49,NW,322,2.0,3.0,48,0.00,,---,0.00,VWS V14.00,2013-01-17 23:16:00,
2013-01-17 17:17:00,44.3,26.4,30.49,NW,322,2.0,3.0,49,0.00,,---,0.00,VWS V14.00,2013-01-17 23:17:00,
2013-01-17 17:18:00,44.5,26.5,30.49,NW,322,1.0,2.0,49,0.00,,---,0.00,VWS V14.00,2013-01-17 23:18:00,
2013-01-17 17:19:00,44.5,26.5,30.49,NW,322,1.0,2.0,49,0.00,,---,0.00,VWS V14.00,2013-01-17 23:19:00,
2013-01-17 17:20:00,44.3,25.9,30.49,NW,322,2.0,3.0,48,0.00,,---,0.00,VWS V14.00,2013-01-17 23:20:00,
2013-01-17 17:21:00,44.3,26.4,30.49,NW,322,0.0,3.0,49,0.00,,---,0.00,VWS V14.00,2013-01-17 23:21:00,
2013-01-17 17:22:00,44.2,26.3,30.49,NW,322,0.0,0.0,49,0.00,,---,0.00,VWS V14.00,2013-01-17 23:22:00,
2013-01-17 17:23:00,44.2,26.3,30.49,NW,322,0.0,0.0,49,0.00,,---,0.00,VWS V14.00,2013-01-17 23:23:00,
2013-01-17 17:24:00,44.2,26.3,30.49,NW,322,0.0,0.0,49,0.00,,---,0.00,VWS V14.00,2013-01-17 23:24:00,
2013-01-17 17:25:00,44.1,26.7,30.50,NW,322,0.0,0.0,50,0.00,,---,0.00,VWS V14.00,2013-01-17 23:25:00,
2013-01-17 17:26:00,44.1,26.7,30.50,NW,322,0.0,0.0,50,0.00,,---,0.00,VWS V14.00,2013-01-17 23:26:00,
2013-01-17 17:27:00,43.5,26.1,30.50,NW,322,0.0,0.0,50,0.00,,---,0.00,VWS V14.00,2013-01-17 23:27:00,
2013-01-17 17:28:00,43.8,26.4,30.50,NW,322,0.0,0.0,50,0.00,,---,0.00,VWS V14.00,2013-01-17 23:28:00,
2013-01-17 17:29:00,43.6,26.2,30.50,NW,322,0.0,0.0,50,0.00,,---,0.00,VWS V14.00,2013-01-17 23:29:00,
2013-01-17 17:30:00,43.5,26.1,30.50,NW,322,0.0,0.0,50,0.00,,---,0.00,VWS V14.00,2013-01-17 23:30:00,
2013-01-17 17:31:00,43.3,25.9,30.50,NW,322,0.0,0.0,50,0.00,,---,0.00,VWS V14.00,2013-01-17 23:31:00,
2013-01-17 17:32:00,42.8,26.4,30.50,NW,322,0.0,0.0,52,0.00,,---,0.00,VWS V14.00,2013-01-17 23:32:00,
2013-01-17 17:33:00,42.9,26.0,30.50,NW,322,0.0,0.0,51,0.00,,---,0.00,VWS V14.00,2013-01-17 23:33:00,
2013-01-17 17:34:00,42.8,25.9,30.50,NW,322,0.0,0.0,51,0.00,,---,0.00,VWS V14.00,2013-01-17 23:34:00,
2013-01-17 17:35:00,42.6,26.2,30.50,NW,322,0.0,0.0,52,0.00,,---,0.00,VWS V14.00,2013-01-17 23:35:00,
2013-01-17 17:36:00,42.5,26.1,30.50,NW,322,0.0,0.0,52,0.00,,---,0.00,VWS V14.00,2013-01-17 23:36:00,
2013-01-17 17:37:00,42.2,25.9,30.50,NW,322,0.0,0.0,52,0.00,,---,0.00,VWS V14.00,2013-01-17 23:37:00,
2013-01-17 17:38:00,42.3,25.9,30.50,NW,322,0.0,0.0,52,0.00,,---,0.00,VWS V14.00,2013-01-17 23:38:00,
2013-01-17 17:39:00,42.2,25.9,30.50,NW,322,0.0,0.0,52,0.00,,---,0.00,VWS V14.00,2013-01-17 23:39:00,
2013-01-17 17:40:00,42.2,25.9,30.50,NW,322,0.0,0.0,52,0.00,,---,0.00,VWS V14.00,2013-01-17 23:40:00,
2013-01-17 17:41:00,42.2,25.9,30.50,NW,322,0.0,0.0,52,0.00,,---,0.00,VWS V14.00,2013-01-17 23:41:00,
2013-01-17 17:42:00,41.9,26.0,30.50,NW,322,0.0,0.0,53,0.00,,---,0.00,VWS V14.00,2013-01-17 23:42:00,
2013-01-17 17:43:00,41.9,25.6,30.50,NW,322,0.0,0.0,52,0.00,,---,0.00,VWS V14.00,2013-01-17 23:43:00,
2013-01-17 17:44:00,41.9,25.6,30.50,NW,322,0.0,0.0,52,0.00,,---,0.00,VWS V14.00,2013-01-17 23:44:00,
2013-01-17 17:45:00,41.8,25.9,30.50,NW,322,0.0,0.0,53,0.00,,---,0.00,VWS V14.00,2013-01-17 23:45:00,
2013-01-17 17:46:00,41.8,26.4,30.50,NW,322,0.0,0.0,54,0.00,,---,0.00,VWS V14.00,2013-01-17 23:46:00,
2013-01-17 17:47:00,41.3,26.4,30.51,NW,322,0.0,0.0,55,0.00,,---,0.00,VWS V14.00,2013-01-17 23:47:00,
2013-01-17 17:48:00,41.5,26.5,30.51,NW,322,0.0,0.0,55,0.00,,---,0.00,VWS V14.00,2013-01-17 23:48:00,
2013-01-17 17:49:00,41.3,26.4,30.51,NW,322,0.0,0.0,55,0.00,,---,0.00,VWS V14.00,2013-01-17 23:49:00,
2013-01-17 17:50:00,41.3,26.4,30.51,NW,322,0.0,0.0,55,0.00,,---,0.00,VWS V14.00,2013-01-17 23:50:00,
2013-01-17 17:51:00,41.1,25.7,30.51,NW,322,0.0,0.0,54,0.00,,---,0.00,VWS V14.00,2013-01-17 23:51:00,
2013-01-17 17:52:00,40.6,25.3,30.51,NW,322,0.0,0.0,54,0.00,,---,0.00,VWS V14.00,2013-01-17 23:52:00,
2013-01-17 17:53:00,40.8,25.5,30.51,NW,322,0.0,0.0,54,0.00,,---,0.00,VWS V14.00,2013-01-17 23:53:00,
2013-01-17 17:54:00,40.6,25.3,30.51,NW,322,0.0,0.0,54,0.00,,---,0.00,VWS V14.00,2013-01-17 23:54:00,
2013-01-17 17:55:00,40.5,25.2,30.51,NW,322,0.0,0.0,54,0.00,,---,0.00,VWS V14.00,2013-01-17 23:55:00,
2013-01-17 17:56:00,40.3,25.0,30.51,NW,322,0.0,0.0,54,0.00,,---,0.00,VWS V14.00,2013-01-17 23:56:00,
2013-01-17 17:57:00,39.8,25.4,30.51,NW,322,0.0,0.0,56,0.00,,---,0.00,VWS V14.00,2013-01-17 23:57:00,
2013-01-17 17:58:00,40.1,25.2,30.51,NW,322,0.0,0.0,55,0.00,,---,0.00,VWS V14.00,2013-01-17 23:58:00,
2013-01-17 17:59:00,39.9,25.5,30.51,NW,322,0.0,0.0,56,0.00,,---,0.00,VWS V14.00,2013-01-17 23:59:00,
2013-01-17 18:00:00,39.6,26.1,30.51,NW,322,0.0,0.0,58,0.00,,---,0.00,VWS V14.00,2013-01-18 00:00:00,
2013-01-17 18:01:00,39.5,26.4,30.52,NW,322,0.0,0.0,59,0.00,,---,0.00,VWS V14.00,2013-01-18 00:01:00,
2013-01-17 18:02:00,39.1,26.0,30.52,NW,322,0.0,0.0,59,0.00,,---,0.00,VWS V14.00,2013-01-18 00:02:00,
2013-01-17 18:03:00,39.2,25.7,30.52,NW,322,0.0,0.0,58,0.00,,---,0.00,VWS V14.00,2013-01-18 00:03:00,
2013-01-17 18:04:00,39.1,26.0,30.52,NW,322,0.0,0.0,59,0.00,,---,0.00,VWS V14.00,2013-01-18 00:04:00,
2013-01-17 18:05:00,39.1,26.0,30.52,NW,322,0.0,0.0,59,0.00,,---,0.00,VWS V14.00,2013-01-18 00:05:00,
2013-01-17 18:06:00,38.9,25.8,30.52,NW,322,0.0,0.0,59,0.00,,---,0.00,VWS V14.00,2013-01-18 00:06:00,
2013-01-17 18:07:00,38.6,25.5,30.52,NW,322,0.0,0.0,59,0.00,,---,0.00,VWS V14.00,2013-01-18 00:07:00,
2013-01-17 18:08:00,38.8,25.7,30.52,NW,322,0.0,0.0,59,0.00,,---,0.00,VWS V14.00,2013-01-18 00:08:00,
2013-01-17 18:09:00,38.8,25.7,30.52,NW,322,0.0,0.0,59,0.00,,---,0.00,VWS V14.00,2013-01-18 00:09:00,
2013-01-17 18:10:00,38.6,25.5,30.52,NW,322,0.0,0.0,59,0.00,,---,0.00,VWS V14.00,2013-01-18 00:10:00,
2013-01-17 18:11:00,38.6,25.5,30.52,NW,322,0.0,0.0,59,0.00,,---,0.00,VWS V14.00,2013-01-18 00:11:00,
2013-01-17 18:12:00,38.3,25.6,30.52,NW,322,0.0,0.0,60,0.00,,---,0.00,VWS V14.00,2013-01-18 00:12:00,
2013-01-17 18:13:00,38.5,25.8,30.52,NW,322,0.0,0.0,60,0.00,,---,0.00,VWS V14.00,2013-01-18 00:13:00,
2013-01-17 18:14:00,38.3,25.6,30.52,NW,322,0.0,0.0,60,0.00,,---,0.00,VWS V14.00,2013-01-18 00:14:00,
2013-01-17 18:15:00,38.3,25.6,30.52,NW,322,0.0,0.0,60,0.00,,---,0.00,VWS V14.00,2013-01-18 00:15:00,
2013-01-17 18:16:00,38.2,25.5,30.53,NW,322,0.0,0.0,60,0.00,,---,0.00,VWS V14.00,2013-01-18 00:16:00,
2013-01-17 18:17:00,37.9,24.9,30.53,NW,322,0.0,0.0,59,0.00,,---,0.00,VWS V14.00,2013-01-18 00:17:00,
2013-01-17 18:18:00,38.0,25.0,30.53,NW,322,0.0,0.0,59,0.00,,---,0.00,VWS V14.00,2013-01-18 00:18:00,
2013-01-17 18:19:00,38.0,25.0,30.53,NW,322,0.0,0.0,59,0.00,,---,0.00,VWS V14.00,2013-01-18 00:19:00,
2013-01-17 18:20:00,37.9,24.9,30.53,NW,322,0.0,0.0,59,0.00,,---,0.00,VWS V14.00,2013-01-18 00:20:00,
2013-01-17 18:21:00,37.8,24.8,30.53,NW,322,0.0,0.0,59,0.00,,---,0.00,VWS V14.00,2013-01-18 00:21:00,
2013-01-17 18:22:00,37.5,24.5,30.53,NW,322,0.0,0.0,59,0.00,,---,0.00,VWS V14.00,2013-01-18 00:22:00,
2013-01-17 18:23:00,37.6,24.6,30.53,NW,322,0.0,0.0,59,0.00,,---,0.00,VWS V14.00,2013-01-18 00:23:00,
2013-01-17 18:24:00,37.5,24.5,30.53,NW,322,0.0,0.0,59,0.00,,---,0.00,VWS V14.00,2013-01-18 00:24:00,
2013-01-17 18:25:00,37.3,24.3,30.53,NW,322,0.0,0.0,59,0.00,,---,0.00,VWS V14.00,2013-01-18 00:25:00,
2013-01-17 18:26:00,37.3,24.3,30.53,NW,322,0.0,0.0,59,0.00,,---,0.00,VWS V14.00,2013-01-18 00:26:00,
2013-01-17 18:27:00,36.9,24.7,30.53,NW,322,0.0,0.0,61,0.00,,---,0.00,VWS V14.00,2013-01-18 00:27:00,
2013-01-17 18:28:00,37.0,24.8,30.53,NW,322,0.0,0.0,61,0.00,,---,0.00,VWS V14.00,2013-01-18 00:28:00,
2013-01-17 18:29:00,36.9,24.7,30.53,NW,322,0.0,0.0,61,0.00,,---,0.00,VWS V14.00,2013-01-18 00:29:00,
2013-01-17 18:30:00,36.9,25.1,30.53,NW,322,0.0,0.0,62,0.00,,---,0.00,VWS V14.00,2013-01-18 00:30:00,
2013-01-17 18:31:00,36.8,25.0,30.53,NW,322,0.0,0.0,62,0.00,,---,0.00,VWS V14.00,2013-01-18 00:31:00,
2013-01-17 18:32:00,36.5,25.5,30.53,NW,322,0.0,0.0,64,0.00,,---,0.00,VWS V14.00,2013-01-18 00:32:00,
2013-01-17 18:33:00,36.5,25.1,30.53,NW,322,0.0,0.0,63,0.00,,---,0.00,VWS V14.00,2013-01-18 00:33:00,
2013-01-17 18:34:00,36.5,25.5,30.53,NW,322,0.0,0.0,64,0.00,,---,0.00,VWS V14.00,2013-01-18 00:34:00,
2013-01-17 18:35:00,36.3,25.3,30.53,NW,322,0.0,0.0,64,0.00,,---,0.00,VWS V14.00,2013-01-18 00:35:00,
2013-01-17 18:36:00,36.3,25.3,30.54,NW,322,0.0,0.0,64,0.00,,---,0.00,VWS V14.00,2013-01-18 00:36:00,
2013-01-17 18:37:00,35.9,25.3,30.54,NW,322,0.0,0.0,65,0.00,,---,0.00,VWS V14.00,2013-01-18 00:37:00,
2013-01-17 18:38:00,36.0,25.4,30.54,NW,322,0.0,0.0,65,0.00,,---,0.00,VWS V14.00,2013-01-18 00:38:00,
2013-01-17 18:39:00,35.9,25.3,30.54,NW,322,0.0,0.0,65,0.00,,---,0.00,VWS V14.00,2013-01-18 00:39:00,
2013-01-17 18:40:00,35.9,25.3,30.54,NW,322,0.0,0.0,65,0.00,,---,0.00,VWS V14.00,2013-01-18 00:40:00,
2013-01-17 18:41:00,35.8,25.2,30.54,NW,322,0.0,0.0,65,0.00,,---,0.00,VWS V14.00,2013-01-18 00:41:00,
2013-01-17 18:42:00,35.5,24.9,30.54,NW,322,0.0,0.0,65,0.00,,---,0.00,VWS V14.00,2013-01-18 00:42:00,
2013-01-17 18:43:00,35.6,25.0,30.54,NW,322,0.0,0.0,65,0.00,,---,0.00,VWS V14.00,2013-01-18 00:43:00,
2013-01-17 18:44:00,35.5,24.9,30.54,NW,322,0.0,0.0,65,0.00,,---,0.00,VWS V14.00,2013-01-18 00:44:00,
2013-01-17 18:45:00,35.5,24.9,30.54,NW,322,0.0,0.0,65,0.00,,---,0.00,VWS V14.00,2013-01-18 00:45:00,
2013-01-17 18:46:00,35.3,24.7,30.54,NW,322,0.0,0.0,65,0.00,,---,0.00,VWS V14.00,2013-01-18 00:46:00,
2013-01-17 18:47:00,35.0,24.8,30.54,NW,322,0.0,0.0,66,0.00,,---,0.00,VWS V14.00,2013-01-18 00:47:00,
2013-01-17 18:48:00,35.2,25.0,30.54,NW,322,0.0,0.0,66,0.00,,---,0.00,VWS V14.00,2013-01-18 00:48:00,
2013-01-17 18:49:00,35.2,25.0,30.54,NW,322,0.0,0.0,66,0.00,,---,0.00,VWS V14.00,2013-01-18 00:49:00,
2013-01-17 18:50:00,35.0,24.8,30.54,NW,322,0.0,0.0,66,0.00,,---,0.00,VWS V14.00,2013-01-18 00:50:00,
2013-01-17 18:51:00,35.0,24.8,30.54,NW,322,0.0,0.0,66,0.00,,---,0.00,VWS V14.00,2013-01-18 00:51:00,
2013-01-17 18:52:00,34.7,24.5,30.54,NW,322,0.0,0.0,66,0.00,,---,0.00,VWS V14.00,2013-01-18 00:52:00,
2013-01-17 18:53:00,34.9,24.7,30.54,NW,322,0.0,0.0,66,0.00,,---,0.00,VWS V14.00,2013-01-18 00:53:00,
2013-01-17 18:54:00,34.7,24.5,30.54,NW,322,0.0,0.0,66,0.00,,---,0.00,VWS V14.00,2013-01-18 00:54:00,
2013-01-17 18:55:00,34.7,24.5,30.54,NW,322,0.0,0.0,66,0.00,,---,0.00,VWS V14.00,2013-01-18 00:55:00,
2013-01-17 18:56:00,34.6,24.4,30.54,NW,322,0.0,0.0,66,0.00,,---,0.00,VWS V14.00,2013-01-18 00:56:00,
2013-01-17 18:57:00,34.4,24.6,30.55,NW,322,0.0,0.0,67,0.00,,---,0.00,VWS V14.00,2013-01-18 00:57:00,
2013-01-17 18:58:00,34.6,24.8,30.54,NW,322,0.0,0.0,67,0.00,,---,0.00,VWS V14.00,2013-01-18 00:58:00,
2013-01-17 18:59:00,34.4,24.6,30.55,NW,322,0.0,0.0,67,0.00,,---,0.00,VWS V14.00,2013-01-18 00:59:00,
2013-01-17 19:00:00,34.4,24.6,30.55,NW,322,0.0,0.0,67,0.00,,---,0.00,VWS V14.00,2013-01-18 01:00:00,
2013-01-17 19:01:00,34.3,24.5,30.55,NW,322,0.0,0.0,67,0.00,,---,0.00,VWS V14.00,2013-01-18 01:01:00,
2013-01-17 19:02:00,34.1,24.3,30.55,NW,322,0.0,0.0,67,0.00,,---,0.00,VWS V14.00,2013-01-18 01:02:00,
2013-01-17 19:03:00,34.3,24.5,30.55,NW,322,0.0,0.0,67,0.00,,---,0.00,VWS V14.00,2013-01-18 01:03:00,
2013-01-17 19:04:00,34.1,24.3,30.55,NW,322,0.0,0.0,67,0.00,,---,0.00,VWS V14.00,2013-01-18 01:04:00,
2013-01-17 19:05:00,34.1,24.3,30.55,NW,322,0.0,0.0,67,0.00,,---,0.00,VWS V14.00,2013-01-18 01:05:00,
2013-01-17 19:06:00,34.1,24.3,30.54,NW,322,0.0,0.0,67,0.00,,---,0.00,VWS V14.00,2013-01-18 01:06:00,
2013-01-17 19:07:00,34.0,24.2,30.55,NW,322,0.0,0.0,67,0.00,,---,0.00,VWS V14.00,2013-01-18 01:07:00,
2013-01-17 19:08:00,34.1,24.3,30.55,NW,322,0.0,0.0,67,0.00,,---,0.00,VWS V14.00,2013-01-18 01:08:00,
2013-01-17 19:09:00,34.0,24.2,30.55,NW,322,0.0,0.0,67,0.00,,---,0.00,VWS V14.00,2013-01-18 01:09:00,
2013-01-17 19:10:00,34.0,24.2,30.55,NW,322,0.0,0.0,67,0.00,,---,0.00,VWS V14.00,2013-01-18 01:10:00,
2013-01-17 19:11:00,34.0,24.2,30.55,NW,322,0.0,0.0,67,0.00,,---,0.00,VWS V14.00,2013-01-18 01:11:00,
2013-01-17 19:12:00,33.7,23.9,30.54,NW,322,0.0,0.0,67,0.00,,---,0.00,VWS V14.00,2013-01-18 01:12:00,
2013-01-17 19:13:00,33.8,24.0,30.54,NW,322,0.0,0.0,67,0.00,,---,0.00,VWS V14.00,2013-01-18 01:13:00,
2013-01-17 19:14:00,33.8,24.0,30.54,NW,322,0.0,0.0,67,0.00,,---,0.00,VWS V14.00,2013-01-18 01:14:00,
2013-01-17 19:15:00,33.7,23.9,30.54,NW,322,0.0,0.0,67,0.00,,---,0.00,VWS V14.00,2013-01-18 01:15:00,
2013-01-17 19:16:00,33.7,23.9,30.54,NW,322,0.0,0.0,67,0.00,,---,0.00,VWS V14.00,2013-01-18 01:16:00,
2013-01-17 19:17:00,33.4,24.0,30.55,NW,322,0.0,0.0,68,0.00,,---,0.00,VWS V14.00,2013-01-18 01:17:00,
2013-01-17 19:18:00,33.5,23.7,30.55,NW,322,0.0,0.0,67,0.00,,---,0.00,VWS V14.00,2013-01-18 01:18:00,
2013-01-17 19:19:00,33.4,24.0,30.55,NW,322,0.0,0.0,68,0.00,,---,0.00,VWS V14.00,2013-01-18 01:19:00,
2013-01-17 19:20:00,33.4,24.0,30.55,NW,322,0.0,0.0,68,0.00,,---,0.00,VWS V14.00,2013-01-18 01:20:00,
2013-01-17 19:21:00,33.4,24.0,30.55,NW,322,0.0,0.0,68,0.00,,---,0.00,VWS V14.00,2013-01-18 01:21:00,
2013-01-17 19:22:00,33.1,24.0,30.55,NW,322,0.0,0.0,69,0.00,,---,0.00,VWS V14.00,2013-01-18 01:22:00,
2013-01-17 19:23:00,33.2,23.8,30.55,NW,322,0.0,0.0,68,0.00,,---,0.00,VWS V14.00,2013-01-18 01:23:00,
2013-01-17 19:24:00,33.1,23.7,30.55,NW,322,0.0,0.0,68,0.00,,---,0.00,VWS V14.00,2013-01-18 01:24:00,
2013-01-17 19:25:00,33.1,24.0,30.55,NW,322,0.0,0.0,69,0.00,,---,0.00,VWS V14.00,2013-01-18 01:25:00,
2013-01-17 19:26:00,33.1,24.0,30.55,NW,322,0.0,0.0,69,0.00,,---,0.00,VWS V14.00,2013-01-18 01:26:00,
2013-01-17 19:27:00,32.8,24.1,30.55,NW,322,0.0,0.0,70,0.00,,---,0.00,VWS V14.00,2013-01-18 01:27:00,
2013-01-17 19:28:00,32.9,24.2,30.55,NW,322,0.0,0.0,70,0.00,,---,0.00,VWS V14.00,2013-01-18 01:28:00,
2013-01-17 19:29:00,32.8,24.1,30.55,NW,322,0.0,0.0,70,0.00,,---,0.00,VWS V14.00,2013-01-18 01:29:00,
2013-01-17 19:30:00,32.7,24.0,30.55,NW,322,0.0,0.0,70,0.00,,---,0.00,VWS V14.00,2013-01-18 01:30:00,
2013-01-17 19:31:00,32.7,24.0,30.55,NW,322,0.0,0.0,70,0.00,,---,0.00,VWS V14.00,2013-01-18 01:31:00,
2013-01-17 19:32:00,32.4,24.1,30.55,NW,322,0.0,0.0,71,0.00,,---,0.00,VWS V14.00,2013-01-18 01:32:00,
2013-01-17 19:33:00,32.5,24.2,30.55,NW,322,0.0,0.0,71,0.00,,---,0.00,VWS V14.00,2013-01-18 01:33:00,
2013-01-17 19:34:00,32.4,24.1,30.55,NW,322,0.0,0.0,71,0.00,,---,0.00,VWS V14.00,2013-01-18 01:34:00,
2013-01-17 19:35:00,32.4,24.1,30.55,NW,322,0.0,0.0,71,0.00,,---,0.00,VWS V14.00,2013-01-18 01:35:00,
2013-01-17 19:36:00,32.4,24.1,30.55,NW,322,0.0,0.0,71,0.00,,---,0.00,VWS V14.00,2013-01-18 01:36:00,
2013-01-17 19:37:00,32.1,23.8,30.55,NW,322,0.0,0.0,71,0.00,,---,0.00,VWS V14.00,2013-01-18 01:37:00,
2013-01-17 19:38:00,32.2,23.9,30.55,NW,322,0.0,0.0,71,0.00,,---,0.00,VWS V14.00,2013-01-18 01:38:00,
2013-01-17 19:39:00,32.1,23.8,30.55,NW,322,0.0,0.0,71,0.00,,---,0.00,VWS V14.00,2013-01-18 01:39:00,
2013-01-17 19:40:00,32.1,23.8,30.55,NW,322,0.0,0.0,71,0.00,,---,0.00,VWS V14.00,2013-01-18 01:40:00,
2013-01-17 19:41:00,31.9,23.9,30.55,NW,322,0.0,0.0,72,0.00,,---,0.00,VWS V14.00,2013-01-18 01:41:00,
2013-01-17 19:42:00,31.8,23.8,30.55,NW,322,0.0,0.0,72,0.00,,---,0.00,VWS V14.00,2013-01-18 01:42:00,
2013-01-17 19:43:00,31.9,23.9,30.55,NW,322,0.0,0.0,72,0.00,,---,0.00,VWS V14.00,2013-01-18 01:43:00,
2013-01-17 19:44:00,31.8,23.8,30.55,NW,322,0.0,0.0,72,0.00,,---,0.00,VWS V14.00,2013-01-18 01:44:00,
2013-01-17 19:45:00,31.8,23.8,30.55,NW,322,0.0,0.0,72,0.00,,---,0.00,VWS V14.00,2013-01-18 01:45:00,
2013-01-17 19:46:00,31.8,23.8,30.55,NW,322,0.0,0.0,72,0.00,,---,0.00,VWS V14.00,2013-01-18 01:46:00,
2013-01-17 19:47:00,31.6,23.6,30.55,NW,322,0.0,0.0,72,0.00,,---,0.00,VWS V14.00,2013-01-18 01:47:00,
2013-01-17 19:48:00,31.6,23.6,30.55,NW,322,0.0,0.0,72,0.00,,---,0.00,VWS V14.00,2013-01-18 01:48:00,
2013-01-17 19:49:00,31.6,23.6,30.55,NW,322,0.0,0.0,72,0.00,,---,0.00,VWS V14.00,2013-01-18 01:49:00,
2013-01-17 19:50:00,31.6,23.6,30.55,NW,322,0.0,0.0,72,0.00,,---,0.00,VWS V14.00,2013-01-18 01:50:00,
2013-01-17 19:51:00,31.6,24.0,30.55,NW,322,0.0,0.0,73,0.00,,---,0.00,VWS V14.00,2013-01-18 01:51:00,
2013-01-17 19:52:00,31.5,23.9,30.55,NW,322,0.0,0.0,73,0.00,,---,0.00,VWS V14.00,2013-01-18 01:52:00,
2013-01-17 19:53:00,31.5,23.9,30.55,NW,322,0.0,0.0,73,0.00,,---,0.00,VWS V14.00,2013-01-18 01:53:00,
2013-01-17 19:54:00,31.5,23.9,30.55,NW,322,0.0,0.0,73,0.00,,---,0.00,VWS V14.00,2013-01-18 01:54:00,
2013-01-17 19:55:00,31.5,23.9,30.55,NW,322,0.0,0.0,73,0.00,,---,0.00,VWS V14.00,2013-01-18 01:55:00,
2013-01-17 19:56:00,31.5,23.9,30.55,NW,322,0.0,0.0,73,0.00,,---,0.00,VWS V14.00,2013-01-18 01:56:00,
2013-01-17 19:57:00,31.3,23.7,30.55,NW,322,0.0,0.0,73,0.00,,---,0.00,VWS V14.00,2013-01-18 01:57:00,
2013-01-17 19:58:00,31.3,23.7,30.55,NW,322,0.0,0.0,73,0.00,,---,0.00,VWS V14.00,2013-01-18 01:58:00,
2013-01-17 19:59:00,31.3,23.7,30.55,NW,322,0.0,0.0,73,0.00,,---,0.00,VWS V14.00,2013-01-18 01:59:00,
2013-01-17 20:00:00,31.3,23.7,30.55,NW,322,0.0,0.0,73,0.00,,---,0.00,VWS V14.00,2013-01-18 02:00:00,
2013-01-17 20:01:00,31.3,23.7,30.54,NW,322,0.0,0.0,73,0.00,,---,0.00,VWS V14.00,2013-01-18 02:01:00,
2013-01-17 20:02:00,31.2,23.9,30.54,NW,322,0.0,0.0,74,0.00,,---,0.00,VWS V14.00,2013-01-18 02:02:00,
2013-01-17 20:03:00,31.2,23.9,30.54,NW,322,0.0,0.0,74,0.00,,---,0.00,VWS V14.00,2013-01-18 02:03:00,
2013-01-17 20:04:00,31.2,23.9,30.54,NW,322,0.0,0.0,74,0.00,,---,0.00,VWS V14.00,2013-01-18 02:04:00,
2013-01-17 20:05:00,31.0,23.7,30.54,NW,322,0.0,0.0,74,0.00,,---,0.00,VWS V14.00,2013-01-18 02:05:00,
2013-01-17 20:06:00,31.0,23.7,30.54,NW,322,0.0,0.0,74,0.00,,---,0.00,VWS V14.00,2013-01-18 02:06:00,
2013-01-17 20:07:00,30.9,23.6,30.54,NW,322,0.0,0.0,74,0.00,,---,0.00,VWS V14.00,2013-01-18 02:07:00,
2013-01-17 20:08:00,30.9,23.6,30.54,NW,322,0.0,0.0,74,0.00,,---,0.00,VWS V14.00,2013-01-18 02:08:00,
2013-01-17 20:09:00,30.9,23.6,30.54,NW,322,0.0,0.0,74,0.00,,---,0.00,VWS V14.00,2013-01-18 02:09:00,
2013-01-17 20:10:00,30.9,23.6,30.54,NW,322,0.0,0.0,74,0.00,,---,0.00,VWS V14.00,2013-01-18 02:10:00,
2013-01-17 20:11:00,30.7,23.4,30.54,NW,322,0.0,0.0,74,0.00,,---,0.00,VWS V14.00,2013-01-18 02:11:00,
2013-01-17 20:12:00,30.6,23.3,30.54,NW,322,0.0,0.0,74,0.00,,---,0.00,VWS V14.00,2013-01-18 02:12:00,
2013-01-17 20:13:00,30.7,23.4,30.54,NW,322,0.0,0.0,74,0.00,,---,0.00,VWS V14.00,2013-01-18 02:13:00,
2013-01-17 20:14:00,30.6,23.3,30.54,NW,322,0.0,0.0,74,0.00,,---,0.00,VWS V14.00,2013-01-18 02:14:00,
2013-01-17 20:15:00,30.6,23.6,30.54,NW,322,0.0,0.0,75,0.00,,---,0.00,VWS V14.00,2013-01-18 02:15:00,
2013-01-17 20:16:00,30.4,23.4,30.54,NW,322,0.0,0.0,75,0.00,,---,0.00,VWS V14.00,2013-01-18 02:16:00,
2013-01-17 20:17:00,30.3,23.3,30.54,NW,322,0.0,0.0,75,0.00,,---,0.00,VWS V14.00,2013-01-18 02:17:00,
2013-01-17 20:18:00,30.3,23.3,30.54,NW,322,0.0,0.0,75,0.00,,---,0.00,VWS V14.00,2013-01-18 02:18:00,
2013-01-17 20:19:00,30.3,23.3,30.54,NW,322,0.0,0.0,75,0.00,,---,0.00,VWS V14.00,2013-01-18 02:19:00,
2013-01-17 20:20:00,30.1,23.1,30.54,NW,322,0.0,0.0,75,0.00,,---,0.00,VWS V14.00,2013-01-18 02:20:00,
2013-01-17 20:21:00,30.1,23.5,30.54,NW,322,0.0,0.0,76,0.00,,---,0.00,VWS V14.00,2013-01-18 02:21:00,
2013-01-17 20:22:00,30.0,23.4,30.55,NW,322,0.0,0.0,76,0.00,,---,0.00,VWS V14.00,2013-01-18 02:22:00,
2013-01-17 20:23:00,30.0,23.4,30.55,NW,322,0.0,0.0,76,0.00,,---,0.00,VWS V14.00,2013-01-18 02:23:00,
2013-01-17 20:24:00,30.0,23.4,30.55,NW,322,0.0,0.0,76,0.00,,---,0.00,VWS V14.00,2013-01-18 02:24:00,
2013-01-17 20:25:00,30.0,23.4,30.55,NW,322,0.0,0.0,76,0.00,,---,0.00,VWS V14.00,2013-01-18 02:25:00,
2013-01-17 20:26:00,30.0,23.4,30.55,NW,322,0.0,0.0,76,0.00,,---,0.00,VWS V14.00,2013-01-18 02:26:00,
2013-01-17 20:27:00,29.8,23.5,30.55,NW,322,0.0,0.0,77,0.00,,---,0.00,VWS V14.00,2013-01-18 02:27:00,
2013-01-17 20:28:00,29.8,23.2,30.55,NW,322,0.0,0.0,76,0.00,,---,0.00,VWS V14.00,2013-01-18 02:28:00,
2013-01-17 20:29:00,29.8,23.5,30.55,NW,322,0.0,0.0,77,0.00,,---,0.00,VWS V14.00,2013-01-18 02:29:00,
2013-01-17 20:30:00,29.8,23.5,30.55,NW,322,0.0,0.0,77,0.00,,---,0.00,VWS V14.00,2013-01-18 02:30:00,
2013-01-17 20:31:00,29.7,23.4,30.55,NW,322,0.0,0.0,77,0.00,,---,0.00,VWS V14.00,2013-01-18 02:31:00,
2013-01-17 20:32:00,29.7,23.4,30.55,NW,322,0.0,0.0,77,0.00,,---,0.00,VWS V14.00,2013-01-18 02:32:00,
2013-01-17 20:33:00,29.7,23.4,30.55,NW,322,0.0,0.0,77,0.00,,---,0.00,VWS V14.00,2013-01-18 02:33:00,
2013-01-17 20:34:00,29.7,23.4,30.55,NW,322,0.0,0.0,77,0.00,,---,0.00,VWS V14.00,2013-01-18 02:34:00,
2013-01-17 20:35:00,29.5,23.2,30.55,NW,322,0.0,0.0,77,0.00,,---,0.00,VWS V14.00,2013-01-18 02:35:00,
2013-01-17 20:36:00,29.5,23.5,30.55,NW,322,0.0,0.0,78,0.00,,---,0.00,VWS V14.00,2013-01-18 02:36:00,
2013-01-17 20:37:00,29.4,23.4,30.55,NW,322,0.0,0.0,78,0.00,,---,0.00,VWS V14.00,2013-01-18 02:37:00,
2013-01-17 20:38:00,29.4,23.4,30.55,NW,322,0.0,0.0,78,0.00,,---,0.00,VWS V14.00,2013-01-18 02:38:00,
2013-01-17 20:39:00,29.4,23.4,30.55,NW,322,0.0,0.0,78,0.00,,---,0.00,VWS V14.00,2013-01-18 02:39:00,
2013-01-17 20:40:00,29.4,23.4,30.55,NW,322,0.0,0.0,78,0.00,,---,0.00,VWS V14.00,2013-01-18 02:40:00,
2013-01-17 20:41:00,29.4,23.4,30.55,NW,322,0.0,0.0,78,0.00,,---,0.00,VWS V14.00,2013-01-18 02:41:00,
2013-01-17 20:42:00,29.3,23.3,30.55,NW,322,0.0,0.0,78,0.00,,---,0.00,VWS V14.00,2013-01-18 02:42:00,
2013-01-17 20:43:00,29.4,23.4,30.55,NW,322,0.0,0.0,78,0.00,,---,0.00,VWS V14.00,2013-01-18 02:43:00,
2013-01-17 20:44:00,29.3,23.3,30.55,NW,322,0.0,0.0,78,0.00,,---,0.00,VWS V14.00,2013-01-18 02:44:00,
2013-01-17 20:45:00,29.3,23.3,30.55,NW,322,0.0,0.0,78,0.00,,---,0.00,VWS V14.00,2013-01-18 02:45:00,
2013-01-17 20:46:00,29.3,23.3,30.55,NW,322,0.0,0.0,78,0.00,,---,0.00,VWS V14.00,2013-01-18 02:46:00,
2013-01-17 20:47:00,29.3,23.3,30.55,NW,322,0.0,0.0,78,0.00,,---,0.00,VWS V14.00,2013-01-18 02:47:00,
2013-01-17 20:48:00,29.3,23.3,30.55,NW,322,0.0,0.0,78,0.00,,---,0.00,VWS V14.00,2013-01-18 02:48:00,
2013-01-17 20:49:00,29.3,23.3,30.55,NW,322,0.0,0.0,78,0.00,,---,0.00,VWS V14.00,2013-01-18 02:49:00,
2013-01-17 20:50:00,29.3,23.3,30.56,NW,322,0.0,0.0,78,0.00,,---,0.00,VWS V14.00,2013-01-18 02:50:00,
2013-01-17 20:51:00,29.3,23.3,30.56,NW,322,0.0,0.0,78,0.00,,---,0.00,VWS V14.00,2013-01-18 02:51:00,
2013-01-17 20:52:00,29.1,23.1,30.56,NW,322,0.0,0.0,78,0.00,,---,0.00,VWS V14.00,2013-01-18 02:52:00,
2013-01-17 20:53:00,29.3,23.3,30.56,NW,322,0.0,0.0,78,0.00,,---,0.00,VWS V14.00,2013-01-18 02:53:00,
2013-01-17 20:54:00,29.3,23.3,30.56,NW,322,0.0,0.0,78,0.00,,---,0.00,VWS V14.00,2013-01-18 02:54:00,
2013-01-17 20:55:00,29.1,23.1,30.56,NW,322,0.0,0.0,78,0.00,,---,0.00,VWS V14.00,2013-01-18 02:55:00,
2013-01-17 20:56:00,29.1,23.1,30.56,NW,322,0.0,0.0,78,0.00,,---,0.00,VWS V14.00,2013-01-18 02:56:00,
2013-01-17 20:57:00,29.1,23.1,30.56,NW,322,0.0,0.0,78,0.00,,---,0.00,VWS V14.00,2013-01-18 02:57:00,
2013-01-17 20:58:00,29.1,23.1,30.56,NW,322,0.0,0.0,78,0.00,,---,0.00,VWS V14.00,2013-01-18 02:58:00,
2013-01-17 20:59:00,29.1,23.1,30.56,NW,322,0.0,0.0,78,0.00,,---,0.00,VWS V14.00,2013-01-18 02:59:00,
2013-01-17 21:00:00,29.1,23.1,30.56,NW,322,0.0,0.0,78,0.00,,---,0.00,VWS V14.00,2013-01-18 03:00:00,
2013-01-17 21:01:00,29.0,23.0,30.55,NW,322,0.0,0.0,78,0.00,,---,0.00,VWS V14.00,2013-01-18 03:01:00,
2013-01-17 21:02:00,28.8,23.1,30.55,NW,322,0.0,0.0,79,0.00,,---,0.00,VWS V14.00,2013-01-18 03:02:00,
2013-01-17 21:03:00,29.0,23.0,30.55,NW,322,0.0,0.0,78,0.00,,---,0.00,VWS V14.00,2013-01-18 03:03:00,
2013-01-17 21:04:00,28.8,22.8,30.55,NW,322,0.0,0.0,78,0.00,,---,0.00,VWS V14.00,2013-01-18 03:04:00,
2013-01-17 21:05:00,28.8,23.1,30.55,NW,322,0.0,0.0,79,0.00,,---,0.00,VWS V14.00,2013-01-18 03:05:00,
2013-01-17 21:06:00,28.8,23.1,30.55,NW,322,0.0,0.0,79,0.00,,---,0.00,VWS V14.00,2013-01-18 03:06:00,
2013-01-17 21:07:00,28.7,23.0,30.55,NW,322,0.0,0.0,79,0.00,,---,0.00,VWS V14.00,2013-01-18 03:07:00,
2013-01-17 21:08:00,28.7,23.0,30.55,NW,322,0.0,0.0,79,0.00,,---,0.00,VWS V14.00,2013-01-18 03:08:00,
2013-01-17 21:09:00,28.7,23.0,30.55,NW,322,0.0,0.0,79,0.00,,---,0.00,VWS V14.00,2013-01-18 03:09:00,
2013-01-17 21:10:00,28.7,23.0,30.55,NW,322,0.0,0.0,79,0.00,,---,0.00,VWS V14.00,2013-01-18 03:10:00,
2013-01-17 21:11:00,28.5,22.8,30.55,NW,322,0.0,0.0,79,0.00,,---,0.00,VWS V14.00,2013-01-18 03:11:00,
2013-01-17 21:12:00,28.5,22.8,30.55,NW,322,0.0,0.0,79,0.00,,---,0.00,VWS V14.00,2013-01-18 03:12:00,
2013-01-17 21:13:00,28.5,22.8,30.55,NW,322,0.0,0.0,79,0.00,,---,0.00,VWS V14.00,2013-01-18 03:13:00,
2013-01-17 21:14:00,28.5,22.8,30.55,NW,322,0.0,0.0,79,0.00,,---,0.00,VWS V14.00,2013-01-18 03:14:00,
2013-01-17 21:15:00,28.5,22.8,30.55,NW,322,0.0,0.0,79,0.00,,---,0.00,VWS V14.00,2013-01-18 03:15:00,
2013-01-17 21:16:00,28.5,22.8,30.55,NW,322,0.0,0.0,79,0.00,,---,0.00,VWS V14.00,2013-01-18 03:16:00,
2013-01-17 21:17:00,28.4,22.7,30.55,NW,322,0.0,0.0,79,0.00,,---,0.00,VWS V14.00,2013-01-18 03:17:00,
2013-01-17 21:18:00,28.4,22.7,30.55,NW,322,0.0,0.0,79,0.00,,---,0.00,VWS V14.00,2013-01-18 03:18:00,
2013-01-17 21:19:00,28.4,22.7,30.55,NW,322,0.0,0.0,79,0.00,,---,0.00,VWS V14.00,2013-01-18 03:19:00,
2013-01-17 21:20:00,28.4,22.7,30.55,NW,322,0.0,0.0,79,0.00,,---,0.00,VWS V14.00,2013-01-18 03:20:00,
2013-01-17 21:21:00,28.2,22.5,30.55,NW,322,0.0,0.0,79,0.00,,---,0.00,VWS V14.00,2013-01-18 03:21:00,
2013-01-17 21:22:00,28.2,22.5,30.55,NW,322,0.0,0.0,79,0.00,,---,0.00,VWS V14.00,2013-01-18 03:22:00,
2013-01-17 21:23:00,28.2,22.5,30.55,NW,322,0.0,0.0,79,0.00,,---,0.00,VWS V14.00,2013-01-18 03:23:00,
2013-01-17 21:24:00,28.2,22.5,30.55,NW,322,0.0,0.0,79,0.00,,---,0.00,VWS V14.00,2013-01-18 03:24:00,
2013-01-17 21:25:00,28.2,22.5,30.55,NW,322,0.0,0.0,79,0.00,,---,0.00,VWS V14.00,2013-01-18 03:25:00,
2013-01-17 21:26:00,28.2,22.5,30.55,NW,322,0.0,0.0,79,0.00,,---,0.00,VWS V14.00,2013-01-18 03:26:00,
2013-01-17 21:27:00,28.2,22.5,30.55,NW,322,0.0,0.0,79,0.00,,---,0.00,VWS V14.00,2013-01-18 03:27:00,
2013-01-17 21:28:00,28.2,22.5,30.55,NW,322,0.0,0.0,79,0.00,,---,0.00,VWS V14.00,2013-01-18 03:28:00,
2013-01-17 21:29:00,28.2,22.5,30.55,NW,322,0.0,0.0,79,0.00,,---,0.00,VWS V14.00,2013-01-18 03:29:00,
2013-01-17 21:30:00,28.2,22.5,30.55,NW,322,0.0,0.0,79,0.00,,---,0.00,VWS V14.00,2013-01-18 03:30:00,
2013-01-17 21:31:00,28.2,22.5,30.55,NW,322,0.0,0.0,79,0.00,,---,0.00,VWS V14.00,2013-01-18 03:31:00,
2013-01-17 21:32:00,28.1,22.4,30.55,NW,322,0.0,0.0,79,0.00,,---,0.00,VWS V14.00,2013-01-18 03:32:00,
2013-01-17 21:33:00,28.1,22.4,30.55,NW,322,0.0,0.0,79,0.00,,---,0.00,VWS V14.00,2013-01-18 03:33:00,
2013-01-17 21:34:00,28.1,22.4,30.55,NW,322,0.0,0.0,79,0.00,,---,0.00,VWS V14.00,2013-01-18 03:34:00,
2013-01-17 21:35:00,28.1,22.4,30.55,NW,322,0.0,0.0,79,0.00,,---,0.00,VWS V14.00,2013-01-18 03:35:00,
2013-01-17 21:36:00,28.1,22.4,30.55,NW,322,0.0,0.0,79,0.00,,---,0.00,VWS V14.00,2013-01-18 03:36:00,
2013-01-17 21:37:00,27.9,22.2,30.55,NW,322,0.0,0.0,79,0.00,,---,0.00,VWS V14.00,2013-01-18 03:37:00,
2013-01-17 21:38:00,27.9,22.2,30.55,NW,322,0.0,0.0,79,0.00,,---,0.00,VWS V14.00,2013-01-18 03:38:00,
2013-01-17 21:39:00,27.9,22.2,30.55,NW,322,0.0,0.0,79,0.00,,---,0.00,VWS V14.00,2013-01-18 03:39:00,
2013-01-17 21:40:00,27.9,22.2,30.55,NW,322,0.0,0.0,79,0.00,,---,0.00,VWS V14.00,2013-01-18 03:40:00,
2013-01-17 21:41:00,27.9,22.2,30.55,NW,322,0.0,0.0,79,0.00,,---,0.00,VWS V14.00,2013-01-18 03:41:00,
2013-01-17 21:42:00,27.9,22.5,30.55,NW,322,0.0,0.0,80,0.00,,---,0.00,VWS V14.00,2013-01-18 03:42:00,
2013-01-17 21:43:00,27.9,22.2,30.55,NW,322,0.0,0.0,79,0.00,,---,0.00,VWS V14.00,2013-01-18 03:43:00,
2013-01-17 21:44:00,27.9,22.2,30.55,NW,322,0.0,0.0,79,0.00,,---,0.00,VWS V14.00,2013-01-18 03:44:00,
2013-01-17 21:45:00,27.9,22.5,30.55,NW,322,0.0,0.0,80,0.00,,---,0.00,VWS V14.00,2013-01-18 03:45:00,
2013-01-17 21:46:00,27.9,22.5,30.55,NW,322,0.0,0.0,80,0.00,,---,0.00,VWS V14.00,2013-01-18 03:46:00,
2013-01-17 21:47:00,27.9,22.5,30.55,NW,322,0.0,0.0,80,0.00,,---,0.00,VWS V14.00,2013-01-18 03:47:00,
2013-01-17 21:48:00,27.9,22.5,30.55,NW,322,0.0,0.0,80,0.00,,---,0.00,VWS V14.00,2013-01-18 03:48:00,
2013-01-17 21:49:00,27.9,22.5,30.55,NW,322,0.0,0.0,80,0.00,,---,0.00,VWS V14.00,2013-01-18 03:49:00,
2013-01-17 21:50:00,27.9,22.5,30.55,NW,322,0.0,0.0,80,0.00,,---,0.00,VWS V14.00,2013-01-18 03:50:00,
2013-01-17 21:51:00,27.9,22.5,30.55,NW,322,0.0,0.0,80,0.00,,---,0.00,VWS V14.00,2013-01-18 03:51:00,
2013-01-17 21:52:00,27.9,22.5,30.55,NW,322,0.0,0.0,80,0.00,,---,0.00,VWS V14.00,2013-01-18 03:52:00,
2013-01-17 21:53:00,27.9,22.5,30.55,NW,322,0.0,0.0,80,0.00,,---,0.00,VWS V14.00,2013-01-18 03:53:00,
2013-01-17 21:54:00,27.9,22.5,30.55,NW,322,0.0,0.0,80,0.00,,---,0.00,VWS V14.00,2013-01-18 03:54:00,
2013-01-17 21:55:00,27.9,22.5,30.55,NW,322,0.0,0.0,80,0.00,,---,0.00,VWS V14.00,2013-01-18 03:55:00,
2013-01-17 21:56:00,27.9,22.5,30.55,NW,322,0.0,0.0,80,0.00,,---,0.00,VWS V14.00,2013-01-18 03:56:00,
2013-01-17 21:57:00,27.8,22.4,30.55,NW,322,0.0,0.0,80,0.00,,---,0.00,VWS V14.00,2013-01-18 03:57:00,
2013-01-17 21:58:00,27.8,22.4,30.55,NW,322,0.0,0.0,80,0.00,,---,0.00,VWS V14.00,2013-01-18 03:58:00,
2013-01-17 21:59:00,27.8,22.4,30.55,NW,322,0.0,0.0,80,0.00,,---,0.00,VWS V14.00,2013-01-18 03:59:00,
2013-01-17 22:00:00,27.8,22.4,30.55,NW,322,0.0,0.0,80,0.00,,---,0.00,VWS V14.00,2013-01-18 04:00:00,
2013-01-17 22:01:00,27.8,22.4,30.55,NW,322,0.0,0.0,80,0.00,,---,0.00,VWS V14.00,2013-01-18 04:01:00,
2013-01-17 22:02:00,27.6,22.2,30.55,NW,322,0.0,0.0,80,0.00,,---,0.00,VWS V14.00,2013-01-18 04:02:00,
2013-01-17 22:03:00,27.6,22.2,30.55,NW,322,0.0,0.0,80,0.00,,---,0.00,VWS V14.00,2013-01-18 04:03:00,
2013-01-17 22:04:00,27.6,22.2,30.55,NW,322,0.0,0.0,80,0.00,,---,0.00,VWS V14.00,2013-01-18 04:04:00,
2013-01-17 22:05:00,27.6,22.2,30.55,NW,322,0.0,0.0,80,0.00,,---,0.00,VWS V14.00,2013-01-18 04:05:00,
2013-01-17 22:06:00,27.5,22.1,30.55,NW,322,0.0,0.0,80,0.00,,---,0.00,VWS V14.00,2013-01-18 04:06:00,
2013-01-17 22:07:00,27.5,22.5,30.55,NW,322,0.0,0.0,81,0.00,,---,0.00,VWS V14.00,2013-01-18 04:07:00,
2013-01-17 22:08:00,27.5,22.5,30.55,NW,322,0.0,0.0,81,0.00,,---,0.00,VWS V14.00,2013-01-18 04:08:00,
2013-01-17 22:09:00,27.5,22.5,30.55,NW,322,0.0,0.0,81,0.00,,---,0.00,VWS V14.00,2013-01-18 04:09:00,
2013-01-17 22:10:00,27.3,22.2,30.55,NW,322,0.0,0.0,81,0.00,,---,0.00,VWS V14.00,2013-01-18 04:10:00,
2013-01-17 22:11:00,27.5,22.5,30.55,NW,322,0.0,0.0,81,0.00,,---,0.00,VWS V14.00,2013-01-18 04:11:00,
2013-01-17 22:12:00,27.5,22.7,30.55,NW,322,0.0,0.0,82,0.00,,---,0.00,VWS V14.00,2013-01-18 04:12:00,
2013-01-17 22:13:00,27.5,22.7,30.55,NW,322,0.0,0.0,82,0.00,,---,0.00,VWS V14.00,2013-01-18 04:13:00,
2013-01-17 22:14:00,27.5,22.7,30.55,NW,322,0.0,0.0,82,0.00,,---,0.00,VWS V14.00,2013-01-18 04:14:00,
2013-01-17 22:15:00,27.5,22.7,30.55,NW,322,0.0,0.0,82,0.00,,---,0.00,VWS V14.00,2013-01-18 04:15:00,
2013-01-17 22:16:00,27.5,22.7,30.55,NW,322,0.0,0.0,82,0.00,,---,0.00,VWS V14.00,2013-01-18 04:16:00,
2013-01-17 22:17:00,27.3,22.5,30.55,NW,322,0.0,0.0,82,0.00,,---,0.00,VWS V14.00,2013-01-18 04:17:00,
2013-01-17 22:18:00,27.3,22.5,30.55,NW,322,0.0,0.0,82,0.00,,---,0.00,VWS V14.00,2013-01-18 04:18:00,
2013-01-17 22:19:00,27.3,22.5,30.55,NW,322,0.0,0.0,82,0.00,,---,0.00,VWS V14.00,2013-01-18 04:19:00,
2013-01-17 22:20:00,27.3,22.5,30.55,NW,322,0.0,0.0,82,0.00,,---,0.00,VWS V14.00,2013-01-18 04:20:00,
2013-01-17 22:21:00,27.3,22.5,30.55,NW,322,0.0,0.0,82,0.00,,---,0.00,VWS V14.00,2013-01-18 04:21:00,
2013-01-17 22:22:00,27.2,22.4,30.55,NW,322,0.0,0.0,82,0.00,,---,0.00,VWS V14.00,2013-01-18 04:22:00,
2013-01-17 22:23:00,27.3,22.5,30.55,NW,322,0.0,0.0,82,0.00,,---,0.00,VWS V14.00,2013-01-18 04:23:00,
2013-01-17 22:24:00,27.2,22.4,30.55,NW,322,0.0,0.0,82,0.00,,---,0.00,VWS V14.00,2013-01-18 04:24:00,
2013-01-17 22:25:00,27.2,22.4,30.55,NW,322,0.0,0.0,82,0.00,,---,0.00,VWS V14.00,2013-01-18 04:25:00,
2013-01-17 22:26:00,27.2,22.4,30.55,NW,322,0.0,0.0,82,0.00,,---,0.00,VWS V14.00,2013-01-18 04:26:00,
2013-01-17 22:27:00,26.9,22.1,30.55,NW,322,0.0,0.0,82,0.00,,---,0.00,VWS V14.00,2013-01-18 04:27:00,
2013-01-17 22:28:00,27.0,22.2,30.55,NW,322,0.0,0.0,82,0.00,,---,0.00,VWS V14.00,2013-01-18 04:28:00,
2013-01-17 22:29:00,26.9,22.1,30.55,NW,322,0.0,0.0,82,0.00,,---,0.00,VWS V14.00,2013-01-18 04:29:00,
2013-01-17 22:30:00,26.9,22.1,30.55,NW,322,0.0,0.0,82,0.00,,---,0.00,VWS V14.00,2013-01-18 04:30:00,
2013-01-17 22:31:00,26.9,22.1,30.55,NW,322,0.0,0.0,82,0.00,,---,0.00,VWS V14.00,2013-01-18 04:31:00,
2013-01-17 22:32:00,26.7,22.0,30.55,NW,322,0.0,0.0,82,0.00,,---,0.00,VWS V14.00,2013-01-18 04:32:00,
2013-01-17 22:33:00,26.7,22.0,30.55,NW,322,0.0,0.0,82,0.00,,---,0.00,VWS V14.00,2013-01-18 04:33:00,
2013-01-17 22:34:00,26.7,22.0,30.55,NW,322,0.0,0.0,82,0.00,,---,0.00,VWS V14.00,2013-01-18 04:34:00,
2013-01-17 22:35:00,26.6,21.9,30.55,NW,322,0.0,0.0,82,0.00,,---,0.00,VWS V14.00,2013-01-18 04:35:00,
2013-01-17 22:36:00,26.6,21.9,30.55,NW,322,0.0,0.0,82,0.00,,---,0.00,VWS V14.00,2013-01-18 04:36:00,
2013-01-17 22:37:00,26.6,21.9,30.55,NW,322,0.0,0.0,82,0.00,,---,0.00,VWS V14.00,2013-01-18 04:37:00,
2013-01-17 22:38:00,26.6,21.9,30.55,NW,322,0.0,0.0,82,0.00,,---,0.00,VWS V14.00,2013-01-18 04:38:00,
2013-01-17 22:39:00,26.6,21.9,30.55,NW,322,0.0,0.0,82,0.00,,---,0.00,VWS V14.00,2013-01-18 04:39:00,
2013-01-17 22:40:00,26.6,21.9,30.55,NW,322,0.0,0.0,82,0.00,,---,0.00,VWS V14.00,2013-01-18 04:40:00,
2013-01-17 22:41:00,26.6,21.9,30.55,NW,322,0.0,0.0,82,0.00,,---,0.00,VWS V14.00,2013-01-18 04:41:00,
2013-01-17 22:42:00,26.4,21.7,30.55,NW,322,0.0,0.0,82,0.00,,---,0.00,VWS V14.00,2013-01-18 04:42:00,
2013-01-17 22:43:00,26.6,21.9,30.55,NW,322,0.0,0.0,82,0.00,,---,0.00,VWS V14.00,2013-01-18 04:43:00,
2013-01-17 22:44:00,26.4,21.7,30.55,NW,322,0.0,0.0,82,0.00,,---,0.00,VWS V14.00,2013-01-18 04:44:00,
2013-01-17 22:45:00,26.4,21.7,30.55,NW,322,0.0,0.0,82,0.00,,---,0.00,VWS V14.00,2013-01-18 04:45:00,
2013-01-17 22:46:00,26.4,21.7,30.55,NW,322,0.0,0.0,82,0.00,,---,0.00,VWS V14.00,2013-01-18 04:46:00,
2013-01-17 22:47:00,26.4,21.7,30.55,NW,322,0.0,0.0,82,0.00,,---,0.00,VWS V14.00,2013-01-18 04:47:00,
2013-01-17 22:48:00,26.4,21.7,30.55,NW,322,0.0,0.0,82,0.00,,---,0.00,VWS V14.00,2013-01-18 04:48:00,
2013-01-17 22:49:00,26.4,21.7,30.55,NW,322,0.0,0.0,82,0.00,,---,0.00,VWS V14.00,2013-01-18 04:49:00,
2013-01-17 22:50:00,26.4,21.7,30.55,NW,322,0.0,0.0,82,0.00,,---,0.00,VWS V14.00,2013-01-18 04:50:00,
2013-01-17 22:51:00,26.4,21.7,30.55,NW,322,0.0,0.0,82,0.00,,---,0.00,VWS V14.00,2013-01-18 04:51:00,
2013-01-17 22:52:00,26.4,21.7,30.55,NW,322,0.0,0.0,82,0.00,,---,0.00,VWS V14.00,2013-01-18 04:52:00,
2013-01-17 22:53:00,26.4,21.7,30.55,NW,322,0.0,0.0,82,0.00,,---,0.00,VWS V14.00,2013-01-18 04:53:00,
2013-01-17 22:54:00,26.4,21.7,30.55,NW,322,0.0,0.0,82,0.00,,---,0.00,VWS V14.00,2013-01-18 04:54:00,
2013-01-17 22:55:00,26.4,21.7,30.55,NW,322,0.0,0.0,82,0.00,,---,0.00,VWS V14.00,2013-01-18 04:55:00,
2013-01-17 22:56:00,26.4,22.0,30.55,NW,322,0.0,0.0,83,0.00,,---,0.00,VWS V14.00,2013-01-18 04:56:00,
2013-01-17 22:57:00,26.4,22.0,30.55,NW,322,0.0,0.0,83,0.00,,---,0.00,VWS V14.00,2013-01-18 04:57:00,
2013-01-17 22:58:00,26.4,22.0,30.55,NW,322,0.0,0.0,83,0.00,,---,0.00,VWS V14.00,2013-01-18 04:58:00,
2013-01-17 22:59:00,26.4,22.0,30.55,NW,322,0.0,0.0,83,0.00,,---,0.00,VWS V14.00,2013-01-18 04:59:00,
2013-01-17 23:00:00,26.4,22.0,30.55,NW,322,0.0,0.0,83,0.00,,---,0.00,VWS V14.00,2013-01-18 05:00:00,
2013-01-17 23:01:00,26.4,22.0,30.55,NW,322,0.0,0.0,83,0.00,,---,0.00,VWS V14.00,2013-01-18 05:01:00,
2013-01-17 23:02:00,26.3,21.9,30.55,NW,322,0.0,0.0,83,0.00,,---,0.00,VWS V14.00,2013-01-18 05:02:00,
2013-01-17 23:03:00,26.4,22.0,30.55,NW,322,0.0,0.0,83,0.00,,---,0.00,VWS V14.00,2013-01-18 05:03:00,
2013-01-17 23:04:00,26.4,22.0,30.56,NW,322,0.0,0.0,83,0.00,,---,0.00,VWS V14.00,2013-01-18 05:04:00,
2013-01-17 23:05:00,26.4,22.0,30.56,NW,322,0.0,0.0,83,0.00,,---,0.00,VWS V14.00,2013-01-18 05:05:00,
2013-01-17 23:06:00,26.4,22.0,30.55,NW,322,0.0,0.0,83,0.00,,---,0.00,VWS V14.00,2013-01-18 05:06:00,
2013-01-17 23:07:00,26.4,22.0,30.56,NW,322,0.0,0.0,83,0.00,,---,0.00,VWS V14.00,2013-01-18 05:07:00,
2013-01-17 23:08:00,26.4,22.0,30.55,NW,322,0.0,0.0,83,0.00,,---,0.00,VWS V14.00,2013-01-18 05:08:00,
2013-01-17 23:09:00,26.4,22.0,30.55,NW,322,0.0,0.0,83,0.00,,---,0.00,VWS V14.00,2013-01-18 05:09:00,
2013-01-17 23:10:00,26.4,22.0,30.55,NW,322,0.0,0.0,83,0.00,,---,0.00,VWS V14.00,2013-01-18 05:10:00,
2013-01-17 23:11:00,26.4,22.0,30.55,NW,322,0.0,0.0,83,0.00,,---,0.00,VWS V14.00,2013-01-18 05:11:00,
2013-01-17 23:12:00,26.4,22.0,30.55,NW,322,0.0,0.0,83,0.00,,---,0.00,VWS V14.00,2013-01-18 05:12:00,
2013-01-17 23:13:00,26.4,22.0,30.55,NW,322,0.0,0.0,83,0.00,,---,0.00,VWS V14.00,2013-01-18 05:13:00,
2013-01-17 23:14:00,26.4,22.0,30.55,NW,322,0.0,0.0,83,0.00,,---,0.00,VWS V14.00,2013-01-18 05:14:00,
2013-01-17 23:15:00,26.4,22.0,30.55,NW,322,0.0,0.0,83,0.00,,---,0.00,VWS V14.00,2013-01-18 05:15:00,
2013-01-17 23:16:00,26.3,21.9,30.56,NW,322,0.0,0.0,83,0.00,,---,0.00,VWS V14.00,2013-01-18 05:16:00,
2013-01-17 23:17:00,26.3,21.9,30.56,NW,322,0.0,0.0,83,0.00,,---,0.00,VWS V14.00,2013-01-18 05:17:00,
2013-01-17 23:18:00,26.3,21.9,30.56,NW,322,0.0,0.0,83,0.00,,---,0.00,VWS V14.00,2013-01-18 05:18:00,
2013-01-17 23:19:00,26.3,21.9,30.56,NW,322,0.0,0.0,83,0.00,,---,0.00,VWS V14.00,2013-01-18 05:19:00,
2013-01-17 23:20:00,26.3,21.9,30.56,NW,322,0.0,0.0,83,0.00,,---,0.00,VWS V14.00,2013-01-18 05:20:00,
2013-01-17 23:21:00,26.3,21.9,30.56,NW,322,0.0,0.0,83,0.00,,---,0.00,VWS V14.00,2013-01-18 05:21:00,
2013-01-17 23:22:00,26.3,21.9,30.56,NW,322,0.0,0.0,83,0.00,,---,0.00,VWS V14.00,2013-01-18 05:22:00,
2013-01-17 23:23:00,26.3,21.9,30.56,NW,322,0.0,0.0,83,0.00,,---,0.00,VWS V14.00,2013-01-18 05:23:00,
2013-01-17 23:24:00,26.3,21.9,30.56,NW,322,0.0,0.0,83,0.00,,---,0.00,VWS V14.00,2013-01-18 05:24:00,
2013-01-17 23:25:00,26.3,21.9,30.56,NW,322,0.0,0.0,83,0.00,,---,0.00,VWS V14.00,2013-01-18 05:25:00,
2013-01-17 23:26:00,26.1,21.6,30.56,NW,322,0.0,0.0,83,0.00,,---,0.00,VWS V14.00,2013-01-18 05:26:00,
2013-01-17 23:27:00,26.3,21.9,30.56,NW,322,0.0,0.0,83,0.00,,---,0.00,VWS V14.00,2013-01-18 05:27:00,
2013-01-17 23:28:00,26.3,21.9,30.56,NW,322,0.0,0.0,83,0.00,,---,0.00,VWS V14.00,2013-01-18 05:28:00,
2013-01-17 23:29:00,26.1,21.6,30.56,NW,322,0.0,0.0,83,0.00,,---,0.00,VWS V14.00,2013-01-18 05:29:00,
2013-01-17 23:30:00,26.1,21.6,30.56,NW,322,0.0,0.0,83,0.00,,---,0.00,VWS V14.00,2013-01-18 05:30:00,
2013-01-17 23:31:00,25.8,21.4,30.56,NW,322,0.0,0.0,83,0.00,,---,0.00,VWS V14.00,2013-01-18 05:31:00,
2013-01-17 23:32:00,26.0,21.6,30.56,NW,322,0.0,0.0,83,0.00,,---,0.00,VWS V14.00,2013-01-18 05:32:00,
2013-01-17 23:33:00,26.0,21.6,30.56,NW,322,0.0,0.0,83,0.00,,---,0.00,VWS V14.00,2013-01-18 05:33:00,
2013-01-17 23:34:00,25.8,21.4,30.56,NW,322,0.0,0.0,83,0.00,,---,0.00,VWS V14.00,2013-01-18 05:34:00,
2013-01-17 23:35:00,25.8,21.4,30.56,NW,322,0.0,0.0,83,0.00,,---,0.00,VWS V14.00,2013-01-18 05:35:00,
2013-01-17 23:36:00,25.7,21.5,30.56,NW,322,0.0,0.0,84,0.00,,---,0.00,VWS V14.00,2013-01-18 05:36:00,
2013-01-17 23:37:00,25.7,21.5,30.56,NW,322,0.0,0.0,84,0.00,,---,0.00,VWS V14.00,2013-01-18 05:37:00,
2013-01-17 23:38:00,25.7,21.5,30.56,NW,322,0.0,0.0,84,0.00,,---,0.00,VWS V14.00,2013-01-18 05:38:00,
2013-01-17 23:39:00,25.7,21.5,30.56,NW,322,0.0,0.0,84,0.00,,---,0.00,VWS V14.00,2013-01-18 05:39:00,
2013-01-17 23:40:00,25.7,21.5,30.56,NW,322,0.0,0.0,84,0.00,,---,0.00,VWS V14.00,2013-01-18 05:40:00,
2013-01-17 23:41:00,25.6,21.5,30.56,NW,322,0.0,0.0,84,0.00,,---,0.00,VWS V14.00,2013-01-18 05:41:00,
2013-01-17 23:42:00,25.6,21.5,30.56,NW,322,0.0,0.0,84,0.00,,---,0.00,VWS V14.00,2013-01-18 05:42:00,
2013-01-17 23:43:00,25.6,21.5,30.56,NW,322,0.0,0.0,84,0.00,,---,0.00,VWS V14.00,2013-01-18 05:43:00,
2013-01-17 23:44:00,25.6,21.5,30.56,NW,322,0.0,0.0,84,0.00,,---,0.00,VWS V14.00,2013-01-18 05:44:00,
2013-01-17 23:45:00,25.6,21.5,30.56,NW,322,0.0,0.0,84,0.00,,---,0.00,VWS V14.00,2013-01-18 05:45:00,
2013-01-17 23:46:00,25.4,21.2,30.56,NW,322,0.0,0.0,84,0.00,,---,0.00,VWS V14.00,2013-01-18 05:46:00,
2013-01-17 23:47:00,25.4,21.2,30.56,NW,322,0.0,0.0,84,0.00,,---,0.00,VWS V14.00,2013-01-18 05:47:00,
2013-01-17 23:48:00,25.4,21.2,30.56,NW,322,0.0,0.0,84,0.00,,---,0.00,VWS V14.00,2013-01-18 05:48:00,
2013-01-17 23:49:00,25.4,21.2,30.56,NW,322,0.0,0.0,84,0.00,,---,0.00,VWS V14.00,2013-01-18 05:49:00,
2013-01-17 23:50:00,25.4,21.2,30.56,NW,322,0.0,0.0,84,0.00,,---,0.00,VWS V14.00,2013-01-18 05:50:00,
2013-01-17 23:51:00,25.3,21.1,30.56,NW,322,0.0,0.0,84,0.00,,---,0.00,VWS V14.00,2013-01-18 05:51:00,
2013-01-17 23:52:00,25.3,21.1,30.56,NW,322,0.0,0.0,84,0.00,,---,0.00,VWS V14.00,2013-01-18 05:52:00,
2013-01-17 23:53:00,25.3,21.1,30.56,NW,322,0.0,0.0,84,0.00,,---,0.00,VWS V14.00,2013-01-18 05:53:00,
2013-01-17 23:54:00,25.3,21.1,30.56,NW,322,0.0,0.0,84,0.00,,---,0.00,VWS V14.00,2013-01-18 05:54:00,
2013-01-17 23:55:00,25.3,21.1,30.56,NW,322,0.0,0.0,84,0.00,,---,0.00,VWS V14.00,2013-01-18 05:55:00,
2013-01-17 23:56:00,25.1,21.2,30.56,NW,322,0.0,0.0,85,0.00,,---,0.00,VWS V14.00,2013-01-18 05:56:00,
2013-01-17 23:57:00,25.3,21.4,30.56,NW,322,0.0,0.0,85,0.00,,---,0.00,VWS V14.00,2013-01-18 05:57:00,
2013-01-17 23:58:00,25.3,21.4,30.56,NW,322,0.0,0.0,85,0.00,,---,0.00,VWS V14.00,2013-01-18 05:58:00,
2013-01-17 23:59:00,25.1,21.2,30.56,NW,322,0.0,0.0,85,0.00,,---,0.00,VWS V14.00,2013-01-18 05:59:00,